Wetterdaten: Montag, 08.04.2019
Datum Zeit Temp. A. Pool Temp. Temp. 5cm Feuchte A. Luftdruck Regen Wind Richtung Richtung Sonnenschein ET UV Solar Taupunkt Windchill Windben Empfang
08.04.2019 00:00 7,8 C 10,6 C 5,0 C 84 % 1004,3 hPa 0,0 l/m 3,7 km/h (1 Bft) SW 217 0 min 0,000 mm 0,0 UV-I 0 W/m 5,3 C 7,8 C 4,8 km/h (1 Bft) 95,74 %
08.04.2019 00:02 7,7 C 10,6 C 5,0 C 85 % 1004,3 hPa 0,0 l/m 4,0 km/h (1 Bft) SW 217 0 min 0,000 mm 0,0 UV-I 0 W/m 5,3 C 7,7 C 4,8 km/h (1 Bft) 95,12 %
08.04.2019 00:04 7,7 C 10,6 C 5,0 C 85 % 1004,3 hPa 0,0 l/m 3,6 km/h (1 Bft) SW 217 0 min 0,000 mm 0,0 UV-I 0 W/m 5,3 C 7,7 C 4,8 km/h (1 Bft) 96,00 %
08.04.2019 00:06 7,7 C 10,6 C 5,0 C 85 % 1004,3 hPa 0,0 l/m 4,1 km/h (1 Bft) SW 217 0 min 0,000 mm 0,0 UV-I 0 W/m 5,3 C 7,7 C 4,8 km/h (1 Bft) 100,00 %
08.04.2019 00:08 7,6 C 10,6 C 4,4 C 85 % 1004,4 hPa 0,0 l/m 4,5 km/h (1 Bft) SW 216 0 min 0,000 mm 0,0 UV-I 0 W/m 5,2 C 7,6 C 6,4 km/h (2 Bft) 95,24 %
08.04.2019 00:10 7,4 C 10,6 C 4,4 C 85 % 1004,4 hPa 0,0 l/m 5,5 km/h (1 Bft) SW 216 0 min 0,000 mm 0,0 UV-I 0 W/m 5,0 C 7,4 C 6,4 km/h (2 Bft) 98,18 %
08.04.2019 00:12 7,3 C 10,6 C 4,4 C 85 % 1004,4 hPa 0,0 l/m 4,9 km/h (1 Bft) SW 216 0 min 0,000 mm 0,0 UV-I 0 W/m 4,9 C 7,3 C 6,4 km/h (2 Bft) 100,00 %
08.04.2019 00:14 7,1 C 10,6 C 4,4 C 85 % 1004,5 hPa 0,0 l/m 4,7 km/h (1 Bft) SW 215 0 min 0,000 mm 0,0 UV-I 0 W/m 4,8 C 7,1 C 6,4 km/h (2 Bft) 98,00 %
08.04.2019 00:16 7,2 C 10,6 C 4,4 C 87 % 1004,5 hPa 0,0 l/m 6,2 km/h (2 Bft) SW 215 0 min 0,000 mm 0,0 UV-I 0 W/m 5,2 C 7,2 C 8,0 km/h (2 Bft) 100,00 %
08.04.2019 00:18 7,3 C 10,6 C 5,0 C 87 % 1004,5 hPa 0,0 l/m 6,4 km/h (2 Bft) SW 214 0 min 0,000 mm 0,0 UV-I 0 W/m 5,3 C 7,3 C 8,0 km/h (2 Bft) 98,11 %
08.04.2019 00:20 7,4 C 10,6 C 5,0 C 87 % 1004,6 hPa 0,0 l/m 6,0 km/h (2 Bft) SW 215 0 min 0,000 mm 0,0 UV-I 0 W/m 5,4 C 7,4 C 8,0 km/h (2 Bft) 100,00 %
08.04.2019 00:22 7,6 C 10,6 C 5,0 C 86 % 1004,5 hPa 0,0 l/m 5,5 km/h (1 Bft) SW 216 0 min 0,000 mm 0,0 UV-I 0 W/m 5,4 C 7,6 C 6,4 km/h (2 Bft) 100,00 %
08.04.2019 00:24 7,7 C 10,6 C 5,0 C 86 % 1004,5 hPa 0,0 l/m 5,4 km/h (1 Bft) SW 216 0 min 0,000 mm 0,0 UV-I 0 W/m 5,5 C 7,7 C 6,4 km/h (2 Bft) 100,00 %
08.04.2019 00:26 7,6 C 10,6 C 5,0 C 85 % 1004,6 hPa 0,0 l/m 4,8 km/h (1 Bft) SW 215 0 min 0,000 mm 0,0 UV-I 0 W/m 5,2 C 7,6 C 6,4 km/h (2 Bft) 98,11 %
08.04.2019 00:28 7,3 C 10,6 C 4,4 C 84 % 1004,5 hPa 0,0 l/m 4,7 km/h (1 Bft) SW 215 0 min 0,000 mm 0,0 UV-I 0 W/m 4,8 C 7,3 C 6,4 km/h (2 Bft) 100,00 %
08.04.2019 00:30 7,2 C 10,6 C 4,4 C 85 % 1004,6 hPa 0,0 l/m 4,4 km/h (1 Bft) SW 215 0 min 0,000 mm 0,0 UV-I 0 W/m 4,9 C 7,2 C 6,4 km/h (2 Bft) 100,00 %
08.04.2019 00:32 7,1 C 10,6 C 4,4 C 86 % 1004,5 hPa 0,0 l/m 5,2 km/h (1 Bft) S-SW 209 0 min 0,000 mm 0,0 UV-I 0 W/m 4,9 C 7,1 C 6,4 km/h (2 Bft) 100,00 %
08.04.2019 00:34 7,0 C 10,6 C 4,4 C 86 % 1004,5 hPa 0,0 l/m 5,8 km/h (2 Bft) S-SW 208 0 min 0,000 mm 0,0 UV-I 0 W/m 4,8 C 7,0 C 8,0 km/h (2 Bft) 100,00 %
08.04.2019 00:36 7,2 C 10,6 C 5,0 C 87 % 1004,6 hPa 0,0 l/m 6,0 km/h (2 Bft) S-SW 211 0 min 0,000 mm 0,0 UV-I 0 W/m 5,2 C 7,2 C 8,0 km/h (2 Bft) 98,11 %
08.04.2019 00:38 7,2 C 10,6 C 5,0 C 86 % 1004,7 hPa 0,0 l/m 5,7 km/h (1 Bft) S-SW 211 0 min 0,000 mm 0,0 UV-I 0 W/m 5,0 C 7,2 C 8,0 km/h (2 Bft) 100,00 %
08.04.2019 00:40 7,1 C 10,6 C 5,0 C 86 % 1004,6 hPa 0,0 l/m 4,9 km/h (1 Bft) S-SW 208 0 min 0,000 mm 0,0 UV-I 0 W/m 4,9 C 7,1 C 8,0 km/h (2 Bft) 100,00 %
08.04.2019 00:42 7,3 C 10,6 C 5,0 C 87 % 1004,6 hPa 0,0 l/m 6,2 km/h (2 Bft) S-SW 212 0 min 0,000 mm 0,0 UV-I 0 W/m 5,3 C 7,3 C 8,0 km/h (2 Bft) 100,00 %
08.04.2019 00:44 7,4 C 10,6 C 5,6 C 87 % 1004,7 hPa 0,0 l/m 5,9 km/h (2 Bft) S-SW 211 0 min 0,000 mm 0,0 UV-I 0 W/m 5,4 C 7,4 C 8,0 km/h (2 Bft) 98,11 %
08.04.2019 00:46 7,5 C 10,6 C 5,6 C 86 % 1004,7 hPa 0,0 l/m 6,0 km/h (2 Bft) S-SW 209 0 min 0,000 mm 0,0 UV-I 0 W/m 5,3 C 7,5 C 8,0 km/h (2 Bft) 100,00 %
08.04.2019 00:48 7,5 C 10,6 C 5,6 C 86 % 1004,7 hPa 0,0 l/m 6,6 km/h (2 Bft) S-SW 212 0 min 0,000 mm 0,0 UV-I 0 W/m 5,3 C 7,4 C 8,0 km/h (2 Bft) 98,21 %
08.04.2019 00:50 7,6 C 10,6 C 6,1 C 86 % 1004,7 hPa 0,0 l/m 5,9 km/h (2 Bft) SW 214 0 min 0,000 mm 0,0 UV-I 0 W/m 5,4 C 7,6 C 8,0 km/h (2 Bft) 97,37 %
08.04.2019 00:52 7,7 C 10,6 C 6,1 C 86 % 1004,7 hPa 0,0 l/m 6,0 km/h (2 Bft) SW 218 0 min 0,000 mm 0,0 UV-I 0 W/m 5,5 C 7,7 C 8,0 km/h (2 Bft) 96,00 %
08.04.2019 00:54 7,8 C 10,6 C 6,1 C 86 % 1004,7 hPa 0,0 l/m 6,7 km/h (2 Bft) SW 219 0 min 0,000 mm 0,0 UV-I 0 W/m 5,6 C 7,6 C 9,7 km/h (2 Bft) 95,74 %
08.04.2019 00:56 7,8 C 10,6 C 6,1 C 86 % 1004,7 hPa 0,0 l/m 5,3 km/h (1 Bft) SW 219 0 min 0,000 mm 0,0 UV-I 0 W/m 5,6 C 7,8 C 8,0 km/h (2 Bft) 97,62 %
08.04.2019 00:58 7,9 C 10,6 C 6,1 C 85 % 1004,7 hPa 0,0 l/m 3,5 km/h (1 Bft) SW 219 0 min 0,000 mm 0,0 UV-I 0 W/m 5,5 C 7,9 C 4,8 km/h (1 Bft) 96,23 %
08.04.2019 01:00 7,9 C 10,6 C 6,1 C 85 % 1004,6 hPa 0,0 l/m 4,8 km/h (1 Bft) SW 219 0 min 0,000 mm 0,0 UV-I 0 W/m 5,5 C 7,9 C 6,4 km/h (2 Bft) 97,87 %
08.04.2019 01:02 7,8 C 10,6 C 6,1 C 85 % 1004,6 hPa 0,0 l/m 4,8 km/h (1 Bft) SW 219 0 min 0,000 mm 0,0 UV-I 0 W/m 5,4 C 7,8 C 6,4 km/h (2 Bft) 98,00 %
08.04.2019 01:04 7,8 C 10,6 C 6,7 C 85 % 1004,6 hPa 0,0 l/m 3,1 km/h (1 Bft) SW 219 0 min 0,000 mm 0,0 UV-I 0 W/m 5,4 C 7,8 C 4,8 km/h (1 Bft) 94,74 %
08.04.2019 01:06 7,8 C 10,6 C 6,1 C 85 % 1004,6 hPa 0,0 l/m 5,0 km/h (1 Bft) S-SW 200 0 min 0,000 mm 0,0 UV-I 0 W/m 5,4 C 7,8 C 6,4 km/h (2 Bft) 95,74 %
08.04.2019 01:08 7,8 C 10,6 C 6,7 C 85 % 1004,7 hPa 0,0 l/m 5,2 km/h (1 Bft) S-SW 200 0 min 0,000 mm 0,0 UV-I 0 W/m 5,4 C 7,8 C 6,4 km/h (2 Bft) 94,00 %
08.04.2019 01:10 7,9 C 10,6 C 6,7 C 85 % 1004,7 hPa 0,0 l/m 5,6 km/h (1 Bft) S-SW 200 0 min 0,000 mm 0,0 UV-I 0 W/m 5,5 C 7,9 C 6,4 km/h (2 Bft) 94,00 %
08.04.2019 01:12 7,9 C 10,6 C 6,7 C 85 % 1004,7 hPa 0,0 l/m 5,5 km/h (1 Bft) S-SW 211 0 min 0,000 mm 0,0 UV-I 0 W/m 5,5 C 7,9 C 6,4 km/h (2 Bft) 93,62 %
08.04.2019 01:14 7,9 C 10,6 C 6,7 C 85 % 1004,7 hPa 0,0 l/m 5,4 km/h (1 Bft) S-SW 211 0 min 0,000 mm 0,0 UV-I 0 W/m 5,5 C 7,9 C 6,4 km/h (2 Bft) 92,68 %
08.04.2019 01:16 7,8 C 10,6 C 6,7 C 85 % 1004,7 hPa 0,0 l/m 6,1 km/h (2 Bft) S-SW 209 0 min 0,000 mm 0,0 UV-I 0 W/m 5,4 C 7,8 C 6,4 km/h (2 Bft) 95,74 %
08.04.2019 01:18 7,8 C 10,6 C 6,7 C 85 % 1004,7 hPa 0,0 l/m 5,4 km/h (1 Bft) S-SW 209 0 min 0,000 mm 0,0 UV-I 0 W/m 5,4 C 7,8 C 6,4 km/h (2 Bft) 96,00 %
08.04.2019 01:20 7,8 C 10,6 C 6,7 C 85 % 1004,7 hPa 0,0 l/m 4,9 km/h (1 Bft) SW 217 0 min 0,000 mm 0,0 UV-I 0 W/m 5,4 C 7,8 C 6,4 km/h (2 Bft) 91,43 %
08.04.2019 01:22 7,8 C 10,6 C 6,7 C 85 % 1004,8 hPa 0,0 l/m 3,3 km/h (1 Bft) SW 217 0 min 0,000 mm 0,0 UV-I 0 W/m 5,4 C 7,8 C 6,4 km/h (2 Bft) 96,00 %
08.04.2019 01:24 7,8 C 10,6 C 6,7 C 85 % 1004,8 hPa 0,0 l/m 2,0 km/h (1 Bft) SW 217 0 min 0,000 mm 0,0 UV-I 0 W/m 5,4 C 7,8 C 4,8 km/h (1 Bft) 96,23 %
08.04.2019 01:26 7,8 C 10,6 C 6,1 C 85 % 1004,8 hPa 0,0 l/m 2,3 km/h (1 Bft) SW 217 0 min 0,000 mm 0,0 UV-I 0 W/m 5,4 C 7,8 C 3,2 km/h (1 Bft) 95,45 %
08.04.2019 01:28 7,8 C 10,6 C 6,1 C 85 % 1004,7 hPa 0,0 l/m 4,0 km/h (1 Bft) SW 217 0 min 0,000 mm 0,0 UV-I 0 W/m 5,4 C 7,8 C 4,8 km/h (1 Bft) 94,00 %
08.04.2019 01:30 7,9 C 10,6 C 6,7 C 85 % 1004,7 hPa 0,0 l/m 4,4 km/h (1 Bft) S-SW 209 0 min 0,000 mm 0,0 UV-I 0 W/m 5,5 C 7,9 C 6,4 km/h (2 Bft) 100,00 %
08.04.2019 01:32 7,8 C 10,6 C 6,7 C 85 % 1004,8 hPa 0,0 l/m 3,1 km/h (1 Bft) S-SW 209 0 min 0,000 mm 0,0 UV-I 0 W/m 5,4 C 7,8 C 4,8 km/h (1 Bft) 98,00 %
08.04.2019 01:34 7,8 C 10,6 C 6,1 C 86 % 1004,8 hPa 0,0 l/m 3,7 km/h (1 Bft) S-SW 209 0 min 0,000 mm 0,0 UV-I 0 W/m 5,6 C 7,8 C 4,8 km/h (1 Bft) 100,00 %
08.04.2019 01:36 7,8 C 10,6 C 6,7 C 86 % 1004,8 hPa 0,0 l/m 3,3 km/h (1 Bft) S-SW 209 0 min 0,000 mm 0,0 UV-I 0 W/m 5,6 C 7,8 C 4,8 km/h (1 Bft) 100,00 %
08.04.2019 01:38 7,9 C 10,6 C 6,7 C 86 % 1004,8 hPa 0,0 l/m 3,7 km/h (1 Bft) S-SW 209 0 min 0,000 mm 0,0 UV-I 0 W/m 5,7 C 7,9 C 4,8 km/h (1 Bft) 100,00 %
08.04.2019 01:40 7,9 C 10,6 C 6,7 C 85 % 1004,8 hPa 0,0 l/m 3,7 km/h (1 Bft) S-SW 209 0 min 0,000 mm 0,0 UV-I 0 W/m 5,5 C 7,9 C 4,8 km/h (1 Bft) 100,00 %
08.04.2019 01:42 7,8 C 10,6 C 6,7 C 85 % 1004,9 hPa 0,0 l/m 4,7 km/h (1 Bft) S-SW 209 0 min 0,000 mm 0,0 UV-I 0 W/m 5,4 C 7,8 C 6,4 km/h (2 Bft) 100,00 %
08.04.2019 01:44 7,8 C 10,6 C 6,7 C 85 % 1004,8 hPa 0,0 l/m 4,8 km/h (1 Bft) S-SW 208 0 min 0,000 mm 0,0 UV-I 0 W/m 5,4 C 7,8 C 6,4 km/h (2 Bft) 100,00 %
08.04.2019 01:46 7,7 C 10,6 C 6,7 C 86 % 1004,9 hPa 0,0 l/m 4,4 km/h (1 Bft) S-SW 207 0 min 0,000 mm 0,0 UV-I 0 W/m 5,5 C 7,7 C 6,4 km/h (2 Bft) 100,00 %
08.04.2019 01:48 7,7 C 10,6 C 6,7 C 86 % 1004,9 hPa 0,0 l/m 4,9 km/h (1 Bft) S-SW 207 0 min 0,000 mm 0,0 UV-I 0 W/m 5,5 C 7,7 C 6,4 km/h (2 Bft) 100,00 %
08.04.2019 01:50 7,6 C 10,6 C 6,7 C 86 % 1004,9 hPa 0,0 l/m 3,5 km/h (1 Bft) S-SW 207 0 min 0,000 mm 0,0 UV-I 0 W/m 5,4 C 7,6 C 4,8 km/h (1 Bft) 100,00 %
08.04.2019 01:52 7,5 C 10,6 C 6,7 C 86 % 1004,8 hPa 0,0 l/m 3,4 km/h (1 Bft) S-SW 207 0 min 0,000 mm 0,0 UV-I 0 W/m 5,3 C 7,5 C 4,8 km/h (1 Bft) 98,11 %
08.04.2019 01:54 7,6 C 10,6 C 6,7 C 87 % 1004,9 hPa 0,0 l/m 3,7 km/h (1 Bft) S-SW 207 0 min 0,000 mm 0,0 UV-I 0 W/m 5,6 C 7,6 C 4,8 km/h (1 Bft) 100,00 %
08.04.2019 01:56 7,7 C 10,6 C 6,7 C 86 % 1004,9 hPa 0,0 l/m 5,1 km/h (1 Bft) S-SW 210 0 min 0,000 mm 0,0 UV-I 0 W/m 5,5 C 7,7 C 6,4 km/h (2 Bft) 100,00 %
08.04.2019 01:58 7,8 C 10,6 C 6,7 C 86 % 1004,9 hPa 0,0 l/m 5,0 km/h (1 Bft) S-SW 210 0 min 0,000 mm 0,0 UV-I 0 W/m 5,6 C 7,8 C 6,4 km/h (2 Bft) 97,73 %
08.04.2019 02:00 7,7 C 10,6 C 6,7 C 86 % 1004,9 hPa 0,0 l/m 4,4 km/h (1 Bft) S-SW 210 0 min 0,000 mm 0,0 UV-I 0 W/m 5,5 C 7,7 C 6,4 km/h (2 Bft) 100,00 %
08.04.2019 02:02 7,7 C 10,6 C 7,2 C 86 % 1004,9 hPa 0,0 l/m 3,7 km/h (1 Bft) S-SW 210 0 min 0,000 mm 0,0 UV-I 0 W/m 5,5 C 7,7 C 4,8 km/h (1 Bft) 100,00 %
08.04.2019 02:04 7,7 C 10,6 C 7,2 C 86 % 1004,9 hPa 0,0 l/m 4,7 km/h (1 Bft) S-SW 209 0 min 0,000 mm 0,0 UV-I 0 W/m 5,5 C 7,7 C 6,4 km/h (2 Bft) 100,00 %
08.04.2019 02:06 7,8 C 10,6 C 7,2 C 86 % 1004,9 hPa 0,0 l/m 5,8 km/h (2 Bft) S-SW 209 0 min 0,000 mm 0,0 UV-I 0 W/m 5,6 C 7,8 C 6,4 km/h (2 Bft) 100,00 %
08.04.2019 02:08 7,8 C 10,6 C 7,2 C 86 % 1004,9 hPa 0,0 l/m 5,9 km/h (2 Bft) SW 218 0 min 0,000 mm 0,0 UV-I 0 W/m 5,6 C 7,8 C 6,4 km/h (2 Bft) 100,00 %
08.04.2019 02:10 7,8 C 10,6 C 7,2 C 86 % 1004,9 hPa 0,0 l/m 4,9 km/h (1 Bft) SW 218 0 min 0,000 mm 0,0 UV-I 0 W/m 5,6 C 7,8 C 6,4 km/h (2 Bft) 96,00 %
08.04.2019 02:12 7,7 C 10,6 C 7,2 C 86 % 1005,0 hPa 0,0 l/m 4,7 km/h (1 Bft) S-SW 199 0 min 0,000 mm 0,0 UV-I 0 W/m 5,5 C 7,7 C 6,4 km/h (2 Bft) 100,00 %
08.04.2019 02:14 7,6 C 10,6 C 7,2 C 86 % 1004,9 hPa 0,0 l/m 4,5 km/h (1 Bft) S-SW 199 0 min 0,000 mm 0,0 UV-I 0 W/m 5,4 C 7,6 C 6,4 km/h (2 Bft) 98,00 %
08.04.2019 02:16 7,6 C 10,6 C 7,2 C 86 % 1004,9 hPa 0,0 l/m 5,5 km/h (1 Bft) S-SW 199 0 min 0,000 mm 0,0 UV-I 0 W/m 5,4 C 7,6 C 6,4 km/h (2 Bft) 100,00 %
08.04.2019 02:18 7,7 C 10,6 C 7,2 C 87 % 1004,9 hPa 0,0 l/m 5,1 km/h (1 Bft) S-SW 199 0 min 0,000 mm 0,0 UV-I 0 W/m 5,7 C 7,7 C 6,4 km/h (2 Bft) 100,00 %
08.04.2019 02:20 7,7 C 10,6 C 7,2 C 87 % 1004,9 hPa 0,0 l/m 4,9 km/h (1 Bft) S-SW 199 0 min 0,000 mm 0,0 UV-I 0 W/m 5,7 C 7,7 C 6,4 km/h (2 Bft) 97,56 %
08.04.2019 02:22 7,7 C 10,6 C 7,2 C 86 % 1004,9 hPa 0,0 l/m 4,0 km/h (1 Bft) S-SW 199 0 min 0,000 mm 0,0 UV-I 0 W/m 5,5 C 7,7 C 4,8 km/h (1 Bft) 98,00 %
08.04.2019 02:24 7,8 C 10,6 C 7,2 C 86 % 1005,0 hPa 0,0 l/m 5,7 km/h (1 Bft) S-SW 200 0 min 0,000 mm 0,0 UV-I 0 W/m 5,6 C 7,8 C 8,0 km/h (2 Bft) 97,37 %
08.04.2019 02:26 7,7 C 10,6 C 7,2 C 86 % 1004,9 hPa 0,0 l/m 6,5 km/h (2 Bft) S-SW 206 0 min 0,000 mm 0,0 UV-I 0 W/m 5,5 C 7,6 C 8,0 km/h (2 Bft) 98,00 %
08.04.2019 02:28 7,7 C 10,6 C 7,2 C 86 % 1004,9 hPa 0,0 l/m 6,5 km/h (2 Bft) S-SW 213 0 min 0,000 mm 0,0 UV-I 0 W/m 5,5 C 7,6 C 8,0 km/h (2 Bft) 97,87 %
08.04.2019 02:30 7,7 C 10,6 C 7,2 C 86 % 1004,9 hPa 0,0 l/m 4,9 km/h (1 Bft) SW 215 0 min 0,000 mm 0,0 UV-I 0 W/m 5,5 C 7,7 C 6,4 km/h (2 Bft) 96,23 %
08.04.2019 02:32 7,6 C 10,6 C 7,2 C 86 % 1004,9 hPa 0,0 l/m 3,9 km/h (1 Bft) SW 215 0 min 0,000 mm 0,0 UV-I 0 W/m 5,4 C 7,6 C 6,4 km/h (2 Bft) 97,56 %
08.04.2019 02:34 7,6 C 10,6 C 7,2 C 87 % 1005,0 hPa 0,0 l/m 4,1 km/h (1 Bft) SW 215 0 min 0,000 mm 0,0 UV-I 0 W/m 5,6 C 7,6 C 6,4 km/h (2 Bft) 97,87 %
08.04.2019 02:36 7,5 C 10,6 C 7,2 C 87 % 1004,9 hPa 0,0 l/m 3,8 km/h (1 Bft) SW 215 0 min 0,000 mm 0,0 UV-I 0 W/m 5,5 C 7,5 C 6,4 km/h (2 Bft) 96,00 %
08.04.2019 02:38 7,5 C 10,6 C 7,2 C 87 % 1005,0 hPa 0,0 l/m 5,0 km/h (1 Bft) SW 215 0 min 0,000 mm 0,0 UV-I 0 W/m 5,5 C 7,5 C 6,4 km/h (2 Bft) 96,00 %
08.04.2019 02:40 7,6 C 10,6 C 7,2 C 87 % 1005,0 hPa 0,0 l/m 4,3 km/h (1 Bft) SW 215 0 min 0,000 mm 0,0 UV-I 0 W/m 5,6 C 7,6 C 6,4 km/h (2 Bft) 97,56 %
08.04.2019 02:42 7,6 C 10,6 C 6,7 C 87 % 1004,9 hPa 0,0 l/m 4,6 km/h (1 Bft) SW 215 0 min 0,000 mm 0,0 UV-I 0 W/m 5,6 C 7,6 C 6,4 km/h (2 Bft) 97,87 %
08.04.2019 02:44 7,6 C 10,6 C 6,7 C 87 % 1004,9 hPa 0,0 l/m 5,4 km/h (1 Bft) S-SW 213 0 min 0,000 mm 0,0 UV-I 0 W/m 5,6 C 7,6 C 6,4 km/h (2 Bft) 94,34 %
08.04.2019 02:46 7,7 C 10,6 C 6,7 C 87 % 1004,9 hPa 0,0 l/m 4,9 km/h (1 Bft) S-SW 213 0 min 0,000 mm 0,0 UV-I 0 W/m 5,7 C 7,7 C 6,4 km/h (2 Bft) 95,74 %
08.04.2019 02:48 7,7 C 10,6 C 7,2 C 87 % 1004,9 hPa 0,0 l/m 4,9 km/h (1 Bft) S-SW 213 0 min 0,000 mm 0,0 UV-I 0 W/m 5,7 C 7,7 C 6,4 km/h (2 Bft) 94,87 %
08.04.2019 02:50 7,7 C 10,6 C 7,2 C 87 % 1004,9 hPa 0,0 l/m 4,5 km/h (1 Bft) S-SW 213 0 min 0,000 mm 0,0 UV-I 0 W/m 5,7 C 7,7 C 6,4 km/h (2 Bft) 96,00 %
08.04.2019 02:52 7,7 C 10,6 C 6,7 C 87 % 1004,9 hPa 0,0 l/m 4,6 km/h (1 Bft) S-SW 213 0 min 0,000 mm 0,0 UV-I 0 W/m 5,7 C 7,7 C 6,4 km/h (2 Bft) 97,56 %
08.04.2019 02:54 7,7 C 10,6 C 6,7 C 86 % 1004,9 hPa 0,0 l/m 4,5 km/h (1 Bft) S-SW 213 0 min 0,000 mm 0,0 UV-I 0 W/m 5,5 C 7,7 C 6,4 km/h (2 Bft) 98,21 %
08.04.2019 02:56 7,8 C 10,6 C 6,7 C 86 % 1004,9 hPa 0,0 l/m 4,4 km/h (1 Bft) S-SW 213 0 min 0,000 mm 0,0 UV-I 0 W/m 5,6 C 7,8 C 6,4 km/h (2 Bft) 95,12 %
08.04.2019 02:58 7,8 C 10,6 C 6,7 C 86 % 1005,0 hPa 0,0 l/m 5,1 km/h (1 Bft) SW 214 0 min 0,000 mm 0,0 UV-I 0 W/m 5,6 C 7,8 C 8,0 km/h (2 Bft) 98,11 %
08.04.2019 03:00 7,8 C 10,6 C 6,7 C 86 % 1004,9 hPa 0,0 l/m 5,3 km/h (1 Bft) SW 214 0 min 0,000 mm 0,0 UV-I 0 W/m 5,6 C 7,8 C 6,4 km/h (2 Bft) 97,37 %
08.04.2019 03:02 7,8 C 10,6 C 6,7 C 86 % 1005,0 hPa 0,0 l/m 6,7 km/h (2 Bft) SW 217 0 min 0,000 mm 0,0 UV-I 0 W/m 5,6 C 7,6 C 8,0 km/h (2 Bft) 98,00 %
08.04.2019 03:04 7,7 C 10,6 C 6,7 C 86 % 1005,0 hPa 0,0 l/m 6,3 km/h (2 Bft) S-SW 211 0 min 0,000 mm 0,0 UV-I 0 W/m 5,5 C 7,7 C 8,0 km/h (2 Bft) 96,23 %
08.04.2019 03:06 7,7 C 10,6 C 6,7 C 87 % 1005,0 hPa 0,0 l/m 6,4 km/h (2 Bft) S-SW 212 0 min 0,000 mm 0,0 UV-I 0 W/m 5,7 C 7,7 C 8,0 km/h (2 Bft) 95,12 %
08.04.2019 03:08 7,7 C 10,6 C 6,7 C 87 % 1005,1 hPa 0,0 l/m 6,4 km/h (2 Bft) S-SW 204 0 min 0,000 mm 0,0 UV-I 0 W/m 5,7 C 7,7 C 9,7 km/h (2 Bft) 92,45 %
08.04.2019 03:10 7,7 C 10,6 C 6,7 C 87 % 1005,1 hPa 0,0 l/m 6,6 km/h (2 Bft) SW 215 0 min 0,000 mm 0,0 UV-I 0 W/m 5,7 C 7,6 C 9,7 km/h (2 Bft) 95,45 %
08.04.2019 03:12 7,7 C 10,6 C 6,7 C 87 % 1005,1 hPa 0,0 l/m 6,8 km/h (2 Bft) SW 217 0 min 0,000 mm 0,0 UV-I 0 W/m 5,7 C 7,4 C 9,7 km/h (2 Bft) 94,29 %
08.04.2019 03:14 7,6 C 10,6 C 6,7 C 87 % 1005,1 hPa 0,0 l/m 6,8 km/h (2 Bft) S-SW 213 0 min 0,000 mm 0,0 UV-I 0 W/m 5,6 C 7,3 C 9,7 km/h (2 Bft) 94,34 %
08.04.2019 03:16 7,6 C 10,6 C 6,7 C 87 % 1005,1 hPa 0,0 l/m 4,6 km/h (1 Bft) SW 215 0 min 0,000 mm 0,0 UV-I 0 W/m 5,6 C 7,6 C 6,4 km/h (2 Bft) 98,00 %
08.04.2019 03:18 7,6 C 10,6 C 6,7 C 87 % 1005,0 hPa 0,0 l/m 5,2 km/h (1 Bft) SW 215 0 min 0,000 mm 0,0 UV-I 0 W/m 5,6 C 7,6 C 8,0 km/h (2 Bft) 95,45 %
08.04.2019 03:20 7,5 C 10,6 C 6,7 C 87 % 1005,1 hPa 0,0 l/m 4,8 km/h (1 Bft) SW 214 0 min 0,000 mm 0,0 UV-I 0 W/m 5,5 C 7,5 C 8,0 km/h (2 Bft) 96,23 %
08.04.2019 03:22 7,5 C 10,6 C 6,7 C 87 % 1005,1 hPa 0,0 l/m 5,1 km/h (1 Bft) S-SW 211 0 min 0,000 mm 0,0 UV-I 0 W/m 5,5 C 7,5 C 8,0 km/h (2 Bft) 93,62 %
08.04.2019 03:24 7,5 C 10,6 C 6,7 C 87 % 1005,1 hPa 0,0 l/m 4,6 km/h (1 Bft) S-SW 213 0 min 0,000 mm 0,0 UV-I 0 W/m 5,5 C 7,5 C 6,4 km/h (2 Bft) 94,00 %
08.04.2019 03:26 7,5 C 10,6 C 6,7 C 87 % 1005,1 hPa 0,0 l/m 5,3 km/h (1 Bft) SW 216 0 min 0,000 mm 0,0 UV-I 0 W/m 5,5 C 7,5 C 8,0 km/h (2 Bft) 93,62 %
08.04.2019 03:28 7,5 C 10,6 C 6,7 C 87 % 1005,1 hPa 0,0 l/m 5,7 km/h (1 Bft) S-SW 206 0 min 0,000 mm 0,0 UV-I 0 W/m 5,5 C 7,5 C 8,0 km/h (2 Bft) 95,45 %
08.04.2019 03:30 7,5 C 10,6 C 6,7 C 87 % 1005,1 hPa 0,0 l/m 6,0 km/h (2 Bft) S-SW 209 0 min 0,000 mm 0,0 UV-I 0 W/m 5,5 C 7,5 C 8,0 km/h (2 Bft) 95,83 %
08.04.2019 03:32 7,4 C 10,6 C 6,7 C 88 % 1005,1 hPa 0,0 l/m 5,2 km/h (1 Bft) S-SW 208 0 min 0,000 mm 0,0 UV-I 0 W/m 5,5 C 7,4 C 6,4 km/h (2 Bft) 94,74 %
08.04.2019 03:34 7,4 C 10,6 C 6,7 C 88 % 1005,2 hPa 0,0 l/m 4,4 km/h (1 Bft) S-SW 208 0 min 0,000 mm 0,0 UV-I 0 W/m 5,5 C 7,4 C 4,8 km/h (1 Bft) 96,23 %
08.04.2019 03:36 7,4 C 10,6 C 6,7 C 88 % 1005,2 hPa 0,0 l/m 5,0 km/h (1 Bft) S-SW 208 0 min 0,000 mm 0,0 UV-I 0 W/m 5,5 C 7,4 C 6,4 km/h (2 Bft) 95,12 %
08.04.2019 03:38 7,4 C 10,6 C 6,7 C 88 % 1005,1 hPa 0,0 l/m 5,3 km/h (1 Bft) S-SW 208 0 min 0,000 mm 0,0 UV-I 0 W/m 5,5 C 7,4 C 6,4 km/h (2 Bft) 96,23 %
08.04.2019 03:40 7,5 C 10,6 C 6,7 C 88 % 1005,2 hPa 0,0 l/m 4,9 km/h (1 Bft) S-SW 208 0 min 0,000 mm 0,0 UV-I 0 W/m 5,6 C 7,5 C 6,4 km/h (2 Bft) 95,74 %
08.04.2019 03:42 7,5 C 10,6 C 6,7 C 88 % 1005,2 hPa 0,0 l/m 4,9 km/h (1 Bft) S-SW 208 0 min 0,000 mm 0,0 UV-I 0 W/m 5,6 C 7,5 C 6,4 km/h (2 Bft) 96,00 %
08.04.2019 03:44 7,5 C 10,6 C 6,7 C 88 % 1005,2 hPa 0,0 l/m 4,5 km/h (1 Bft) S-SW 208 0 min 0,000 mm 0,0 UV-I 0 W/m 5,6 C 7,5 C 6,4 km/h (2 Bft) 94,74 %
08.04.2019 03:46 7,5 C 10,6 C 7,2 C 88 % 1005,2 hPa 0,0 l/m 4,4 km/h (1 Bft) S-SW 208 0 min 0,000 mm 0,0 UV-I 0 W/m 5,6 C 7,5 C 4,8 km/h (1 Bft) 96,00 %
08.04.2019 03:48 7,5 C 10,6 C 7,2 C 88 % 1005,2 hPa 0,0 l/m 4,8 km/h (1 Bft) S-SW 208 0 min 0,000 mm 0,0 UV-I 0 W/m 5,6 C 7,5 C 6,4 km/h (2 Bft) 95,74 %
08.04.2019 03:50 7,5 C 10,6 C 7,2 C 88 % 1005,2 hPa 0,0 l/m 5,1 km/h (1 Bft) S-SW 208 0 min 0,000 mm 0,0 UV-I 0 W/m 5,6 C 7,5 C 6,4 km/h (2 Bft) 93,62 %
08.04.2019 03:52 7,5 C 10,6 C 7,2 C 88 % 1005,2 hPa 0,0 l/m 5,3 km/h (1 Bft) S-SW 208 0 min 0,000 mm 0,0 UV-I 0 W/m 5,6 C 7,5 C 6,4 km/h (2 Bft) 98,00 %
08.04.2019 03:54 7,5 C 10,6 C 7,2 C 88 % 1005,2 hPa 0,0 l/m 5,4 km/h (1 Bft) S-SW 207 0 min 0,000 mm 0,0 UV-I 0 W/m 5,6 C 7,5 C 6,4 km/h (2 Bft) 96,67 %
08.04.2019 03:56 7,5 C 10,6 C 7,2 C 88 % 1005,3 hPa 0,0 l/m 4,3 km/h (1 Bft) S-SW 207 0 min 0,000 mm 0,0 UV-I 0 W/m 5,6 C 7,5 C 6,4 km/h (2 Bft) 98,18 %
08.04.2019 03:58 7,5 C 10,6 C 7,2 C 88 % 1005,3 hPa 0,0 l/m 4,6 km/h (1 Bft) S-SW 207 0 min 0,000 mm 0,0 UV-I 0 W/m 5,6 C 7,5 C 6,4 km/h (2 Bft) 94,00 %
08.04.2019 04:00 7,6 C 10,6 C 7,2 C 88 % 1005,3 hPa 0,0 l/m 4,2 km/h (1 Bft) S-SW 207 0 min 0,000 mm 0,0 UV-I 0 W/m 5,7 C 7,6 C 6,4 km/h (2 Bft) 98,00 %
08.04.2019 04:05 7,6 C 10,6 C 7,2 C 88 % 1005,3 hPa 0,0 l/m 4,8 km/h (1 Bft) S-SW 203 0 min 0,000 mm 0,0 UV-I 0 W/m 5,7 C 7,6 C 6,4 km/h (2 Bft) 98,53 %
08.04.2019 04:06 7,7 C 10,6 C 7,2 C 88 % 1005,3 hPa 0,0 l/m 4,1 km/h (1 Bft) S-SW 194 0 min 0,000 mm 0,0 UV-I 0 W/m 5,8 C 7,7 C 6,4 km/h (2 Bft) 100,00 %
08.04.2019 04:08 7,7 C 10,6 C 7,2 C 88 % 1005,4 hPa 0,0 l/m 4,8 km/h (1 Bft) S-SW 196 0 min 0,000 mm 0,0 UV-I 0 W/m 5,8 C 7,7 C 6,4 km/h (2 Bft) 100,00 %
08.04.2019 04:10 7,7 C 10,6 C 7,2 C 87 % 1005,4 hPa 0,0 l/m 5,3 km/h (1 Bft) S-SW 196 0 min 0,000 mm 0,0 UV-I 0 W/m 5,7 C 7,7 C 6,4 km/h (2 Bft) 100,00 %
08.04.2019 04:12 7,7 C 10,6 C 7,2 C 88 % 1005,4 hPa 0,0 l/m 5,5 km/h (1 Bft) S-SW 197 0 min 0,000 mm 0,0 UV-I 0 W/m 5,8 C 7,7 C 6,4 km/h (2 Bft) 100,00 %
08.04.2019 04:14 7,7 C 10,6 C 7,2 C 87 % 1005,4 hPa 0,0 l/m 5,2 km/h (1 Bft) S-SW 198 0 min 0,000 mm 0,0 UV-I 0 W/m 5,7 C 7,7 C 6,4 km/h (2 Bft) 100,00 %
08.04.2019 04:16 7,7 C 10,6 C 7,2 C 87 % 1005,4 hPa 0,0 l/m 5,0 km/h (1 Bft) S-SW 198 0 min 0,000 mm 0,0 UV-I 0 W/m 5,7 C 7,7 C 6,4 km/h (2 Bft) 98,11 %
08.04.2019 04:18 7,7 C 10,6 C 7,2 C 87 % 1005,4 hPa 0,0 l/m 4,3 km/h (1 Bft) S-SW 198 0 min 0,000 mm 0,0 UV-I 0 W/m 5,7 C 7,7 C 6,4 km/h (2 Bft) 98,00 %
08.04.2019 04:20 7,7 C 10,6 C 7,2 C 87 % 1005,5 hPa 0,0 l/m 4,4 km/h (1 Bft) S-SW 198 0 min 0,000 mm 0,0 UV-I 0 W/m 5,7 C 7,7 C 4,8 km/h (1 Bft) 97,87 %
08.04.2019 04:22 7,7 C 10,6 C 7,2 C 88 % 1005,5 hPa 0,0 l/m 3,6 km/h (1 Bft) S-SW 198 0 min 0,000 mm 0,0 UV-I 0 W/m 5,8 C 7,7 C 4,8 km/h (1 Bft) 97,37 %
08.04.2019 04:24 7,7 C 10,6 C 7,2 C 88 % 1005,5 hPa 0,0 l/m 4,1 km/h (1 Bft) S-SW 198 0 min 0,000 mm 0,0 UV-I 0 W/m 5,8 C 7,7 C 6,4 km/h (2 Bft) 100,00 %
08.04.2019 04:26 7,6 C 10,6 C 7,2 C 88 % 1005,5 hPa 0,0 l/m 4,2 km/h (1 Bft) S-SW 198 0 min 0,000 mm 0,0 UV-I 0 W/m 5,7 C 7,6 C 6,4 km/h (2 Bft) 97,56 %
08.04.2019 04:28 7,6 C 10,6 C 7,2 C 88 % 1005,5 hPa 0,0 l/m 4,7 km/h (1 Bft) SW 221 0 min 0,000 mm 0,0 UV-I 0 W/m 5,7 C 7,6 C 6,4 km/h (2 Bft) 98,00 %
08.04.2019 04:30 7,7 C 10,6 C 7,2 C 88 % 1005,5 hPa 0,0 l/m 4,9 km/h (1 Bft) SW 221 0 min 0,000 mm 0,0 UV-I 0 W/m 5,8 C 7,7 C 8,0 km/h (2 Bft) 100,00 %
08.04.2019 04:32 7,7 C 10,6 C 7,2 C 88 % 1005,5 hPa 0,0 l/m 4,4 km/h (1 Bft) SW 221 0 min 0,000 mm 0,0 UV-I 0 W/m 5,8 C 7,7 C 6,4 km/h (2 Bft) 100,00 %
08.04.2019 04:34 7,7 C 10,6 C 7,2 C 88 % 1005,6 hPa 0,0 l/m 6,5 km/h (2 Bft) S-SW 209 0 min 0,000 mm 0,0 UV-I 0 W/m 5,8 C 7,6 C 8,0 km/h (2 Bft) 100,00 %
08.04.2019 04:36 7,7 C 10,6 C 7,2 C 88 % 1005,6 hPa 0,0 l/m 6,9 km/h (2 Bft) SW 225 0 min 0,000 mm 0,0 UV-I 0 W/m 5,8 C 7,3 C 9,7 km/h (2 Bft) 98,21 %
08.04.2019 04:38 7,7 C 10,6 C 7,2 C 88 % 1005,6 hPa 0,0 l/m 6,4 km/h (2 Bft) S-SW 209 0 min 0,000 mm 0,0 UV-I 0 W/m 5,8 C 7,7 C 9,7 km/h (2 Bft) 100,00 %
08.04.2019 04:40 7,8 C 10,6 C 7,2 C 88 % 1005,6 hPa 0,0 l/m 6,9 km/h (2 Bft) SW 223 0 min 0,000 mm 0,0 UV-I 0 W/m 5,9 C 7,4 C 9,7 km/h (2 Bft) 100,00 %
08.04.2019 04:42 7,8 C 10,6 C 7,2 C 88 % 1005,6 hPa 0,0 l/m 6,8 km/h (2 Bft) W-SW 240 0 min 0,000 mm 0,0 UV-I 0 W/m 5,9 C 7,5 C 9,7 km/h (2 Bft) 100,00 %
08.04.2019 04:44 7,9 C 10,6 C 7,2 C 88 % 1005,6 hPa 0,0 l/m 6,1 km/h (2 Bft) SW 221 0 min 0,000 mm 0,0 UV-I 0 W/m 6,0 C 7,9 C 8,0 km/h (2 Bft) 100,00 %
08.04.2019 04:46 7,9 C 10,6 C 7,2 C 87 % 1005,7 hPa 0,0 l/m 5,1 km/h (1 Bft) W-SW 239 0 min 0,000 mm 0,0 UV-I 0 W/m 5,9 C 7,9 C 8,0 km/h (2 Bft) 97,87 %
08.04.2019 04:48 7,9 C 10,6 C 7,2 C 87 % 1005,7 hPa 0,0 l/m 5,3 km/h (1 Bft) S-SW 210 0 min 0,000 mm 0,0 UV-I 0 W/m 5,9 C 7,9 C 8,0 km/h (2 Bft) 98,00 %
08.04.2019 04:50 7,9 C 10,6 C 7,2 C 87 % 1005,7 hPa 0,0 l/m 5,7 km/h (1 Bft) SW 215 0 min 0,000 mm 0,0 UV-I 0 W/m 5,9 C 7,9 C 8,0 km/h (2 Bft) 100,00 %
08.04.2019 04:52 7,9 C 10,6 C 7,2 C 87 % 1005,8 hPa 0,0 l/m 7,5 km/h (2 Bft) SW 227 0 min 0,000 mm 0,0 UV-I 0 W/m 5,9 C 7,0 C 9,7 km/h (2 Bft) 100,00 %
08.04.2019 04:54 8,0 C 10,6 C 7,2 C 87 % 1005,8 hPa 0,0 l/m 7,6 km/h (2 Bft) SW 223 0 min 0,000 mm 0,0 UV-I 0 W/m 6,0 C 7,1 C 9,7 km/h (2 Bft) 100,00 %
08.04.2019 04:56 8,0 C 10,6 C 7,2 C 87 % 1005,8 hPa 0,0 l/m 7,4 km/h (2 Bft) S-SW 212 0 min 0,000 mm 0,0 UV-I 0 W/m 6,0 C 7,2 C 11,3 km/h (2 Bft) 97,37 %
08.04.2019 04:58 8,0 C 10,6 C 7,8 C 87 % 1005,8 hPa 0,0 l/m 7,0 km/h (2 Bft) SW 225 0 min 0,000 mm 0,0 UV-I 0 W/m 6,0 C 7,5 C 9,7 km/h (2 Bft) 100,00 %
08.04.2019 05:00 8,1 C 10,6 C 7,8 C 87 % 1005,8 hPa 0,0 l/m 7,1 km/h (2 Bft) W-SW 238 0 min 0,000 mm 0,0 UV-I 0 W/m 6,1 C 7,6 C 11,3 km/h (2 Bft) 96,00 %
08.04.2019 05:02 8,1 C 10,6 C 7,8 C 87 % 1005,8 hPa 0,0 l/m 6,9 km/h (2 Bft) SW 222 0 min 0,000 mm 0,0 UV-I 0 W/m 6,1 C 7,7 C 12,9 km/h (3 Bft) 97,37 %
08.04.2019 05:04 8,1 C 10,6 C 7,8 C 87 % 1005,8 hPa 0,0 l/m 7,0 km/h (2 Bft) SW 215 0 min 0,000 mm 0,0 UV-I 0 W/m 6,1 C 7,6 C 9,7 km/h (2 Bft) 97,87 %
08.04.2019 05:06 8,1 C 10,6 C 7,8 C 87 % 1005,9 hPa 0,0 l/m 7,9 km/h (2 Bft) SW 221 0 min 0,000 mm 0,0 UV-I 0 W/m 6,1 C 6,9 C 11,3 km/h (2 Bft) 97,56 %
08.04.2019 05:08 8,1 C 10,6 C 7,8 C 87 % 1005,9 hPa 0,0 l/m 8,5 km/h (2 Bft) S-SW 208 0 min 0,000 mm 0,0 UV-I 0 W/m 6,1 C 6,5 C 11,3 km/h (2 Bft) 94,34 %
08.04.2019 05:10 8,1 C 10,6 C 7,8 C 87 % 1005,9 hPa 0,0 l/m 8,7 km/h (2 Bft) SW 229 0 min 0,000 mm 0,0 UV-I 0 W/m 6,1 C 6,4 C 11,3 km/h (2 Bft) 95,74 %
08.04.2019 05:12 8,1 C 10,6 C 7,8 C 87 % 1005,9 hPa 0,0 l/m 8,7 km/h (2 Bft) SW 217 0 min 0,000 mm 0,0 UV-I 0 W/m 6,1 C 6,4 C 14,5 km/h (3 Bft) 93,62 %
08.04.2019 05:14 8,1 C 10,6 C 7,8 C 87 % 1006,0 hPa 0,0 l/m 9,7 km/h (2 Bft) SW 230 0 min 0,000 mm 0,0 UV-I 0 W/m 6,1 C 5,7 C 14,5 km/h (3 Bft) 96,00 %
08.04.2019 05:16 8,1 C 10,6 C 7,8 C 87 % 1006,0 hPa 0,0 l/m 7,7 km/h (2 Bft) S-SW 203 0 min 0,000 mm 0,0 UV-I 0 W/m 6,1 C 7,1 C 12,9 km/h (3 Bft) 96,23 %
08.04.2019 05:18 8,1 C 10,6 C 7,8 C 87 % 1006,0 hPa 0,0 l/m 7,1 km/h (2 Bft) S-SW 211 0 min 0,000 mm 0,0 UV-I 0 W/m 6,1 C 7,6 C 9,7 km/h (2 Bft) 92,31 %
08.04.2019 05:20 8,1 C 10,6 C 7,8 C 87 % 1006,0 hPa 0,0 l/m 7,3 km/h (2 Bft) SW 220 0 min 0,000 mm 0,0 UV-I 0 W/m 6,1 C 7,4 C 12,9 km/h (3 Bft) 98,00 %
08.04.2019 05:22 8,1 C 10,6 C 7,8 C 87 % 1006,0 hPa 0,0 l/m 7,4 km/h (2 Bft) W-SW 240 0 min 0,000 mm 0,0 UV-I 0 W/m 6,1 C 7,3 C 11,3 km/h (2 Bft) 94,74 %
08.04.2019 05:24 8,1 C 10,6 C 7,8 C 87 % 1006,1 hPa 0,0 l/m 7,2 km/h (2 Bft) W-SW 242 0 min 0,000 mm 0,0 UV-I 0 W/m 6,1 C 7,5 C 11,3 km/h (2 Bft) 96,23 %
08.04.2019 05:26 8,2 C 10,6 C 7,8 C 87 % 1006,1 hPa 0,0 l/m 7,7 km/h (2 Bft) SW 218 0 min 0,000 mm 0,0 UV-I 0 W/m 6,2 C 7,2 C 9,7 km/h (2 Bft) 96,00 %
08.04.2019 05:28 8,2 C 10,6 C 7,8 C 87 % 1006,1 hPa 0,0 l/m 7,2 km/h (2 Bft) S-SW 212 0 min 0,000 mm 0,0 UV-I 0 W/m 6,2 C 7,6 C 9,7 km/h (2 Bft) 95,74 %
08.04.2019 05:30 8,2 C 10,6 C 7,8 C 87 % 1006,1 hPa 0,0 l/m 5,9 km/h (2 Bft) S-SW 210 0 min 0,000 mm 0,0 UV-I 0 W/m 6,2 C 8,2 C 9,7 km/h (2 Bft) 97,56 %
08.04.2019 05:32 8,2 C 10,6 C 7,8 C 87 % 1006,1 hPa 0,0 l/m 7,2 km/h (2 Bft) SW 215 0 min 0,000 mm 0,0 UV-I 0 W/m 6,2 C 7,6 C 9,7 km/h (2 Bft) 98,00 %
08.04.2019 05:34 8,2 C 10,6 C 7,8 C 87 % 1006,2 hPa 0,0 l/m 6,2 km/h (2 Bft) SW 217 0 min 0,000 mm 0,0 UV-I 0 W/m 6,2 C 8,2 C 9,7 km/h (2 Bft) 98,00 %
08.04.2019 05:36 8,2 C 10,6 C 7,8 C 87 % 1006,2 hPa 0,0 l/m 7,6 km/h (2 Bft) SW 227 0 min 0,000 mm 0,0 UV-I 0 W/m 6,2 C 7,3 C 9,7 km/h (2 Bft) 97,37 %
08.04.2019 05:38 8,2 C 10,6 C 7,8 C 87 % 1006,2 hPa 0,0 l/m 6,7 km/h (2 Bft) SW 214 0 min 0,000 mm 0,0 UV-I 0 W/m 6,2 C 8,0 C 9,7 km/h (2 Bft) 98,11 %
08.04.2019 05:40 8,2 C 10,6 C 7,8 C 88 % 1006,2 hPa 0,0 l/m 5,3 km/h (1 Bft) SW 223 0 min 0,000 mm 0,0 UV-I 0 W/m 6,3 C 8,2 C 8,0 km/h (2 Bft) 97,87 %
08.04.2019 05:42 8,2 C 10,6 C 7,8 C 87 % 1006,2 hPa 0,0 l/m 5,1 km/h (1 Bft) S-SW 206 0 min 0,000 mm 0,0 UV-I 0 W/m 6,2 C 8,2 C 6,4 km/h (2 Bft) 97,14 %
08.04.2019 05:44 8,2 C 10,6 C 7,8 C 88 % 1006,3 hPa 0,0 l/m 6,1 km/h (2 Bft) SW 218 0 min 0,000 mm 0,0 UV-I 0 W/m 6,3 C 8,2 C 9,7 km/h (2 Bft) 100,00 %
08.04.2019 05:46 8,2 C 10,6 C 7,8 C 88 % 1006,3 hPa 0,0 l/m 7,1 km/h (2 Bft) SW 234 0 min 0,000 mm 0,0 UV-I 0 W/m 6,3 C 7,7 C 9,7 km/h (2 Bft) 98,11 %
08.04.2019 05:48 8,2 C 10,6 C 7,8 C 87 % 1006,2 hPa 0,0 l/m 6,5 km/h (2 Bft) SW 223 0 min 0,000 mm 0,0 UV-I 0 W/m 6,2 C 8,1 C 9,7 km/h (2 Bft) 100,00 %
08.04.2019 05:50 8,2 C 10,6 C 7,8 C 87 % 1006,3 hPa 0,0 l/m 6,4 km/h (2 Bft) S-SW 210 0 min 0,000 mm 0,0 UV-I 0 W/m 6,2 C 8,2 C 9,7 km/h (2 Bft) 100,00 %
08.04.2019 05:52 8,2 C 10,6 C 7,8 C 87 % 1006,3 hPa 0,0 l/m 5,5 km/h (1 Bft) W-SW 240 0 min 0,000 mm 0,0 UV-I 0 W/m 6,2 C 8,2 C 9,7 km/h (2 Bft) 100,00 %
08.04.2019 05:54 8,3 C 10,6 C 7,8 C 87 % 1006,3 hPa 0,0 l/m 3,5 km/h (1 Bft) SW 234 0 min 0,000 mm 0,0 UV-I 0 W/m 6,3 C 8,3 C 4,8 km/h (1 Bft) 100,00 %
08.04.2019 05:56 8,3 C 10,6 C 7,8 C 87 % 1006,4 hPa 0,0 l/m 4,4 km/h (1 Bft) SW 222 0 min 0,000 mm 0,0 UV-I 0 W/m 6,3 C 8,3 C 8,0 km/h (2 Bft) 100,00 %
08.04.2019 05:58 8,3 C 10,6 C 7,8 C 87 % 1006,4 hPa 0,0 l/m 4,4 km/h (1 Bft) SW 225 0 min 0,000 mm 0,0 UV-I 0 W/m 6,3 C 8,3 C 6,4 km/h (2 Bft) 97,92 %
08.04.2019 06:00 8,3 C 10,6 C 7,8 C 87 % 1006,3 hPa 0,0 l/m 4,6 km/h (1 Bft) W-SW 250 0 min 0,000 mm 0,0 UV-I 0 W/m 6,3 C 8,3 C 8,0 km/h (2 Bft) 100,00 %
08.04.2019 06:02 8,3 C 10,6 C 7,8 C 87 % 1006,3 hPa 0,0 l/m 5,6 km/h (1 Bft) W-SW 238 0 min 0,000 mm 0,0 UV-I 0 W/m 6,3 C 8,3 C 8,0 km/h (2 Bft) 100,00 %
08.04.2019 06:04 8,3 C 10,6 C 7,8 C 87 % 1006,3 hPa 0,0 l/m 3,7 km/h (1 Bft) W-SW 241 0 min 0,000 mm 0,0 UV-I 0 W/m 6,3 C 8,3 C 4,8 km/h (1 Bft) 100,00 %
08.04.2019 06:06 8,3 C 10,6 C 7,8 C 87 % 1006,4 hPa 0,0 l/m 4,4 km/h (1 Bft) W-SW 246 0 min 0,000 mm 0,0 UV-I 0 W/m 6,3 C 8,3 C 6,4 km/h (2 Bft) 100,00 %
08.04.2019 06:08 8,3 C 10,6 C 7,8 C 88 % 1006,4 hPa 0,0 l/m 4,3 km/h (1 Bft) W 264 0 min 0,000 mm 0,0 UV-I 0 W/m 6,4 C 8,3 C 6,4 km/h (2 Bft) 100,00 %
08.04.2019 06:10 8,3 C 10,6 C 7,8 C 88 % 1006,4 hPa 0,0 l/m 4,7 km/h (1 Bft) W-SW 239 0 min 0,000 mm 0,0 UV-I 0 W/m 6,4 C 8,3 C 8,0 km/h (2 Bft) 100,00 %
08.04.2019 06:12 8,3 C 10,6 C 7,8 C 88 % 1006,4 hPa 0,0 l/m 4,3 km/h (1 Bft) W-SW 248 0 min 0,000 mm 0,0 UV-I 0 W/m 6,4 C 8,3 C 9,7 km/h (2 Bft) 100,00 %
08.04.2019 06:14 8,3 C 10,6 C 7,8 C 88 % 1006,5 hPa 0,0 l/m 5,6 km/h (1 Bft) W-SW 242 0 min 0,000 mm 0,0 UV-I 0 W/m 6,4 C 8,3 C 8,0 km/h (2 Bft) 100,00 %
08.04.2019 06:16 8,3 C 10,6 C 7,8 C 88 % 1006,5 hPa 0,0 l/m 4,1 km/h (1 Bft) S-SW 202 0 min 0,000 mm 0,0 UV-I 0 W/m 6,4 C 8,3 C 8,0 km/h (2 Bft) 100,00 %
08.04.2019 06:18 8,3 C 10,6 C 7,8 C 88 % 1006,5 hPa 0,0 l/m 6,3 km/h (2 Bft) SW 225 0 min 0,000 mm 0,0 UV-I 0 W/m 6,4 C 8,3 C 8,0 km/h (2 Bft) 100,00 %
08.04.2019 06:20 8,3 C 10,6 C 7,8 C 88 % 1006,5 hPa 0,0 l/m 4,9 km/h (1 Bft) SW 227 0 min 0,000 mm 0,0 UV-I 0 W/m 6,4 C 8,3 C 6,4 km/h (2 Bft) 95,12 %
08.04.2019 06:22 8,3 C 10,6 C 7,8 C 88 % 1006,5 hPa 0,0 l/m 5,0 km/h (1 Bft) SW 223 0 min 0,000 mm 0,0 UV-I 0 W/m 6,4 C 8,3 C 6,4 km/h (2 Bft) 94,34 %
08.04.2019 06:24 8,3 C 10,6 C 7,8 C 88 % 1006,5 hPa 0,0 l/m 4,7 km/h (1 Bft) SW 214 0 min 0,000 mm 0,0 UV-I 0 W/m 6,4 C 8,3 C 6,4 km/h (2 Bft) 97,87 %
08.04.2019 06:26 8,3 C 10,6 C 7,8 C 88 % 1006,5 hPa 0,0 l/m 6,2 km/h (2 Bft) S-SW 211 0 min 0,000 mm 0,0 UV-I 0 W/m 6,4 C 8,3 C 9,7 km/h (2 Bft) 95,74 %
08.04.2019 06:28 8,3 C 10,6 C 7,8 C 88 % 1006,5 hPa 0,0 l/m 6,8 km/h (2 Bft) S-SW 213 0 min 0,000 mm 0,0 UV-I 0 W/m 6,4 C 8,0 C 9,7 km/h (2 Bft) 100,00 %
08.04.2019 06:30 8,4 C 10,6 C 7,8 C 87 % 1006,5 hPa 0,0 l/m 7,8 km/h (2 Bft) S-SW 212 0 min 0,000 mm 0,0 UV-I 1 W/m 6,4 C 7,3 C 9,7 km/h (2 Bft) 94,12 %
08.04.2019 06:32 8,4 C 10,6 C 8,3 C 87 % 1006,5 hPa 0,0 l/m 6,1 km/h (2 Bft) SW 222 0 min 0,000 mm 0,0 UV-I 5 W/m 6,4 C 8,4 C 8,0 km/h (2 Bft) 97,87 %
08.04.2019 06:34 8,4 C 10,6 C 8,3 C 87 % 1006,6 hPa 0,0 l/m 6,7 km/h (2 Bft) SW 231 0 min 0,000 mm 0,0 UV-I 5 W/m 6,4 C 8,2 C 11,3 km/h (2 Bft) 98,18 %
08.04.2019 06:36 8,4 C 10,6 C 8,3 C 87 % 1006,6 hPa 0,0 l/m 5,8 km/h (2 Bft) SW 218 0 min 0,000 mm 0,0 UV-I 5 W/m 6,4 C 8,4 C 11,3 km/h (2 Bft) 94,87 %
08.04.2019 06:38 8,4 C 10,6 C 8,3 C 87 % 1006,6 hPa 0,0 l/m 6,6 km/h (2 Bft) W-SW 242 0 min 0,000 mm 0,0 UV-I 5 W/m 6,4 C 8,3 C 11,3 km/h (2 Bft) 98,11 %
08.04.2019 06:40 8,4 C 10,6 C 8,3 C 87 % 1006,6 hPa 0,0 l/m 8,1 km/h (2 Bft) SW 232 0 min 0,000 mm 0,0 UV-I 5 W/m 6,4 C 7,1 C 12,9 km/h (3 Bft) 97,87 %
08.04.2019 06:42 8,4 C 10,6 C 8,3 C 88 % 1006,7 hPa 0,0 l/m 7,6 km/h (2 Bft) W-SW 238 0 min 0,000 mm 0,0 UV-I 7 W/m 6,5 C 7,5 C 11,3 km/h (2 Bft) 97,37 %
08.04.2019 06:44 8,5 C 10,6 C 8,3 C 88 % 1006,6 hPa 0,0 l/m 5,6 km/h (1 Bft) W 268 0 min 0,000 mm 0,0 UV-I 7 W/m 6,6 C 8,5 C 9,7 km/h (2 Bft) 94,00 %
08.04.2019 06:46 8,5 C 10,6 C 8,3 C 88 % 1006,7 hPa 0,0 l/m 6,8 km/h (2 Bft) W 273 0 min 0,000 mm 0,0 UV-I 7 W/m 6,6 C 8,2 C 11,3 km/h (2 Bft) 98,00 %
08.04.2019 06:48 8,5 C 10,6 C 8,3 C 87 % 1006,7 hPa 0,0 l/m 7,1 km/h (2 Bft) W-SW 250 0 min 0,000 mm 0,0 UV-I 8 W/m 6,5 C 8,0 C 12,9 km/h (3 Bft) 97,87 %
08.04.2019 06:50 8,6 C 10,6 C 8,3 C 87 % 1006,8 hPa 0,0 l/m 6,9 km/h (2 Bft) W-SW 242 0 min 0,000 mm 0,0 UV-I 9 W/m 6,6 C 8,2 C 12,9 km/h (3 Bft) 95,12 %
08.04.2019 06:52 8,6 C 10,6 C 8,3 C 87 % 1006,8 hPa 0,0 l/m 6,0 km/h (2 Bft) W 265 0 min 0,000 mm 0,0 UV-I 9 W/m 6,6 C 8,6 C 11,3 km/h (2 Bft) 98,11 %
08.04.2019 06:54 8,7 C 10,6 C 8,3 C 87 % 1006,8 hPa 0,0 l/m 6,3 km/h (2 Bft) W 260 0 min 0,000 mm 0,0 UV-I 11 W/m 6,7 C 8,7 C 11,3 km/h (2 Bft) 97,56 %
08.04.2019 06:56 8,7 C 10,6 C 8,3 C 87 % 1006,8 hPa 0,0 l/m 5,9 km/h (2 Bft) W 264 0 min 0,000 mm 0,0 UV-I 11 W/m 6,7 C 8,7 C 11,3 km/h (2 Bft) 95,74 %
08.04.2019 06:58 8,7 C 10,6 C 8,3 C 87 % 1006,8 hPa 0,0 l/m 6,3 km/h (2 Bft) W 267 0 min 0,000 mm 0,0 UV-I 12 W/m 6,7 C 8,7 C 11,3 km/h (2 Bft) 98,00 %
08.04.2019 07:00 8,7 C 10,6 C 8,3 C 86 % 1006,8 hPa 0,0 l/m 6,3 km/h (2 Bft) W 268 0 min 0,000 mm 0,0 UV-I 14 W/m 6,5 C 8,7 C 9,7 km/h (2 Bft) 95,74 %
08.04.2019 07:02 8,7 C 10,6 C 8,3 C 86 % 1006,9 hPa 0,0 l/m 7,4 km/h (2 Bft) W 265 0 min 0,000 mm 0,0 UV-I 14 W/m 6,5 C 7,9 C 9,7 km/h (2 Bft) 97,73 %
08.04.2019 07:04 8,8 C 10,6 C 8,3 C 86 % 1006,9 hPa 0,0 l/m 4,8 km/h (1 Bft) W 264 0 min 0,000 mm 0,0 UV-I 16 W/m 6,6 C 8,8 C 8,0 km/h (2 Bft) 95,74 %
08.04.2019 07:06 8,8 C 10,6 C 8,3 C 86 % 1006,9 hPa 0,0 l/m 5,1 km/h (1 Bft) W 261 0 min 0,000 mm 0,0 UV-I 17 W/m 6,6 C 8,8 C 9,7 km/h (2 Bft) 98,11 %
08.04.2019 07:08 8,8 C 10,6 C 8,3 C 86 % 1007,0 hPa 0,0 l/m 5,8 km/h (2 Bft) W 264 0 min 0,000 mm 0,0 UV-I 18 W/m 6,6 C 8,8 C 6,4 km/h (2 Bft) 100,00 %
08.04.2019 07:10 8,8 C 10,6 C 8,3 C 86 % 1007,0 hPa 0,0 l/m 6,6 km/h (2 Bft) W 259 0 min 0,000 mm 0,0 UV-I 18 W/m 6,6 C 8,7 C 9,7 km/h (2 Bft) 96,72 %
08.04.2019 07:12 8,8 C 10,6 C 8,3 C 86 % 1007,0 hPa 0,0 l/m 5,9 km/h (2 Bft) W 261 0 min 0,000 mm 0,0 UV-I 19 W/m 6,6 C 8,8 C 9,7 km/h (2 Bft) 92,00 %
08.04.2019 07:14 8,8 C 10,6 C 8,9 C 86 % 1007,0 hPa 0,0 l/m 5,7 km/h (1 Bft) W-SW 247 0 min 0,000 mm 0,0 UV-I 20 W/m 6,6 C 8,8 C 9,7 km/h (2 Bft) 94,44 %
08.04.2019 07:16 8,8 C 10,6 C 8,9 C 86 % 1007,0 hPa 0,0 l/m 4,7 km/h (1 Bft) W 271 0 min 0,000 mm 0,0 UV-I 22 W/m 6,6 C 8,8 C 6,4 km/h (2 Bft) 94,00 %
08.04.2019 07:18 8,8 C 10,6 C 8,9 C 86 % 1007,1 hPa 0,0 l/m 5,8 km/h (2 Bft) W 261 0 min 0,000 mm 0,0 UV-I 23 W/m 6,6 C 8,8 C 9,7 km/h (2 Bft) 96,88 %
08.04.2019 07:20 8,8 C 10,6 C 8,9 C 86 % 1007,2 hPa 0,0 l/m 4,6 km/h (1 Bft) W-SW 257 0 min 0,000 mm 0,0 UV-I 21 W/m 6,6 C 8,8 C 9,7 km/h (2 Bft) 95,59 %
08.04.2019 07:22 8,9 C 10,6 C 8,9 C 86 % 1007,1 hPa 0,0 l/m 3,7 km/h (1 Bft) W 269 0 min 0,000 mm 0,0 UV-I 21 W/m 6,7 C 8,9 C 6,4 km/h (2 Bft) 95,12 %
08.04.2019 07:24 8,9 C 10,6 C 8,9 C 86 % 1007,2 hPa 0,0 l/m 3,5 km/h (1 Bft) W 267 0 min 0,000 mm 0,0 UV-I 22 W/m 6,7 C 8,9 C 4,8 km/h (1 Bft) 95,74 %
08.04.2019 07:26 8,9 C 10,6 C 8,9 C 86 % 1007,2 hPa 0,0 l/m 5,5 km/h (1 Bft) W-SW 252 0 min 0,000 mm 0,0 UV-I 23 W/m 6,7 C 8,9 C 9,7 km/h (2 Bft) 92,86 %
08.04.2019 07:28 8,9 C 10,6 C 8,9 C 86 % 1007,3 hPa 0,0 l/m 6,3 km/h (2 Bft) W 263 0 min 0,000 mm 0,0 UV-I 25 W/m 6,7 C 8,9 C 11,3 km/h (2 Bft) 97,14 %
08.04.2019 07:30 8,9 C 10,6 C 8,9 C 86 % 1007,3 hPa 0,0 l/m 6,7 km/h (2 Bft) W 272 0 min 0,000 mm 0,0 UV-I 26 W/m 6,7 C 8,7 C 11,3 km/h (2 Bft) 94,00 %
08.04.2019 07:32 8,9 C 10,6 C 8,9 C 86 % 1007,3 hPa 0,0 l/m 6,4 km/h (2 Bft) W-SW 258 0 min 0,000 mm 0,0 UV-I 26 W/m 6,7 C 8,9 C 11,3 km/h (2 Bft) 95,92 %
08.04.2019 07:34 8,9 C 10,6 C 8,9 C 86 % 1007,3 hPa 0,0 l/m 5,5 km/h (1 Bft) W 265 0 min 0,000 mm 0,0 UV-I 26 W/m 6,7 C 8,9 C 9,7 km/h (2 Bft) 96,23 %
08.04.2019 07:36 8,9 C 10,6 C 8,9 C 86 % 1007,3 hPa 0,0 l/m 6,4 km/h (2 Bft) W 266 0 min 0,000 mm 0,0 UV-I 26 W/m 6,7 C 8,9 C 9,7 km/h (2 Bft) 94,74 %
08.04.2019 07:38 8,9 C 10,6 C 8,9 C 86 % 1007,3 hPa 0,0 l/m 6,6 km/h (2 Bft) W 259 0 min 0,000 mm 0,0 UV-I 26 W/m 6,7 C 8,8 C 11,3 km/h (2 Bft) 96,00 %
08.04.2019 07:40 8,9 C 10,6 C 8,9 C 86 % 1007,4 hPa 0,0 l/m 9,5 km/h (2 Bft) W-SW 252 0 min 0,000 mm 0,0 UV-I 26 W/m 6,7 C 6,7 C 12,9 km/h (3 Bft) 96,00 %
08.04.2019 07:42 9,0 C 10,6 C 8,9 C 85 % 1007,4 hPa 0,0 l/m 6,6 km/h (2 Bft) W 259 0 min 0,000 mm 0,0 UV-I 27 W/m 6,6 C 8,9 C 11,3 km/h (2 Bft) 95,65 %
08.04.2019 07:44 9,0 C 10,6 C 9,4 C 85 % 1007,4 hPa 0,0 l/m 8,9 km/h (2 Bft) W-SW 252 0 min 0,000 mm 0,0 UV-I 29 W/m 6,6 C 7,2 C 12,9 km/h (3 Bft) 93,62 %
08.04.2019 07:46 9,0 C 10,6 C 9,4 C 85 % 1007,4 hPa 0,0 l/m 9,5 km/h (2 Bft) W 265 0 min 0,000 mm 0,0 UV-I 31 W/m 6,6 C 6,8 C 14,5 km/h (3 Bft) 91,49 %
08.04.2019 07:48 9,1 C 10,6 C 9,4 C 85 % 1007,4 hPa 0,0 l/m 7,8 km/h (2 Bft) W 261 0 min 0,000 mm 0,0 UV-I 34 W/m 6,7 C 8,1 C 12,9 km/h (3 Bft) 97,44 %
08.04.2019 07:50 9,1 C 10,6 C 9,4 C 85 % 1007,4 hPa 0,0 l/m 8,4 km/h (2 Bft) W 266 0 min 0,000 mm 0,0 UV-I 36 W/m 6,7 C 7,6 C 12,9 km/h (3 Bft) 92,73 %
08.04.2019 07:52 9,1 C 10,6 C 9,4 C 85 % 1007,4 hPa 0,0 l/m 8,6 km/h (2 Bft) W 267 0 min 0,000 mm 0,0 UV-I 40 W/m 6,7 C 7,5 C 14,5 km/h (3 Bft) 97,22 %
08.04.2019 07:54 9,1 C 10,6 C 9,4 C 85 % 1007,4 hPa 0,0 l/m 10,1 km/h (2 Bft) W 267 0 min 0,000 mm 0,0 UV-I 42 W/m 6,7 C 6,5 C 12,9 km/h (3 Bft) 92,00 %
08.04.2019 07:56 9,1 C 10,6 C 9,4 C 85 % 1007,4 hPa 0,0 l/m 7,1 km/h (2 Bft) W-SW 257 0 min 0,000 mm 0,0 UV-I 42 W/m 6,7 C 8,6 C 11,3 km/h (2 Bft) 96,00 %
08.04.2019 07:59 9,2 C 10,6 C 9,4 C 85 % 1007,5 hPa 0,0 l/m 6,6 km/h (2 Bft) W-SW 252 0 min 0,000 mm 0,0 UV-I 42 W/m 6,8 C 9,1 C 12,9 km/h (3 Bft) 97,26 %
08.04.2019 08:00 9,2 C 10,6 C 9,4 C 85 % 1007,5 hPa 0,0 l/m 5,3 km/h (1 Bft) W-SW 252 0 min 0,025 mm 0,0 UV-I 40 W/m 6,8 C 9,2 C 6,4 km/h (2 Bft) 95,83 %
08.04.2019 08:02 9,2 C 10,6 C 9,4 C 85 % 1007,5 hPa 0,0 l/m 4,8 km/h (1 Bft) SW 234 0 min 0,000 mm 0,0 UV-I 40 W/m 6,8 C 9,2 C 8,0 km/h (2 Bft) 98,00 %
08.04.2019 08:04 9,2 C 10,6 C 9,4 C 85 % 1007,5 hPa 0,0 l/m 5,3 km/h (1 Bft) W-SW 244 0 min 0,000 mm 0,0 UV-I 39 W/m 6,8 C 9,2 C 8,0 km/h (2 Bft) 100,00 %
08.04.2019 08:06 9,2 C 10,6 C 9,4 C 85 % 1007,5 hPa 0,0 l/m 6,2 km/h (2 Bft) SW 236 0 min 0,000 mm 0,0 UV-I 40 W/m 6,8 C 9,2 C 8,0 km/h (2 Bft) 98,00 %
08.04.2019 08:08 9,3 C 10,6 C 9,4 C 85 % 1007,5 hPa 0,0 l/m 5,6 km/h (1 Bft) W-SW 258 0 min 0,000 mm 0,0 UV-I 42 W/m 6,9 C 9,3 C 11,3 km/h (2 Bft) 100,00 %
08.04.2019 08:10 9,3 C 10,6 C 9,4 C 84 % 1007,6 hPa 0,0 l/m 5,2 km/h (1 Bft) W-SW 245 0 min 0,000 mm 0,0 UV-I 45 W/m 6,7 C 9,3 C 11,3 km/h (2 Bft) 100,00 %
08.04.2019 08:12 9,3 C 10,6 C 9,4 C 84 % 1007,6 hPa 0,0 l/m 5,4 km/h (1 Bft) SW 219 0 min 0,000 mm 0,0 UV-I 46 W/m 6,7 C 9,3 C 8,0 km/h (2 Bft) 100,00 %
08.04.2019 08:14 9,3 C 10,6 C 10,0 C 84 % 1007,6 hPa 0,0 l/m 7,0 km/h (2 Bft) S-SW 196 0 min 0,000 mm 0,0 UV-I 47 W/m 6,7 C 8,9 C 11,3 km/h (2 Bft) 100,00 %
08.04.2019 08:16 9,3 C 10,6 C 10,0 C 84 % 1007,6 hPa 0,0 l/m 5,9 km/h (2 Bft) SW 215 0 min 0,000 mm 0,0 UV-I 50 W/m 6,7 C 9,3 C 11,3 km/h (2 Bft) 100,00 %
08.04.2019 08:18 9,3 C 10,6 C 10,0 C 85 % 1007,6 hPa 0,0 l/m 6,5 km/h (2 Bft) SW 219 0 min 0,000 mm 0,0 UV-I 53 W/m 6,9 C 9,3 C 8,0 km/h (2 Bft) 97,56 %
08.04.2019 08:20 9,3 C 10,6 C 10,0 C 85 % 1007,6 hPa 0,0 l/m 6,8 km/h (2 Bft) S-SW 213 0 min 0,000 mm 0,0 UV-I 56 W/m 6,9 C 9,0 C 11,3 km/h (2 Bft) 100,00 %
08.04.2019 08:22 9,3 C 10,6 C 10,0 C 85 % 1007,7 hPa 0,0 l/m 6,2 km/h (2 Bft) SW 220 0 min 0,000 mm 0,0 UV-I 59 W/m 6,9 C 9,3 C 8,0 km/h (2 Bft) 98,00 %
08.04.2019 08:24 9,3 C 10,6 C 10,0 C 85 % 1007,6 hPa 0,0 l/m 5,6 km/h (1 Bft) SW 224 0 min 0,000 mm 0,0 UV-I 64 W/m 6,9 C 9,3 C 8,0 km/h (2 Bft) 100,00 %
08.04.2019 08:26 9,4 C 10,6 C 10,0 C 85 % 1007,6 hPa 0,0 l/m 7,6 km/h (2 Bft) SW 234 0 min 0,000 mm 0,0 UV-I 69 W/m 7,0 C 8,5 C 12,9 km/h (3 Bft) 100,00 %
08.04.2019 08:28 9,4 C 10,6 C 10,0 C 85 % 1007,6 hPa 0,0 l/m 9,0 km/h (2 Bft) SW 230 0 min 0,000 mm 0,0 UV-I 74 W/m 7,0 C 7,6 C 16,1 km/h (3 Bft) 100,00 %
08.04.2019 08:30 9,4 C 10,6 C 10,6 C 85 % 1007,6 hPa 0,0 l/m 8,4 km/h (2 Bft) SW 236 0 min 0,000 mm 0,0 UV-I 77 W/m 7,0 C 7,9 C 12,9 km/h (3 Bft) 98,00 %
08.04.2019 08:32 9,6 C 10,6 C 10,6 C 85 % 1007,5 hPa 0,0 l/m 7,6 km/h (2 Bft) W-SW 248 0 min 0,000 mm 0,0 UV-I 77 W/m 7,2 C 8,7 C 12,9 km/h (3 Bft) 100,00 %
08.04.2019 08:34 9,6 C 10,6 C 10,6 C 84 % 1007,5 hPa 0,0 l/m 9,5 km/h (2 Bft) SW 234 0 min 0,000 mm 0,0 UV-I 83 W/m 7,0 C 7,5 C 12,9 km/h (3 Bft) 97,87 %
08.04.2019 08:36 9,7 C 10,6 C 10,6 C 84 % 1007,5 hPa 0,0 l/m 8,9 km/h (2 Bft) W 269 0 min 0,000 mm 0,0 UV-I 94 W/m 7,1 C 7,9 C 14,5 km/h (3 Bft) 100,00 %
08.04.2019 08:38 9,7 C 10,6 C 10,6 C 84 % 1007,5 hPa 0,0 l/m 8,9 km/h (2 Bft) W-SW 245 0 min 0,000 mm 0,0 UV-I 102 W/m 7,1 C 7,9 C 12,9 km/h (3 Bft) 100,00 %
08.04.2019 08:40 9,8 C 10,6 C 11,1 C 84 % 1007,5 hPa 0,0 l/m 7,5 km/h (2 Bft) W-SW 250 0 min 0,000 mm 0,0 UV-I 104 W/m 7,2 C 9,0 C 14,5 km/h (3 Bft) 98,00 %
08.04.2019 08:42 9,8 C 10,6 C 11,1 C 83 % 1007,5 hPa 0,0 l/m 8,9 km/h (2 Bft) W-NW 282 0 min 0,000 mm 0,0 UV-I 100 W/m 7,1 C 8,0 C 11,3 km/h (2 Bft) 100,00 %
08.04.2019 08:44 9,9 C 10,6 C 11,1 C 83 % 1007,5 hPa 0,0 l/m 7,0 km/h (2 Bft) W 268 0 min 0,000 mm 0,0 UV-I 104 W/m 7,2 C 9,5 C 11,3 km/h (2 Bft) 97,37 %
08.04.2019 08:46 10,0 C 10,6 C 11,1 C 83 % 1007,5 hPa 0,0 l/m 6,5 km/h (2 Bft) W 259 0 min 0,000 mm 0,0 UV-I 111 W/m 7,2 C 10,0 C 11,3 km/h (2 Bft) 100,00 %
08.04.2019 08:48 10,1 C 10,6 C 11,1 C 83 % 1007,5 hPa 0,0 l/m 10,8 km/h (2 Bft) W 272 0 min 0,000 mm 0,0 UV-I 115 W/m 7,3 C 7,3 C 14,5 km/h (3 Bft) 100,00 %
08.04.2019 08:50 10,1 C 10,6 C 11,7 C 83 % 1007,5 hPa 0,0 l/m 9,9 km/h (2 Bft) W 266 0 min 0,000 mm 0,0 UV-I 118 W/m 7,3 C 7,8 C 14,5 km/h (3 Bft) 100,00 %
08.04.2019 08:52 10,1 C 10,6 C 11,7 C 82 % 1007,5 hPa 0,0 l/m 9,2 km/h (2 Bft) W-SW 257 0 min 0,000 mm 0,0 UV-I 119 W/m 7,2 C 8,2 C 12,9 km/h (3 Bft) 100,00 %
08.04.2019 08:54 10,1 C 10,6 C 11,7 C 82 % 1007,5 hPa 0,0 l/m 7,8 km/h (2 Bft) W-NW 282 0 min 0,000 mm 0,0 UV-I 118 W/m 7,2 C 9,1 C 12,9 km/h (3 Bft) 100,00 %
08.04.2019 08:56 10,2 C 10,6 C 11,7 C 82 % 1007,5 hPa 0,0 l/m 8,0 km/h (2 Bft) W 268 0 min 0,000 mm 0,0 UV-I 116 W/m 7,3 C 9,1 C 11,3 km/h (2 Bft) 100,00 %
08.04.2019 08:58 10,2 C 10,6 C 11,7 C 82 % 1007,5 hPa 0,0 l/m 10,6 km/h (2 Bft) W-SW 252 0 min 0,000 mm 0,0 UV-I 119 W/m 7,3 C 7,5 C 14,5 km/h (3 Bft) 100,00 %
08.04.2019 09:00 10,2 C 10,6 C 11,7 C 82 % 1007,5 hPa 0,0 l/m 9,6 km/h (2 Bft) W 270 0 min 0,051 mm 0,0 UV-I 122 W/m 7,3 C 8,0 C 14,5 km/h (3 Bft) 100,00 %
08.04.2019 09:02 10,2 C 10,6 C 11,7 C 83 % 1007,5 hPa 0,0 l/m 7,6 km/h (2 Bft) W 268 0 min 0,000 mm 0,0 UV-I 127 W/m 7,4 C 9,3 C 11,3 km/h (2 Bft) 100,00 %
08.04.2019 09:04 10,3 C 10,6 C 11,7 C 83 % 1007,4 hPa 0,0 l/m 9,2 km/h (2 Bft) W-SW 249 0 min 0,000 mm 0,0 UV-I 129 W/m 7,5 C 8,4 C 14,5 km/h (3 Bft) 97,44 %
08.04.2019 09:06 10,3 C 10,6 C 12,2 C 83 % 1007,4 hPa 0,0 l/m 11,2 km/h (2 Bft) W 263 0 min 0,000 mm 0,0 UV-I 133 W/m 7,5 C 7,3 C 16,1 km/h (3 Bft) 98,11 %
08.04.2019 09:08 10,3 C 10,6 C 11,7 C 83 % 1007,4 hPa 0,0 l/m 12,2 km/h (2 Bft) W 269 0 min 0,000 mm 0,0 UV-I 137 W/m 7,5 C 6,8 C 16,1 km/h (3 Bft) 97,37 %
08.04.2019 09:10 10,3 C 10,6 C 11,7 C 83 % 1007,4 hPa 0,0 l/m 12,6 km/h (3 Bft) W-SW 252 0 min 0,000 mm 0,0 UV-I 140 W/m 7,5 C 6,6 C 19,3 km/h (3 Bft) 98,00 %
08.04.2019 09:12 10,3 C 10,6 C 11,7 C 83 % 1007,4 hPa 0,0 l/m 7,7 km/h (2 Bft) W 261 0 min 0,000 mm 0,0 UV-I 141 W/m 7,5 C 9,4 C 12,9 km/h (3 Bft) 94,00 %
08.04.2019 09:14 10,3 C 10,6 C 11,7 C 83 % 1007,5 hPa 0,0 l/m 10,4 km/h (2 Bft) W-SW 251 0 min 0,000 mm 0,0 UV-I 142 W/m 7,5 C 7,7 C 14,5 km/h (3 Bft) 94,00 %
08.04.2019 09:16 10,3 C 10,6 C 11,7 C 83 % 1007,4 hPa 0,0 l/m 10,3 km/h (2 Bft) W-SW 250 0 min 0,000 mm 0,0 UV-I 144 W/m 7,5 C 7,8 C 17,7 km/h (3 Bft) 97,14 %
08.04.2019 09:19 10,3 C 10,6 C 12,2 C 83 % 1007,4 hPa 0,0 l/m 9,8 km/h (2 Bft) W-NW 290 0 min 0,000 mm 0,0 UV-I 148 W/m 7,5 C 8,0 C 16,1 km/h (3 Bft) 94,12 %
08.04.2019 09:20 10,4 C 10,6 C 12,2 C 83 % 1007,4 hPa 0,0 l/m 11,0 km/h (2 Bft) W-SW 257 0 min 0,000 mm 0,5 UV-I 153 W/m 7,6 C 7,5 C 12,9 km/h (3 Bft) 91,67 %
08.04.2019 09:22 10,4 C 10,6 C 12,2 C 83 % 1007,4 hPa 0,0 l/m 8,8 km/h (2 Bft) W 265 0 min 0,000 mm 0,5 UV-I 159 W/m 7,6 C 8,8 C 16,1 km/h (3 Bft) 95,74 %
08.04.2019 09:24 10,5 C 10,6 C 12,8 C 83 % 1007,4 hPa 0,0 l/m 9,4 km/h (2 Bft) W 269 0 min 0,000 mm 0,5 UV-I 165 W/m 7,7 C 8,5 C 17,7 km/h (3 Bft) 95,74 %
08.04.2019 09:26 10,5 C 10,6 C 12,8 C 83 % 1007,4 hPa 0,0 l/m 15,5 km/h (3 Bft) W 274 0 min 0,000 mm 0,5 UV-I 171 W/m 7,7 C 5,5 C 22,5 km/h (4 Bft) 95,74 %
08.04.2019 09:28 10,5 C 10,6 C 12,8 C 83 % 1007,4 hPa 0,0 l/m 11,4 km/h (2 Bft) W 265 0 min 0,000 mm 0,5 UV-I 175 W/m 7,7 C 7,4 C 16,1 km/h (3 Bft) 98,11 %
08.04.2019 09:30 10,6 C 10,6 C 12,8 C 83 % 1007,4 hPa 0,0 l/m 6,3 km/h (2 Bft) W 267 0 min 0,000 mm 0,6 UV-I 179 W/m 7,8 C 10,6 C 12,9 km/h (3 Bft) 96,00 %
08.04.2019 09:32 10,6 C 10,6 C 12,8 C 83 % 1007,5 hPa 0,0 l/m 8,6 km/h (2 Bft) SW 225 0 min 0,000 mm 0,6 UV-I 183 W/m 7,8 C 9,1 C 12,9 km/h (3 Bft) 97,56 %
08.04.2019 09:34 10,6 C 10,6 C 12,8 C 83 % 1007,5 hPa 0,0 l/m 9,4 km/h (2 Bft) SW 232 0 min 0,000 mm 0,6 UV-I 186 W/m 7,8 C 8,6 C 16,1 km/h (3 Bft) 98,00 %
08.04.2019 09:36 10,7 C 10,6 C 12,8 C 83 % 1007,5 hPa 0,0 l/m 11,0 km/h (2 Bft) W-SW 243 0 min 0,000 mm 0,6 UV-I 186 W/m 7,9 C 7,8 C 19,3 km/h (3 Bft) 98,00 %
08.04.2019 09:38 10,7 C 10,6 C 12,8 C 82 % 1007,5 hPa 0,0 l/m 12,2 km/h (2 Bft) W 273 0 min 0,000 mm 0,6 UV-I 179 W/m 7,8 C 7,2 C 19,3 km/h (3 Bft) 97,87 %
08.04.2019 09:40 10,7 C 10,6 C 12,8 C 83 % 1007,6 hPa 0,0 l/m 11,2 km/h (2 Bft) W-SW 254 0 min 0,000 mm 0,6 UV-I 168 W/m 7,9 C 7,7 C 16,1 km/h (3 Bft) 97,56 %
08.04.2019 09:42 10,7 C 10,6 C 12,8 C 83 % 1007,6 hPa 0,0 l/m 6,0 km/h (2 Bft) W 269 0 min 0,000 mm 0,6 UV-I 160 W/m 7,9 C 10,7 C 11,3 km/h (2 Bft) 97,87 %
08.04.2019 09:44 10,7 C 10,6 C 12,8 C 83 % 1007,6 hPa 0,0 l/m 6,8 km/h (2 Bft) SW 236 0 min 0,000 mm 0,6 UV-I 153 W/m 7,9 C 10,4 C 11,3 km/h (2 Bft) 97,92 %
08.04.2019 09:46 10,8 C 10,6 C 12,8 C 82 % 1007,7 hPa 0,0 l/m 7,3 km/h (2 Bft) W 263 0 min 0,000 mm 0,5 UV-I 138 W/m 7,9 C 10,2 C 11,3 km/h (2 Bft) 100,00 %
08.04.2019 09:48 10,7 C 10,6 C 12,8 C 82 % 1007,7 hPa 0,0 l/m 10,0 km/h (2 Bft) W-SW 258 0 min 0,000 mm 0,2 UV-I 122 W/m 7,8 C 8,4 C 14,5 km/h (3 Bft) 97,37 %
08.04.2019 09:50 10,7 C 10,6 C 12,2 C 82 % 1007,7 hPa 0,0 l/m 9,0 km/h (2 Bft) W 279 0 min 0,000 mm 0,0 UV-I 112 W/m 7,8 C 9,0 C 12,9 km/h (3 Bft) 100,00 %
08.04.2019 09:52 10,7 C 10,6 C 12,2 C 82 % 1007,7 hPa 0,0 l/m 6,1 km/h (2 Bft) NW 304 0 min 0,000 mm 0,0 UV-I 112 W/m 7,8 C 10,7 C 11,3 km/h (2 Bft) 100,00 %
08.04.2019 09:54 10,7 C 10,6 C 12,2 C 82 % 1007,7 hPa 0,0 l/m 10,8 km/h (2 Bft) W-SW 256 0 min 0,000 mm 0,0 UV-I 116 W/m 7,8 C 7,9 C 14,5 km/h (3 Bft) 100,00 %
08.04.2019 09:56 10,7 C 10,6 C 12,2 C 82 % 1007,7 hPa 0,0 l/m 8,4 km/h (2 Bft) W 262 0 min 0,000 mm 0,0 UV-I 120 W/m 7,8 C 9,3 C 14,5 km/h (3 Bft) 100,00 %
08.04.2019 09:58 10,7 C 10,6 C 12,8 C 82 % 1007,7 hPa 0,0 l/m 6,2 km/h (2 Bft) W-SW 247 0 min 0,000 mm 0,0 UV-I 123 W/m 7,8 C 10,7 C 9,7 km/h (2 Bft) 100,00 %
08.04.2019 10:00 10,8 C 10,6 C 12,8 C 83 % 1007,8 hPa 0,0 l/m 4,4 km/h (1 Bft) SW 214 0 min 0,000 mm 0,5 UV-I 125 W/m 8,0 C 10,8 C 9,7 km/h (2 Bft) 100,00 %
08.04.2019 10:02 10,8 C 10,6 C 12,8 C 83 % 1007,8 hPa 0,0 l/m 6,6 km/h (2 Bft) W 265 0 min 0,076 mm 0,4 UV-I 123 W/m 8,0 C 10,7 C 11,3 km/h (2 Bft) 100,00 %
08.04.2019 10:04 10,8 C 10,6 C 12,8 C 83 % 1007,8 hPa 0,0 l/m 7,2 km/h (2 Bft) W 267 0 min 0,000 mm 0,0 UV-I 119 W/m 8,0 C 10,2 C 12,9 km/h (3 Bft) 100,00 %
08.04.2019 10:06 10,8 C 10,6 C 12,8 C 82 % 1007,8 hPa 0,0 l/m 5,9 km/h (2 Bft) W 265 0 min 0,000 mm 0,0 UV-I 114 W/m 7,9 C 10,8 C 12,9 km/h (3 Bft) 100,00 %
08.04.2019 10:08 10,8 C 10,6 C 12,8 C 82 % 1007,8 hPa 0,0 l/m 6,3 km/h (2 Bft) W-SW 250 0 min 0,000 mm 0,0 UV-I 115 W/m 7,9 C 10,8 C 12,9 km/h (3 Bft) 100,00 %
08.04.2019 10:10 10,7 C 10,6 C 12,8 C 82 % 1007,8 hPa 0,0 l/m 9,1 km/h (2 Bft) W 265 0 min 0,000 mm 0,0 UV-I 118 W/m 7,8 C 8,9 C 12,9 km/h (3 Bft) 100,00 %
08.04.2019 10:12 10,7 C 10,6 C 12,8 C 82 % 1007,8 hPa 0,0 l/m 6,2 km/h (2 Bft) W-SW 240 0 min 0,000 mm 0,0 UV-I 118 W/m 7,8 C 10,7 C 11,3 km/h (2 Bft) 100,00 %
08.04.2019 10:14 10,8 C 10,6 C 12,8 C 83 % 1007,8 hPa 0,0 l/m 7,5 km/h (2 Bft) W 269 0 min 0,000 mm 0,0 UV-I 112 W/m 8,0 C 10,0 C 11,3 km/h (2 Bft) 100,00 %
08.04.2019 10:16 10,8 C 10,6 C 12,8 C 82 % 1007,9 hPa 0,0 l/m 7,4 km/h (2 Bft) W-SW 249 0 min 0,000 mm 0,0 UV-I 105 W/m 7,9 C 10,1 C 12,9 km/h (3 Bft) 100,00 %
08.04.2019 10:18 10,8 C 10,6 C 12,8 C 82 % 1007,9 hPa 0,0 l/m 5,5 km/h (1 Bft) W-SW 238 0 min 0,000 mm 0,0 UV-I 100 W/m 7,9 C 10,8 C 9,7 km/h (2 Bft) 100,00 %
08.04.2019 10:20 10,8 C 10,6 C 12,2 C 82 % 1007,9 hPa 0,0 l/m 4,4 km/h (1 Bft) W-SW 237 0 min 0,000 mm 0,0 UV-I 96 W/m 7,9 C 10,8 C 6,4 km/h (2 Bft) 100,00 %
08.04.2019 10:22 10,8 C 10,6 C 12,2 C 82 % 1007,9 hPa 0,0 l/m 5,7 km/h (1 Bft) W 269 0 min 0,000 mm 0,0 UV-I 94 W/m 7,9 C 10,8 C 11,3 km/h (2 Bft) 100,00 %
08.04.2019 10:24 10,8 C 10,6 C 12,2 C 82 % 1007,9 hPa 0,0 l/m 7,7 km/h (2 Bft) SW 219 0 min 0,000 mm 0,0 UV-I 92 W/m 7,9 C 9,9 C 11,3 km/h (2 Bft) 100,00 %
08.04.2019 10:26 10,8 C 10,6 C 12,2 C 82 % 1007,9 hPa 0,0 l/m 4,7 km/h (1 Bft) SW 219 0 min 0,000 mm 0,0 UV-I 88 W/m 7,9 C 10,8 C 8,0 km/h (2 Bft) 97,56 %
08.04.2019 10:28 10,8 C 10,6 C 12,2 C 82 % 1007,9 hPa 0,0 l/m 6,4 km/h (2 Bft) SW 219 0 min 0,000 mm 0,0 UV-I 86 W/m 7,9 C 10,8 C 9,7 km/h (2 Bft) 97,56 %
08.04.2019 10:30 10,8 C 10,6 C 12,2 C 83 % 1008,0 hPa 0,0 l/m 6,1 km/h (2 Bft) W-SW 253 0 min 0,000 mm 0,0 UV-I 85 W/m 8,0 C 10,8 C 9,7 km/h (2 Bft) 98,00 %
08.04.2019 10:32 10,8 C 10,6 C 12,2 C 83 % 1008,0 hPa 0,0 l/m 4,9 km/h (1 Bft) S-SW 207 0 min 0,000 mm 0,0 UV-I 84 W/m 8,0 C 10,8 C 8,0 km/h (2 Bft) 98,00 %
08.04.2019 10:34 10,7 C 10,6 C 12,2 C 82 % 1008,0 hPa 0,0 l/m 8,0 km/h (2 Bft) S-SW 211 0 min 0,000 mm 0,0 UV-I 86 W/m 7,8 C 9,6 C 12,9 km/h (3 Bft) 93,62 %
08.04.2019 10:36 10,7 C 10,6 C 11,7 C 82 % 1008,0 hPa 0,0 l/m 8,5 km/h (2 Bft) S-SW 213 0 min 0,000 mm 0,0 UV-I 92 W/m 7,8 C 9,3 C 16,1 km/h (3 Bft) 97,87 %
08.04.2019 10:38 10,7 C 10,6 C 11,7 C 83 % 1008,0 hPa 0,0 l/m 8,9 km/h (2 Bft) SW 222 0 min 0,000 mm 0,0 UV-I 97 W/m 7,9 C 9,0 C 12,9 km/h (3 Bft) 98,11 %
08.04.2019 10:40 10,7 C 10,6 C 11,7 C 83 % 1008,0 hPa 0,0 l/m 6,4 km/h (2 Bft) W-SW 242 0 min 0,000 mm 0,0 UV-I 97 W/m 7,9 C 10,7 C 9,7 km/h (2 Bft) 91,43 %
08.04.2019 10:42 10,7 C 10,6 C 11,7 C 83 % 1008,0 hPa 0,0 l/m 8,6 km/h (2 Bft) W-SW 252 0 min 0,000 mm 0,0 UV-I 99 W/m 7,9 C 9,2 C 12,9 km/h (3 Bft) 96,00 %
08.04.2019 10:44 10,7 C 10,6 C 12,2 C 83 % 1008,0 hPa 0,0 l/m 7,3 km/h (2 Bft) W-SW 250 0 min 0,000 mm 0,0 UV-I 106 W/m 7,9 C 10,1 C 12,9 km/h (3 Bft) 98,11 %
08.04.2019 10:46 10,7 C 10,6 C 12,2 C 84 % 1008,0 hPa 0,0 l/m 8,6 km/h (2 Bft) W-SW 241 0 min 0,000 mm 0,5 UV-I 113 W/m 8,1 C 9,2 C 14,5 km/h (3 Bft) 94,74 %
08.04.2019 10:49 10,7 C 10,6 C 12,2 C 83 % 1008,0 hPa 0,0 l/m 13,2 km/h (3 Bft) W-SW 253 0 min 0,000 mm 0,5 UV-I 125 W/m 7,9 C 6,8 C 17,7 km/h (3 Bft) 98,46 %
08.04.2019 10:50 10,7 C 10,6 C 12,2 C 83 % 1008,0 hPa 0,0 l/m 14,2 km/h (3 Bft) W-SW 246 0 min 0,000 mm 0,5 UV-I 135 W/m 7,9 C 6,3 C 19,3 km/h (3 Bft) 97,37 %
08.04.2019 10:52 10,7 C 10,6 C 12,2 C 83 % 1008,0 hPa 0,0 l/m 12,5 km/h (3 Bft) SW 231 0 min 0,000 mm 0,6 UV-I 141 W/m 7,9 C 7,1 C 17,7 km/h (3 Bft) 95,74 %
08.04.2019 10:54 10,7 C 10,6 C 12,8 C 84 % 1008,0 hPa 0,0 l/m 10,2 km/h (2 Bft) W 269 0 min 0,000 mm 0,6 UV-I 148 W/m 8,1 C 8,3 C 16,1 km/h (3 Bft) 97,56 %
08.04.2019 10:56 10,7 C 10,6 C 12,8 C 83 % 1007,9 hPa 0,0 l/m 11,5 km/h (2 Bft) W 263 0 min 0,000 mm 0,6 UV-I 163 W/m 7,9 C 7,6 C 16,1 km/h (3 Bft) 100,00 %
08.04.2019 10:58 10,8 C 10,6 C 13,3 C 84 % 1007,9 hPa 0,0 l/m 8,4 km/h (2 Bft) SW 229 0 min 0,000 mm 0,7 UV-I 188 W/m 8,2 C 9,4 C 14,5 km/h (3 Bft) 100,00 %
08.04.2019 11:00 10,9 C 10,6 C 13,3 C 84 % 1007,9 hPa 0,0 l/m 14,0 km/h (3 Bft) W 261 0 min 0,077 mm 0,8 UV-I 214 W/m 8,3 C 6,6 C 19,3 km/h (3 Bft) 100,00 %
08.04.2019 11:02 10,9 C 10,6 C 13,9 C 84 % 1007,9 hPa 0,0 l/m 14,1 km/h (3 Bft) SW 236 0 min 0,000 mm 0,9 UV-I 244 W/m 8,3 C 6,6 C 19,3 km/h (3 Bft) 100,00 %
08.04.2019 11:04 10,9 C 10,6 C 13,9 C 84 % 1007,9 hPa 0,0 l/m 16,7 km/h (3 Bft) W-SW 240 0 min 0,000 mm 1,0 UV-I 263 W/m 8,3 C 5,6 C 25,7 km/h (4 Bft) 100,00 %
08.04.2019 11:06 10,9 C 10,6 C 13,9 C 84 % 1007,8 hPa 0,0 l/m 17,0 km/h (3 Bft) W-SW 240 0 min 0,000 mm 1,0 UV-I 267 W/m 8,3 C 5,5 C 24,1 km/h (4 Bft) 98,00 %
08.04.2019 11:08 11,1 C 10,6 C 14,4 C 84 % 1007,9 hPa 0,0 l/m 14,2 km/h (3 Bft) SW 229 0 min 0,000 mm 1,0 UV-I 264 W/m 8,5 C 6,8 C 20,9 km/h (4 Bft) 98,11 %
08.04.2019 11:10 11,1 C 10,6 C 14,4 C 84 % 1007,9 hPa 0,0 l/m 17,4 km/h (3 Bft) SW 232 0 min 0,000 mm 1,0 UV-I 256 W/m 8,5 C 5,6 C 25,7 km/h (4 Bft) 95,12 %
08.04.2019 11:12 11,1 C 10,6 C 14,4 C 84 % 1007,9 hPa 0,0 l/m 13,6 km/h (3 Bft) W-SW 244 0 min 0,000 mm 1,0 UV-I 244 W/m 8,5 C 7,1 C 22,5 km/h (4 Bft) 94,34 %
08.04.2019 11:14 11,1 C 10,6 C 13,9 C 84 % 1007,9 hPa 0,0 l/m 15,6 km/h (3 Bft) SW 235 0 min 0,000 mm 1,0 UV-I 232 W/m 8,5 C 6,2 C 24,1 km/h (4 Bft) 97,37 %
08.04.2019 11:16 11,1 C 10,6 C 13,9 C 84 % 1007,9 hPa 0,0 l/m 14,6 km/h (3 Bft) W-SW 253 0 min 0,000 mm 1,0 UV-I 227 W/m 8,5 C 6,6 C 22,5 km/h (4 Bft) 93,10 %
08.04.2019 11:19 11,1 C 10,6 C 13,9 C 84 % 1008,0 hPa 0,0 l/m 14,2 km/h (3 Bft) W-SW 246 0 min 0,000 mm 1,0 UV-I 229 W/m 8,5 C 6,8 C 19,3 km/h (3 Bft) 95,35 %
08.04.2019 11:20 11,1 C 10,6 C 13,9 C 84 % 1008,0 hPa 0,0 l/m 16,8 km/h (3 Bft) S-SW 212 0 min 0,000 mm 1,0 UV-I 240 W/m 8,5 C 5,8 C 20,9 km/h (4 Bft) 92,31 %
08.04.2019 11:22 11,0 C 10,6 C 14,4 C 84 % 1007,9 hPa 0,0 l/m 13,8 km/h (3 Bft) W 267 0 min 0,000 mm 1,2 UV-I 262 W/m 8,4 C 6,8 C 22,5 km/h (4 Bft) 94,00 %
08.04.2019 11:24 11,0 C 10,6 C 14,4 C 84 % 1007,9 hPa 0,0 l/m 17,4 km/h (3 Bft) W-NW 285 0 min 0,000 mm 1,3 UV-I 290 W/m 8,4 C 5,4 C 27,4 km/h (4 Bft) 96,23 %
08.04.2019 11:26 11,0 C 10,6 C 14,4 C 84 % 1007,9 hPa 0,0 l/m 17,9 km/h (3 Bft) SW 233 0 min 0,000 mm 1,3 UV-I 285 W/m 8,4 C 5,3 C 25,7 km/h (4 Bft) 95,12 %
08.04.2019 11:28 11,0 C 10,6 C 14,4 C 84 % 1007,9 hPa 0,0 l/m 18,6 km/h (3 Bft) S-SW 211 0 min 0,000 mm 1,3 UV-I 277 W/m 8,4 C 5,0 C 25,7 km/h (4 Bft) 96,23 %
08.04.2019 11:30 11,0 C 10,6 C 14,4 C 84 % 1008,0 hPa 0,0 l/m 14,7 km/h (3 Bft) W-SW 246 0 min 0,000 mm 1,1 UV-I 252 W/m 8,4 C 6,5 C 22,5 km/h (4 Bft) 94,74 %
08.04.2019 11:32 11,1 C 10,6 C 14,4 C 85 % 1007,9 hPa 0,0 l/m 11,4 km/h (2 Bft) W 263 0 min 0,000 mm 1,0 UV-I 211 W/m 8,7 C 8,1 C 19,3 km/h (3 Bft) 95,56 %
08.04.2019 11:34 11,1 C 10,6 C 14,4 C 84 % 1007,9 hPa 0,0 l/m 13,3 km/h (3 Bft) W-SW 255 0 min 0,000 mm 0,9 UV-I 183 W/m 8,5 C 7,2 C 22,5 km/h (4 Bft) 94,00 %
08.04.2019 11:36 11,1 C 10,6 C 13,9 C 84 % 1008,0 hPa 0,0 l/m 14,7 km/h (3 Bft) SW 232 0 min 0,000 mm 0,8 UV-I 171 W/m 8,5 C 6,6 C 24,1 km/h (4 Bft) 96,00 %
08.04.2019 11:38 10,9 C 10,6 C 13,3 C 83 % 1007,9 hPa 0,0 l/m 20,1 km/h (4 Bft) W-SW 246 0 min 0,000 mm 0,8 UV-I 167 W/m 8,1 C 4,4 C 29,0 km/h (5 Bft) 95,12 %
08.04.2019 11:40 10,8 C 10,6 C 13,3 C 83 % 1008,0 hPa 0,0 l/m 14,4 km/h (3 Bft) SW 227 0 min 0,000 mm 0,8 UV-I 172 W/m 8,0 C 6,4 C 22,5 km/h (4 Bft) 94,00 %
08.04.2019 11:42 10,8 C 10,6 C 12,8 C 83 % 1008,0 hPa 0,0 l/m 20,7 km/h (4 Bft) W-SW 237 0 min 0,000 mm 0,8 UV-I 176 W/m 8,0 C 4,1 C 27,4 km/h (4 Bft) 98,00 %
08.04.2019 11:44 10,7 C 10,6 C 12,8 C 83 % 1007,9 hPa 0,0 l/m 19,0 km/h (3 Bft) W-SW 237 0 min 0,000 mm 0,8 UV-I 159 W/m 7,9 C 4,5 C 27,4 km/h (4 Bft) 94,00 %
08.04.2019 11:46 10,6 C 10,6 C 12,2 C 83 % 1008,0 hPa 0,0 l/m 13,5 km/h (3 Bft) S-SW 210 0 min 0,000 mm 0,6 UV-I 125 W/m 7,8 C 6,5 C 22,5 km/h (4 Bft) 97,37 %
08.04.2019 11:49 10,6 C 10,6 C 12,2 C 84 % 1008,0 hPa 0,0 l/m 13,6 km/h (3 Bft) W 276 0 min 0,000 mm 0,2 UV-I 86 W/m 8,0 C 6,5 C 20,9 km/h (4 Bft) 95,71 %
08.04.2019 11:50 10,6 C 10,6 C 11,7 C 84 % 1008,0 hPa 0,0 l/m 12,1 km/h (2 Bft) W 260 0 min 0,000 mm 0,0 UV-I 72 W/m 8,0 C 7,2 C 16,1 km/h (3 Bft) 96,30 %
08.04.2019 11:52 10,4 C 10,6 C 11,7 C 84 % 1008,1 hPa 0,0 l/m 12,3 km/h (3 Bft) W 271 0 min 0,000 mm 0,0 UV-I 69 W/m 7,8 C 6,8 C 19,3 km/h (3 Bft) 95,12 %
08.04.2019 11:54 10,4 C 10,6 C 11,1 C 84 % 1008,1 hPa 0,0 l/m 12,8 km/h (3 Bft) S-SW 203 0 min 0,000 mm 0,0 UV-I 64 W/m 7,8 C 6,6 C 19,3 km/h (3 Bft) 94,92 %
08.04.2019 11:56 10,3 C 10,6 C 11,1 C 84 % 1008,1 hPa 0,0 l/m 15,4 km/h (3 Bft) SW 232 0 min 0,000 mm 0,0 UV-I 66 W/m 7,7 C 5,3 C 20,9 km/h (4 Bft) 94,29 %
08.04.2019 11:58 10,2 C 10,6 C 11,1 C 84 % 1008,1 hPa 0,0 l/m 14,8 km/h (3 Bft) W 265 0 min 0,000 mm 0,0 UV-I 73 W/m 7,6 C 5,5 C 24,1 km/h (4 Bft) 94,00 %
08.04.2019 12:00 10,2 C 10,6 C 11,1 C 84 % 1008,2 hPa 0,0 l/m 13,9 km/h (3 Bft) SW 232 0 min 0,127 mm 0,0 UV-I 84 W/m 7,6 C 5,8 C 20,9 km/h (4 Bft) 96,00 %
08.04.2019 12:02 10,2 C 10,6 C 11,1 C 84 % 1008,2 hPa 0,0 l/m 12,9 km/h (3 Bft) SW 228 0 min 0,000 mm 0,0 UV-I 91 W/m 7,6 C 6,3 C 20,9 km/h (4 Bft) 92,11 %
08.04.2019 12:04 10,2 C 10,6 C 11,1 C 84 % 1008,2 hPa 0,0 l/m 17,5 km/h (3 Bft) SW 224 0 min 0,000 mm 0,0 UV-I 90 W/m 7,6 C 4,4 C 24,1 km/h (4 Bft) 96,43 %
08.04.2019 12:06 10,2 C 10,6 C 11,1 C 84 % 1008,2 hPa 0,0 l/m 13,9 km/h (3 Bft) SW 219 0 min 0,000 mm 0,0 UV-I 87 W/m 7,6 C 5,8 C 22,5 km/h (4 Bft) 91,49 %
08.04.2019 12:08 10,2 C 10,6 C 11,1 C 85 % 1008,2 hPa 0,0 l/m 14,6 km/h (3 Bft) W-SW 248 0 min 0,000 mm 0,0 UV-I 84 W/m 7,8 C 5,5 C 22,5 km/h (4 Bft) 95,74 %
08.04.2019 12:10 10,2 C 10,6 C 11,1 C 84 % 1008,2 hPa 0,0 l/m 15,2 km/h (3 Bft) S-SW 194 0 min 0,000 mm 0,3 UV-I 87 W/m 7,6 C 5,3 C 24,1 km/h (4 Bft) 95,74 %
08.04.2019 12:12 10,2 C 10,6 C 11,1 C 84 % 1008,2 hPa 0,0 l/m 14,1 km/h (3 Bft) SW 223 0 min 0,000 mm 0,5 UV-I 91 W/m 7,6 C 5,8 C 20,9 km/h (4 Bft) 96,30 %
08.04.2019 12:14 10,1 C 10,6 C 11,1 C 84 % 1008,2 hPa 0,0 l/m 11,8 km/h (2 Bft) S-SW 202 0 min 0,000 mm 0,5 UV-I 95 W/m 7,5 C 6,7 C 20,9 km/h (4 Bft) 93,55 %
08.04.2019 12:16 10,2 C 10,6 C 11,1 C 84 % 1008,2 hPa 0,0 l/m 11,2 km/h (2 Bft) SW 229 0 min 0,000 mm 0,5 UV-I 107 W/m 7,6 C 7,2 C 20,9 km/h (4 Bft) 97,87 %
08.04.2019 12:18 10,2 C 10,6 C 11,7 C 85 % 1008,3 hPa 0,0 l/m 12,0 km/h (2 Bft) SW 226 0 min 0,000 mm 0,6 UV-I 118 W/m 7,8 C 6,7 C 19,3 km/h (3 Bft) 96,00 %
08.04.2019 12:20 10,2 C 10,6 C 11,7 C 84 % 1008,2 hPa 0,0 l/m 17,2 km/h (3 Bft) SW 229 0 min 0,000 mm 0,6 UV-I 127 W/m 7,6 C 4,5 C 24,1 km/h (4 Bft) 97,73 %
08.04.2019 12:22 10,2 C 10,6 C 11,7 C 84 % 1008,2 hPa 0,0 l/m 17,4 km/h (3 Bft) S-SW 203 0 min 0,000 mm 0,7 UV-I 133 W/m 7,6 C 4,4 C 25,7 km/h (4 Bft) 98,00 %
08.04.2019 12:24 10,2 C 10,6 C 11,7 C 84 % 1008,2 hPa 0,0 l/m 12,6 km/h (3 Bft) W-SW 258 0 min 0,000 mm 0,7 UV-I 137 W/m 7,6 C 6,5 C 19,3 km/h (3 Bft) 98,00 %
08.04.2019 12:26 10,2 C 10,6 C 12,2 C 84 % 1008,2 hPa 0,0 l/m 15,7 km/h (3 Bft) S-SW 211 0 min 0,000 mm 0,7 UV-I 150 W/m 7,6 C 5,1 C 22,5 km/h (4 Bft) 97,14 %
08.04.2019 12:28 10,3 C 10,6 C 12,2 C 84 % 1008,3 hPa 0,0 l/m 17,5 km/h (3 Bft) W 259 0 min 0,000 mm 0,8 UV-I 161 W/m 7,7 C 4,5 C 24,1 km/h (4 Bft) 100,00 %
08.04.2019 12:30 10,3 C 10,6 C 12,2 C 84 % 1008,2 hPa 0,0 l/m 17,0 km/h (3 Bft) SW 232 0 min 0,000 mm 0,8 UV-I 164 W/m 7,7 C 4,7 C 25,7 km/h (4 Bft) 100,00 %
08.04.2019 12:32 10,3 C 10,6 C 12,2 C 83 % 1008,3 hPa 0,0 l/m 17,4 km/h (3 Bft) S-SW 212 0 min 0,000 mm 0,8 UV-I 170 W/m 7,5 C 4,6 C 29,0 km/h (5 Bft) 96,43 %
08.04.2019 12:34 10,3 C 10,6 C 12,2 C 83 % 1008,2 hPa 0,0 l/m 14,9 km/h (3 Bft) W-SW 246 0 min 0,000 mm 0,8 UV-I 169 W/m 7,5 C 5,5 C 22,5 km/h (4 Bft) 100,00 %
08.04.2019 12:36 10,3 C 10,6 C 12,8 C 84 % 1008,3 hPa 0,0 l/m 15,9 km/h (3 Bft) SW 224 0 min 0,000 mm 0,8 UV-I 165 W/m 7,7 C 5,1 C 22,5 km/h (4 Bft) 100,00 %
08.04.2019 12:38 10,4 C 10,6 C 12,8 C 83 % 1008,3 hPa 0,0 l/m 14,6 km/h (3 Bft) SW 227 0 min 0,000 mm 0,8 UV-I 162 W/m 7,6 C 5,8 C 22,5 km/h (4 Bft) 100,00 %
08.04.2019 12:40 10,4 C 10,6 C 12,2 C 83 % 1008,3 hPa 0,0 l/m 16,4 km/h (3 Bft) W-SW 252 0 min 0,000 mm 0,8 UV-I 156 W/m 7,6 C 5,1 C 25,7 km/h (4 Bft) 100,00 %
08.04.2019 12:42 10,3 C 10,6 C 12,2 C 83 % 1008,3 hPa 0,0 l/m 19,5 km/h (3 Bft) W-SW 251 0 min 0,000 mm 0,7 UV-I 149 W/m 7,5 C 3,8 C 25,7 km/h (4 Bft) 100,00 %
08.04.2019 12:44 10,3 C 10,6 C 12,2 C 83 % 1008,3 hPa 0,0 l/m 16,0 km/h (3 Bft) W-SW 250 0 min 0,000 mm 0,7 UV-I 141 W/m 7,5 C 5,1 C 22,5 km/h (4 Bft) 100,00 %
08.04.2019 12:46 10,3 C 10,6 C 12,2 C 83 % 1008,4 hPa 0,0 l/m 13,2 km/h (3 Bft) W-SW 248 0 min 0,000 mm 0,7 UV-I 141 W/m 7,5 C 6,3 C 29,0 km/h (5 Bft) 100,00 %
08.04.2019 12:48 10,3 C 10,6 C 12,2 C 83 % 1008,4 hPa 0,0 l/m 17,0 km/h (3 Bft) W-SW 237 0 min 0,000 mm 0,7 UV-I 146 W/m 7,5 C 4,7 C 25,7 km/h (4 Bft) 100,00 %
08.04.2019 12:50 10,3 C 10,6 C 12,2 C 83 % 1008,4 hPa 0,0 l/m 15,5 km/h (3 Bft) W 259 0 min 0,000 mm 0,8 UV-I 152 W/m 7,5 C 5,3 C 20,9 km/h (4 Bft) 100,00 %
08.04.2019 12:52 10,3 C 10,6 C 12,2 C 84 % 1008,4 hPa 0,0 l/m 11,0 km/h (2 Bft) SW 229 0 min 0,000 mm 0,7 UV-I 147 W/m 7,7 C 7,4 C 17,7 km/h (3 Bft) 100,00 %
08.04.2019 12:54 10,3 C 10,6 C 12,2 C 84 % 1008,4 hPa 0,0 l/m 15,6 km/h (3 Bft) SW 232 0 min 0,000 mm 0,7 UV-I 148 W/m 7,7 C 5,3 C 22,5 km/h (4 Bft) 100,00 %
08.04.2019 12:56 10,3 C 10,6 C 12,2 C 83 % 1008,4 hPa 0,0 l/m 13,0 km/h (3 Bft) S-SW 213 0 min 0,000 mm 0,7 UV-I 147 W/m 7,5 C 6,4 C 20,9 km/h (4 Bft) 98,00 %
08.04.2019 12:58 10,2 C 10,6 C 11,7 C 83 % 1008,4 hPa 0,0 l/m 13,2 km/h (3 Bft) SW 231 0 min 0,000 mm 0,7 UV-I 148 W/m 7,4 C 6,2 C 19,3 km/h (3 Bft) 100,00 %
08.04.2019 13:00 10,3 C 10,6 C 12,2 C 84 % 1008,4 hPa 0,0 l/m 18,0 km/h (3 Bft) S-SW 205 0 min 0,000 mm 0,7 UV-I 149 W/m 7,7 C 4,3 C 25,7 km/h (4 Bft) 100,00 %
08.04.2019 13:02 10,2 C 10,6 C 12,2 C 84 % 1008,4 hPa 0,0 l/m 15,0 km/h (3 Bft) W-SW 250 0 min 0,076 mm 0,8 UV-I 166 W/m 7,6 C 5,4 C 24,1 km/h (4 Bft) 100,00 %
08.04.2019 13:04 10,3 C 10,6 C 12,2 C 84 % 1008,3 hPa 0,0 l/m 17,6 km/h (3 Bft) SW 232 0 min 0,000 mm 0,9 UV-I 194 W/m 7,7 C 4,5 C 25,7 km/h (4 Bft) 98,21 %
08.04.2019 13:06 10,3 C 10,6 C 12,8 C 84 % 1008,3 hPa 0,0 l/m 21,1 km/h (4 Bft) SW 225 0 min 0,000 mm 1,1 UV-I 229 W/m 7,7 C 3,3 C 29,0 km/h (5 Bft) 96,43 %
08.04.2019 13:08 10,3 C 10,6 C 13,3 C 84 % 1008,2 hPa 0,0 l/m 19,9 km/h (4 Bft) SW 223 0 min 0,000 mm 1,3 UV-I 243 W/m 7,7 C 3,7 C 25,7 km/h (4 Bft) 94,29 %
08.04.2019 13:10 10,4 C 10,6 C 13,3 C 83 % 1008,3 hPa 0,0 l/m 16,4 km/h (3 Bft) W-SW 257 0 min 0,000 mm 1,3 UV-I 272 W/m 7,6 C 5,1 C 27,4 km/h (4 Bft) 98,21 %
08.04.2019 13:12 10,4 C 10,6 C 13,3 C 83 % 1008,3 hPa 0,0 l/m 15,5 km/h (3 Bft) W-SW 247 0 min 0,000 mm 1,3 UV-I 255 W/m 7,6 C 5,4 C 29,0 km/h (5 Bft) 100,00 %
08.04.2019 13:14 10,4 C 10,6 C 13,3 C 83 % 1008,3 hPa 0,0 l/m 17,3 km/h (3 Bft) W-SW 251 0 min 0,000 mm 1,2 UV-I 243 W/m 7,6 C 4,7 C 29,0 km/h (5 Bft) 97,37 %
08.04.2019 13:16 10,4 C 10,6 C 13,3 C 83 % 1008,3 hPa 0,0 l/m 17,1 km/h (3 Bft) W 264 0 min 0,000 mm 1,2 UV-I 237 W/m 7,6 C 4,8 C 27,4 km/h (4 Bft) 92,86 %
08.04.2019 13:18 10,4 C 10,6 C 13,3 C 83 % 1008,3 hPa 0,0 l/m 14,3 km/h (3 Bft) SW 234 0 min 0,000 mm 1,1 UV-I 223 W/m 7,6 C 5,9 C 20,9 km/h (4 Bft) 94,74 %
08.04.2019 13:20 10,4 C 10,6 C 13,3 C 83 % 1008,3 hPa 0,0 l/m 17,0 km/h (3 Bft) W-SW 254 0 min 0,000 mm 1,1 UV-I 221 W/m 7,6 C 4,8 C 27,4 km/h (4 Bft) 94,00 %
08.04.2019 13:22 10,5 C 10,6 C 13,3 C 83 % 1008,3 hPa 0,0 l/m 14,1 km/h (3 Bft) W-SW 243 0 min 0,000 mm 1,0 UV-I 214 W/m 7,7 C 6,1 C 20,9 km/h (4 Bft) 97,56 %
08.04.2019 13:24 10,6 C 10,6 C 13,3 C 83 % 1008,4 hPa 0,0 l/m 12,6 km/h (3 Bft) W-SW 244 0 min 0,000 mm 1,0 UV-I 215 W/m 7,8 C 6,9 C 22,5 km/h (4 Bft) 92,86 %
08.04.2019 13:26 10,7 C 10,6 C 13,9 C 83 % 1008,4 hPa 0,0 l/m 16,0 km/h (3 Bft) SW 235 0 min 0,000 mm 1,2 UV-I 237 W/m 7,9 C 5,6 C 22,5 km/h (4 Bft) 95,12 %
08.04.2019 13:28 10,6 C 10,6 C 13,3 C 82 % 1008,4 hPa 0,0 l/m 16,8 km/h (3 Bft) W-SW 245 0 min 0,000 mm 1,3 UV-I 263 W/m 7,7 C 5,2 C 24,1 km/h (4 Bft) 95,74 %
08.04.2019 13:30 10,6 C 10,6 C 13,9 C 83 % 1008,4 hPa 0,0 l/m 14,7 km/h (3 Bft) SW 227 0 min 0,000 mm 1,3 UV-I 278 W/m 7,8 C 6,0 C 20,9 km/h (4 Bft) 96,00 %
08.04.2019 13:32 10,7 C 10,6 C 14,4 C 83 % 1008,4 hPa 0,0 l/m 18,6 km/h (3 Bft) SW 230 0 min 0,000 mm 1,3 UV-I 278 W/m 7,9 C 4,6 C 27,4 km/h (4 Bft) 93,75 %
08.04.2019 13:34 10,7 C 10,6 C 14,4 C 83 % 1008,4 hPa 0,0 l/m 14,3 km/h (3 Bft) W-SW 248 0 min 0,000 mm 1,4 UV-I 288 W/m 7,9 C 6,3 C 24,1 km/h (4 Bft) 97,37 %
08.04.2019 13:36 10,8 C 10,6 C 14,4 C 82 % 1008,3 hPa 0,0 l/m 11,6 km/h (2 Bft) S-SW 207 0 min 0,000 mm 1,5 UV-I 314 W/m 7,9 C 7,6 C 22,5 km/h (4 Bft) 92,86 %
08.04.2019 13:39 10,8 C 10,6 C 15,0 C 82 % 1008,4 hPa 0,0 l/m 18,9 km/h (3 Bft) W-SW 238 0 min 0,000 mm 1,7 UV-I 374 W/m 7,9 C 4,7 C 25,7 km/h (4 Bft) 97,14 %
08.04.2019 13:40 10,9 C 10,6 C 15,6 C 82 % 1008,4 hPa 0,0 l/m 20,0 km/h (4 Bft) W-SW 239 1 min 0,000 mm 2,0 UV-I 434 W/m 7,9 C 4,4 C 27,4 km/h (4 Bft) 100,00 %
08.04.2019 13:42 11,0 C 10,6 C 16,1 C 82 % 1008,3 hPa 0,0 l/m 19,0 km/h (3 Bft) W-SW 250 2 min 0,000 mm 2,0 UV-I 436 W/m 8,0 C 4,9 C 25,7 km/h (4 Bft) 100,00 %
08.04.2019 13:44 11,2 C 10,6 C 16,7 C 82 % 1008,3 hPa 0,0 l/m 17,7 km/h (3 Bft) W 260 0 min 0,000 mm 1,9 UV-I 408 W/m 8,2 C 5,6 C 24,1 km/h (4 Bft) 100,00 %
08.04.2019 13:46 11,3 C 10,6 C 16,7 C 82 % 1008,3 hPa 0,0 l/m 14,0 km/h (3 Bft) SW 214 0 min 0,000 mm 1,8 UV-I 364 W/m 8,3 C 7,1 C 19,3 km/h (3 Bft) 100,00 %
08.04.2019 13:48 11,3 C 10,6 C 16,7 C 81 % 1008,3 hPa 0,0 l/m 14,3 km/h (3 Bft) SW 226 0 min 0,000 mm 1,6 UV-I 324 W/m 8,2 C 7,0 C 20,9 km/h (4 Bft) 97,87 %
08.04.2019 13:50 11,3 C 10,6 C 16,1 C 80 % 1008,3 hPa 0,0 l/m 16,3 km/h (3 Bft) S-SW 209 0 min 0,000 mm 1,5 UV-I 314 W/m 8,0 C 6,2 C 24,1 km/h (4 Bft) 100,00 %
08.04.2019 13:52 11,3 C 10,6 C 15,6 C 81 % 1008,4 hPa 0,0 l/m 16,0 km/h (3 Bft) SW 232 0 min 0,000 mm 1,5 UV-I 323 W/m 8,2 C 6,3 C 24,1 km/h (4 Bft) 100,00 %
08.04.2019 13:54 11,2 C 10,6 C 15,6 C 80 % 1008,4 hPa 0,0 l/m 17,1 km/h (3 Bft) W-SW 258 0 min 0,000 mm 1,5 UV-I 327 W/m 7,9 C 5,8 C 22,5 km/h (4 Bft) 97,37 %
08.04.2019 13:56 11,2 C 10,6 C 15,0 C 81 % 1008,4 hPa 0,0 l/m 15,9 km/h (3 Bft) SW 216 0 min 0,000 mm 1,5 UV-I 337 W/m 8,1 C 6,2 C 29,0 km/h (5 Bft) 100,00 %
08.04.2019 13:58 11,2 C 10,6 C 15,6 C 81 % 1008,4 hPa 0,0 l/m 16,3 km/h (3 Bft) W-SW 239 0 min 0,000 mm 1,6 UV-I 368 W/m 8,1 C 6,1 C 24,1 km/h (4 Bft) 100,00 %
08.04.2019 14:00 11,3 C 10,6 C 16,1 C 81 % 1008,3 hPa 0,0 l/m 15,7 km/h (3 Bft) W-SW 240 2 min 0,000 mm 1,8 UV-I 419 W/m 8,2 C 6,4 C 22,5 km/h (4 Bft) 98,00 %
08.04.2019 14:02 11,4 C 10,6 C 17,2 C 81 % 1008,3 hPa 0,0 l/m 15,3 km/h (3 Bft) SW 220 2 min 0,178 mm 2,0 UV-I 452 W/m 8,3 C 6,7 C 24,1 km/h (4 Bft) 100,00 %
08.04.2019 14:04 11,6 C 10,6 C 17,2 C 80 % 1008,3 hPa 0,0 l/m 16,2 km/h (3 Bft) W-SW 243 2 min 0,000 mm 2,0 UV-I 444 W/m 8,3 C 6,6 C 22,5 km/h (4 Bft) 100,00 %
08.04.2019 14:06 11,7 C 10,6 C 17,2 C 80 % 1008,3 hPa 0,0 l/m 13,2 km/h (3 Bft) SW 216 2 min 0,000 mm 2,0 UV-I 421 W/m 8,4 C 7,9 C 25,7 km/h (4 Bft) 100,00 %
08.04.2019 14:08 11,7 C 10,6 C 17,8 C 80 % 1008,3 hPa 0,0 l/m 14,9 km/h (3 Bft) S-SW 213 2 min 0,000 mm 1,9 UV-I 409 W/m 8,4 C 7,2 C 25,7 km/h (4 Bft) 100,00 %
08.04.2019 14:10 11,7 C 10,6 C 17,8 C 79 % 1008,3 hPa 0,0 l/m 14,8 km/h (3 Bft) S-SW 211 2 min 0,000 mm 1,9 UV-I 425 W/m 8,2 C 7,3 C 25,7 km/h (4 Bft) 100,00 %
08.04.2019 14:12 11,7 C 10,6 C 17,8 C 79 % 1008,3 hPa 0,0 l/m 16,7 km/h (3 Bft) W-SW 245 2 min 0,000 mm 2,0 UV-I 448 W/m 8,2 C 6,6 C 24,1 km/h (4 Bft) 97,44 %
08.04.2019 14:14 11,7 C 10,6 C 17,8 C 79 % 1008,3 hPa 0,0 l/m 16,8 km/h (3 Bft) W 270 2 min 0,000 mm 2,1 UV-I 462 W/m 8,2 C 6,5 C 24,1 km/h (4 Bft) 97,56 %
08.04.2019 14:16 11,8 C 10,6 C 17,8 C 79 % 1008,2 hPa 0,0 l/m 16,0 km/h (3 Bft) SW 232 2 min 0,000 mm 2,1 UV-I 459 W/m 8,3 C 6,9 C 27,4 km/h (4 Bft) 98,21 %
08.04.2019 14:18 11,8 C 10,6 C 18,3 C 79 % 1008,2 hPa 0,0 l/m 16,2 km/h (3 Bft) S-SW 207 2 min 0,000 mm 2,1 UV-I 456 W/m 8,3 C 6,9 C 25,7 km/h (4 Bft) 97,56 %
08.04.2019 14:20 11,9 C 10,6 C 18,3 C 79 % 1008,2 hPa 0,0 l/m 16,1 km/h (3 Bft) SW 229 2 min 0,000 mm 2,1 UV-I 465 W/m 8,4 C 7,0 C 24,1 km/h (4 Bft) 100,00 %
08.04.2019 14:22 12,0 C 10,6 C 18,9 C 79 % 1008,2 hPa 0,0 l/m 15,3 km/h (3 Bft) S-SW 207 2 min 0,000 mm 2,1 UV-I 495 W/m 8,5 C 7,4 C 22,5 km/h (4 Bft) 98,00 %
08.04.2019 14:24 11,9 C 10,6 C 18,3 C 78 % 1008,2 hPa 0,0 l/m 17,9 km/h (3 Bft) S-SW 208 2 min 0,000 mm 2,0 UV-I 470 W/m 8,2 C 6,4 C 25,7 km/h (4 Bft) 97,56 %
08.04.2019 14:26 11,9 C 10,6 C 18,3 C 78 % 1008,2 hPa 0,0 l/m 12,7 km/h (3 Bft) W 274 2 min 0,000 mm 1,9 UV-I 420 W/m 8,2 C 8,4 C 20,9 km/h (4 Bft) 100,00 %
08.04.2019 14:28 12,0 C 10,6 C 18,3 C 79 % 1008,2 hPa 0,0 l/m 15,4 km/h (3 Bft) S 190 2 min 0,000 mm 1,9 UV-I 417 W/m 8,5 C 7,4 C 24,1 km/h (4 Bft) 97,73 %
08.04.2019 14:30 12,0 C 10,6 C 18,3 C 78 % 1008,2 hPa 0,0 l/m 13,9 km/h (3 Bft) S-SW 210 2 min 0,000 mm 1,9 UV-I 428 W/m 8,3 C 8,0 C 24,1 km/h (4 Bft) 100,00 %
08.04.2019 14:32 12,1 C 10,6 C 18,3 C 79 % 1008,2 hPa 0,0 l/m 14,0 km/h (3 Bft) SW 221 2 min 0,000 mm 1,8 UV-I 428 W/m 8,6 C 8,1 C 22,5 km/h (4 Bft) 98,00 %
08.04.2019 14:34 12,2 C 10,6 C 18,3 C 78 % 1008,2 hPa 0,0 l/m 13,0 km/h (3 Bft) S-SW 199 2 min 0,000 mm 1,8 UV-I 403 W/m 8,5 C 8,6 C 19,3 km/h (3 Bft) 96,23 %
08.04.2019 14:36 12,2 C 10,6 C 18,3 C 78 % 1008,1 hPa 0,0 l/m 15,1 km/h (3 Bft) SW 232 0 min 0,000 mm 1,7 UV-I 385 W/m 8,5 C 7,8 C 24,1 km/h (4 Bft) 100,00 %
08.04.2019 14:38 12,2 C 10,6 C 17,8 C 78 % 1008,1 hPa 0,0 l/m 18,6 km/h (3 Bft) W-SW 242 0 min 0,000 mm 1,7 UV-I 378 W/m 8,5 C 6,6 C 27,4 km/h (4 Bft) 100,00 %
08.04.2019 14:40 12,2 C 10,6 C 17,2 C 77 % 1008,1 hPa 0,0 l/m 16,5 km/h (3 Bft) SW 236 0 min 0,000 mm 1,6 UV-I 358 W/m 8,3 C 7,3 C 24,1 km/h (4 Bft) 98,15 %
08.04.2019 14:42 12,1 C 10,6 C 16,7 C 77 % 1008,1 hPa 0,0 l/m 18,2 km/h (3 Bft) S-SW 210 0 min 0,000 mm 1,5 UV-I 329 W/m 8,2 C 6,6 C 27,4 km/h (4 Bft) 98,11 %
08.04.2019 14:44 12,0 C 10,6 C 16,7 C 77 % 1008,1 hPa 0,0 l/m 15,0 km/h (3 Bft) SW 235 0 min 0,000 mm 1,4 UV-I 306 W/m 8,1 C 7,6 C 22,5 km/h (4 Bft) 95,45 %
08.04.2019 14:46 11,9 C 10,6 C 16,1 C 78 % 1008,1 hPa 0,0 l/m 16,8 km/h (3 Bft) SW 220 0 min 0,000 mm 1,4 UV-I 297 W/m 8,2 C 6,8 C 24,1 km/h (4 Bft) 100,00 %
08.04.2019 14:48 11,9 C 10,6 C 16,1 C 78 % 1008,2 hPa 0,0 l/m 15,9 km/h (3 Bft) W-SW 240 0 min 0,000 mm 1,4 UV-I 309 W/m 8,2 C 7,1 C 22,5 km/h (4 Bft) 97,01 %
08.04.2019 14:50 11,8 C 10,6 C 16,1 C 78 % 1008,2 hPa 0,0 l/m 16,6 km/h (3 Bft) W-SW 251 0 min 0,000 mm 1,4 UV-I 320 W/m 8,1 C 6,7 C 24,1 km/h (4 Bft) 96,08 %
08.04.2019 14:52 11,9 C 10,6 C 16,7 C 79 % 1008,2 hPa 0,0 l/m 17,7 km/h (3 Bft) W-NW 282 0 min 0,000 mm 1,4 UV-I 323 W/m 8,4 C 6,5 C 30,6 km/h (5 Bft) 97,37 %
08.04.2019 14:54 11,9 C 10,6 C 16,1 C 78 % 1008,2 hPa 0,0 l/m 16,6 km/h (3 Bft) S-SW 213 0 min 0,000 mm 1,4 UV-I 319 W/m 8,2 C 6,8 C 27,4 km/h (4 Bft) 95,74 %
08.04.2019 14:56 11,9 C 10,6 C 16,1 C 78 % 1008,2 hPa 0,0 l/m 11,6 km/h (2 Bft) SW 233 0 min 0,000 mm 1,3 UV-I 312 W/m 8,2 C 8,9 C 19,3 km/h (3 Bft) 97,87 %
08.04.2019 14:58 11,9 C 10,6 C 16,1 C 78 % 1008,2 hPa 0,0 l/m 16,9 km/h (3 Bft) W-SW 255 0 min 0,000 mm 1,3 UV-I 310 W/m 8,2 C 6,7 C 24,1 km/h (4 Bft) 94,34 %
08.04.2019 15:00 11,9 C 10,6 C 16,1 C 78 % 1008,2 hPa 0,0 l/m 13,8 km/h (3 Bft) W-SW 247 0 min 0,228 mm 1,3 UV-I 311 W/m 8,2 C 7,9 C 22,5 km/h (4 Bft) 97,37 %
08.04.2019 15:02 11,9 C 10,6 C 16,1 C 78 % 1008,2 hPa 0,0 l/m 16,3 km/h (3 Bft) W-SW 254 0 min 0,000 mm 1,3 UV-I 305 W/m 8,2 C 7,0 C 24,1 km/h (4 Bft) 96,00 %
08.04.2019 15:04 11,8 C 10,6 C 16,1 C 78 % 1008,1 hPa 0,0 l/m 16,7 km/h (3 Bft) S-SW 209 0 min 0,000 mm 1,3 UV-I 294 W/m 8,1 C 6,7 C 25,7 km/h (4 Bft) 98,11 %
08.04.2019 15:06 11,8 C 10,6 C 15,6 C 78 % 1008,1 hPa 0,0 l/m 17,4 km/h (3 Bft) SW 236 0 min 0,000 mm 1,3 UV-I 291 W/m 8,1 C 6,4 C 25,7 km/h (4 Bft) 97,37 %
08.04.2019 15:08 11,8 C 10,6 C 15,6 C 78 % 1008,2 hPa 0,0 l/m 14,1 km/h (3 Bft) SW 227 0 min 0,000 mm 1,3 UV-I 295 W/m 8,1 C 7,7 C 25,7 km/h (4 Bft) 95,74 %
08.04.2019 15:10 11,7 C 10,6 C 15,6 C 78 % 1008,1 hPa 0,0 l/m 18,8 km/h (3 Bft) S-SW 210 0 min 0,000 mm 1,4 UV-I 304 W/m 8,0 C 5,9 C 27,4 km/h (4 Bft) 98,21 %
08.04.2019 15:12 11,7 C 10,6 C 15,6 C 78 % 1008,1 hPa 0,0 l/m 14,0 km/h (3 Bft) SW 227 0 min 0,000 mm 1,4 UV-I 308 W/m 8,0 C 7,6 C 24,1 km/h (4 Bft) 97,37 %
08.04.2019 15:14 11,7 C 10,6 C 15,6 C 78 % 1008,1 hPa 0,0 l/m 12,1 km/h (2 Bft) S-SW 202 0 min 0,000 mm 1,4 UV-I 308 W/m 8,0 C 8,4 C 20,9 km/h (4 Bft) 96,43 %
08.04.2019 15:16 11,7 C 10,6 C 15,6 C 79 % 1008,1 hPa 0,0 l/m 13,6 km/h (3 Bft) W-SW 237 0 min 0,000 mm 1,4 UV-I 316 W/m 8,2 C 7,8 C 22,5 km/h (4 Bft) 97,37 %
08.04.2019 15:18 11,8 C 10,6 C 16,1 C 78 % 1008,1 hPa 0,0 l/m 14,4 km/h (3 Bft) SW 232 0 min 0,000 mm 1,4 UV-I 333 W/m 8,1 C 7,6 C 22,5 km/h (4 Bft) 96,00 %
08.04.2019 15:20 11,8 C 10,6 C 16,7 C 78 % 1008,0 hPa 0,0 l/m 16,6 km/h (3 Bft) SW 236 0 min 0,000 mm 1,5 UV-I 346 W/m 8,1 C 6,7 C 24,1 km/h (4 Bft) 97,87 %
08.04.2019 15:22 11,8 C 10,6 C 16,7 C 78 % 1008,0 hPa 0,0 l/m 15,2 km/h (3 Bft) S-SW 209 0 min 0,000 mm 1,5 UV-I 342 W/m 8,1 C 7,2 C 22,5 km/h (4 Bft) 97,62 %
08.04.2019 15:24 11,8 C 10,6 C 16,7 C 78 % 1008,0 hPa 0,0 l/m 14,2 km/h (3 Bft) S-SW 197 0 min 0,000 mm 1,5 UV-I 332 W/m 8,1 C 7,6 C 22,5 km/h (4 Bft) 97,87 %
08.04.2019 15:26 11,9 C 10,6 C 16,7 C 78 % 1008,1 hPa 0,0 l/m 17,0 km/h (3 Bft) SW 233 0 min 0,000 mm 1,4 UV-I 328 W/m 8,2 C 6,7 C 27,4 km/h (4 Bft) 98,21 %
08.04.2019 15:28 11,9 C 10,6 C 16,7 C 78 % 1008,0 hPa 0,0 l/m 15,4 km/h (3 Bft) W-SW 238 0 min 0,000 mm 1,4 UV-I 321 W/m 8,2 C 7,3 C 22,5 km/h (4 Bft) 97,22 %
08.04.2019 15:30 11,9 C 10,6 C 16,1 C 78 % 1008,1 hPa 0,0 l/m 16,9 km/h (3 Bft) SW 233 0 min 0,000 mm 1,4 UV-I 322 W/m 8,2 C 6,7 C 25,7 km/h (4 Bft) 100,00 %
08.04.2019 15:32 11,9 C 10,6 C 16,1 C 78 % 1008,0 hPa 0,0 l/m 14,2 km/h (3 Bft) S-SW 208 0 min 0,000 mm 1,4 UV-I 322 W/m 8,2 C 7,8 C 25,7 km/h (4 Bft) 98,39 %
08.04.2019 15:34 11,9 C 10,6 C 16,7 C 79 % 1008,0 hPa 0,0 l/m 11,2 km/h (2 Bft) W-SW 237 0 min 0,000 mm 1,4 UV-I 309 W/m 8,4 C 9,1 C 19,3 km/h (3 Bft) 94,74 %
08.04.2019 15:36 12,0 C 10,6 C 16,1 C 78 % 1008,0 hPa 0,0 l/m 19,0 km/h (3 Bft) SW 229 0 min 0,000 mm 1,3 UV-I 301 W/m 8,3 C 6,2 C 29,0 km/h (5 Bft) 98,21 %
08.04.2019 15:38 12,0 C 10,6 C 16,1 C 79 % 1008,0 hPa 0,0 l/m 11,8 km/h (2 Bft) W-SW 246 0 min 0,000 mm 1,3 UV-I 303 W/m 8,5 C 8,9 C 19,3 km/h (3 Bft) 97,56 %
08.04.2019 15:40 12,1 C 10,6 C 16,7 C 78 % 1008,0 hPa 0,0 l/m 16,3 km/h (3 Bft) SW 236 0 min 0,000 mm 1,3 UV-I 308 W/m 8,4 C 7,2 C 29,0 km/h (5 Bft) 97,56 %
08.04.2019 15:42 12,0 C 10,6 C 16,1 C 78 % 1007,9 hPa 0,0 l/m 15,8 km/h (3 Bft) SW 232 0 min 0,000 mm 1,3 UV-I 315 W/m 8,3 C 7,3 C 24,1 km/h (4 Bft) 96,23 %
08.04.2019 15:44 11,9 C 10,6 C 16,1 C 78 % 1007,9 hPa 0,0 l/m 13,2 km/h (3 Bft) W 259 0 min 0,000 mm 1,3 UV-I 313 W/m 8,2 C 8,2 C 22,5 km/h (4 Bft) 98,00 %
08.04.2019 15:46 11,9 C 10,6 C 16,1 C 78 % 1007,9 hPa 0,0 l/m 11,8 km/h (2 Bft) W-SW 253 0 min 0,000 mm 1,3 UV-I 318 W/m 8,2 C 8,8 C 17,7 km/h (3 Bft) 95,74 %
08.04.2019 15:48 11,9 C 10,6 C 16,1 C 78 % 1008,0 hPa 0,0 l/m 12,9 km/h (3 Bft) S-SW 209 0 min 0,000 mm 1,3 UV-I 323 W/m 8,2 C 8,3 C 17,7 km/h (3 Bft) 97,37 %
08.04.2019 15:50 11,9 C 10,6 C 16,1 C 78 % 1008,0 hPa 0,0 l/m 14,0 km/h (3 Bft) SW 226 0 min 0,000 mm 1,3 UV-I 322 W/m 8,2 C 7,8 C 22,5 km/h (4 Bft) 96,23 %
08.04.2019 15:52 11,9 C 10,6 C 16,1 C 78 % 1008,0 hPa 0,0 l/m 17,5 km/h (3 Bft) W-SW 238 2 min 0,000 mm 1,3 UV-I 324 W/m 8,2 C 6,5 C 22,5 km/h (4 Bft) 95,74 %
08.04.2019 15:54 12,1 C 10,6 C 16,7 C 78 % 1008,0 hPa 0,0 l/m 13,7 km/h (3 Bft) W-SW 241 2 min 0,000 mm 1,3 UV-I 322 W/m 8,4 C 8,2 C 22,5 km/h (4 Bft) 98,11 %
08.04.2019 15:56 12,1 C 10,6 C 16,7 C 78 % 1008,0 hPa 0,0 l/m 12,9 km/h (3 Bft) SW 219 2 min 0,000 mm 1,3 UV-I 329 W/m 8,4 C 8,5 C 20,9 km/h (4 Bft) 95,12 %
08.04.2019 15:58 12,1 C 10,6 C 16,7 C 78 % 1008,0 hPa 0,0 l/m 14,3 km/h (3 Bft) SW 221 2 min 0,000 mm 1,3 UV-I 356 W/m 8,4 C 8,0 C 19,3 km/h (3 Bft) 100,00 %
08.04.2019 16:00 12,1 C 10,6 C 16,7 C 77 % 1007,9 hPa 0,0 l/m 15,1 km/h (3 Bft) S-SW 198 0 min 0,000 mm 1,2 UV-I 312 W/m 8,2 C 7,6 C 22,5 km/h (4 Bft) 97,87 %
08.04.2019 16:02 12,1 C 10,6 C 16,1 C 77 % 1007,9 hPa 0,0 l/m 16,4 km/h (3 Bft) S-SW 196 0 min 0,178 mm 1,2 UV-I 306 W/m 8,2 C 7,2 C 24,1 km/h (4 Bft) 95,74 %
08.04.2019 16:04 12,0 C 10,6 C 16,1 C 78 % 1007,9 hPa 0,0 l/m 16,0 km/h (3 Bft) S-SW 209 2 min 0,000 mm 1,1 UV-I 315 W/m 8,3 C 7,2 C 24,1 km/h (4 Bft) 95,83 %
08.04.2019 16:06 11,9 C 10,6 C 15,6 C 78 % 1007,9 hPa 0,0 l/m 14,7 km/h (3 Bft) S-SW 210 2 min 0,000 mm 1,1 UV-I 319 W/m 8,2 C 7,6 C 19,3 km/h (3 Bft) 97,37 %
08.04.2019 16:08 11,9 C 10,6 C 15,6 C 78 % 1007,9 hPa 0,0 l/m 17,7 km/h (3 Bft) SW 224 2 min 0,000 mm 1,1 UV-I 308 W/m 8,2 C 6,5 C 27,4 km/h (4 Bft) 94,34 %
08.04.2019 16:10 12,0 C 10,6 C 16,1 C 78 % 1007,9 hPa 0,0 l/m 17,5 km/h (3 Bft) S-SW 198 0 min 0,000 mm 1,1 UV-I 299 W/m 8,3 C 6,7 C 24,1 km/h (4 Bft) 95,12 %
08.04.2019 16:12 12,0 C 10,6 C 16,1 C 77 % 1007,9 hPa 0,0 l/m 16,1 km/h (3 Bft) W 268 2 min 0,000 mm 1,1 UV-I 316 W/m 8,1 C 7,1 C 25,7 km/h (4 Bft) 96,23 %
08.04.2019 16:14 12,1 C 10,6 C 16,7 C 78 % 1007,9 hPa 0,0 l/m 12,0 km/h (2 Bft) SW 231 2 min 0,000 mm 1,1 UV-I 322 W/m 8,4 C 8,9 C 20,9 km/h (4 Bft) 95,74 %
08.04.2019 16:16 12,2 C 10,6 C 16,7 C 77 % 1007,8 hPa 0,0 l/m 17,2 km/h (3 Bft) W-SW 248 2 min 0,000 mm 1,1 UV-I 317 W/m 8,3 C 7,0 C 29,0 km/h (5 Bft) 92,68 %
08.04.2019 16:18 12,2 C 10,6 C 16,1 C 77 % 1007,9 hPa 0,0 l/m 15,2 km/h (3 Bft) W-SW 254 2 min 0,000 mm 1,0 UV-I 297 W/m 8,3 C 7,7 C 25,7 km/h (4 Bft) 95,74 %
08.04.2019 16:20 12,2 C 10,6 C 16,1 C 77 % 1007,9 hPa 0,0 l/m 16,0 km/h (3 Bft) SW 217 0 min 0,000 mm 1,0 UV-I 290 W/m 8,3 C 7,4 C 25,7 km/h (4 Bft) 91,43 %
08.04.2019 16:22 12,2 C 10,6 C 15,6 C 77 % 1007,9 hPa 0,0 l/m 18,9 km/h (3 Bft) SW 221 0 min 0,000 mm 1,0 UV-I 279 W/m 8,3 C 6,5 C 27,4 km/h (4 Bft) 96,43 %
08.04.2019 16:24 12,2 C 10,6 C 15,6 C 77 % 1007,9 hPa 0,0 l/m 11,5 km/h (2 Bft) W 269 0 min 0,000 mm 1,0 UV-I 272 W/m 8,3 C 9,3 C 16,1 km/h (3 Bft) 94,64 %
08.04.2019 16:26 12,3 C 10,6 C 15,6 C 78 % 1007,9 hPa 0,0 l/m 17,5 km/h (3 Bft) W-SW 239 0 min 0,000 mm 0,9 UV-I 262 W/m 8,6 C 7,0 C 24,1 km/h (4 Bft) 95,12 %
08.04.2019 16:28 12,3 C 10,6 C 15,6 C 76 % 1007,9 hPa 0,0 l/m 20,5 km/h (4 Bft) W-SW 246 0 min 0,000 mm 0,9 UV-I 257 W/m 8,2 C 6,1 C 27,4 km/h (4 Bft) 94,34 %
08.04.2019 16:30 12,2 C 10,6 C 15,6 C 77 % 1007,9 hPa 0,0 l/m 11,7 km/h (2 Bft) W-SW 245 0 min 0,000 mm 0,9 UV-I 259 W/m 8,3 C 9,2 C 20,9 km/h (4 Bft) 97,56 %
08.04.2019 16:32 12,2 C 10,6 C 15,6 C 77 % 1007,9 hPa 0,0 l/m 15,6 km/h (3 Bft) W-SW 238 0 min 0,000 mm 0,9 UV-I 272 W/m 8,3 C 7,6 C 22,5 km/h (4 Bft) 97,87 %
08.04.2019 16:34 12,2 C 10,6 C 15,6 C 76 % 1007,9 hPa 0,0 l/m 18,4 km/h (3 Bft) W-SW 253 2 min 0,000 mm 0,9 UV-I 288 W/m 8,1 C 6,6 C 25,7 km/h (4 Bft) 100,00 %
08.04.2019 16:36 12,2 C 10,6 C 15,6 C 77 % 1007,8 hPa 0,0 l/m 15,5 km/h (3 Bft) SW 223 2 min 0,000 mm 0,9 UV-I 303 W/m 8,3 C 7,6 C 20,9 km/h (4 Bft) 97,14 %
08.04.2019 16:38 12,2 C 10,6 C 15,6 C 76 % 1007,9 hPa 0,0 l/m 19,7 km/h (3 Bft) SW 219 2 min 0,000 mm 0,9 UV-I 306 W/m 8,1 C 6,2 C 29,0 km/h (5 Bft) 97,62 %
08.04.2019 16:40 12,3 C 10,6 C 16,1 C 77 % 1007,9 hPa 0,0 l/m 15,1 km/h (3 Bft) SW 220 2 min 0,000 mm 0,9 UV-I 311 W/m 8,4 C 7,9 C 19,3 km/h (3 Bft) 94,74 %
08.04.2019 16:42 12,3 C 10,6 C 16,1 C 76 % 1007,9 hPa 0,0 l/m 14,5 km/h (3 Bft) SW 236 2 min 0,000 mm 0,9 UV-I 312 W/m 8,2 C 8,1 C 22,5 km/h (4 Bft) 98,31 %
08.04.2019 16:44 12,3 C 10,6 C 17,2 C 77 % 1007,8 hPa 0,0 l/m 15,0 km/h (3 Bft) W-SW 248 2 min 0,000 mm 0,9 UV-I 388 W/m 8,4 C 7,9 C 24,1 km/h (4 Bft) 97,87 %
08.04.2019 16:46 12,4 C 10,6 C 18,3 C 76 % 1007,9 hPa 0,0 l/m 16,2 km/h (3 Bft) W-SW 242 2 min 0,000 mm 0,9 UV-I 421 W/m 8,3 C 7,6 C 25,7 km/h (4 Bft) 97,87 %
08.04.2019 16:48 12,5 C 10,6 C 17,8 C 76 % 1007,9 hPa 0,0 l/m 14,8 km/h (3 Bft) S-SW 211 2 min 0,000 mm 0,9 UV-I 366 W/m 8,4 C 8,2 C 22,5 km/h (4 Bft) 94,34 %
08.04.2019 16:50 12,6 C 10,6 C 17,2 C 75 % 1007,8 hPa 0,0 l/m 16,5 km/h (3 Bft) S-SW 211 2 min 0,000 mm 0,8 UV-I 294 W/m 8,3 C 7,7 C 24,1 km/h (4 Bft) 95,45 %
08.04.2019 16:52 12,5 C 10,6 C 16,7 C 75 % 1007,8 hPa 0,0 l/m 14,9 km/h (3 Bft) S-SW 197 2 min 0,000 mm 0,8 UV-I 275 W/m 8,2 C 8,2 C 20,9 km/h (4 Bft) 92,31 %
08.04.2019 16:54 12,4 C 10,6 C 15,6 C 75 % 1007,8 hPa 0,0 l/m 19,1 km/h (3 Bft) SW 222 0 min 0,000 mm 0,8 UV-I 248 W/m 8,1 C 6,7 C 29,0 km/h (5 Bft) 97,06 %
08.04.2019 16:56 12,3 C 10,6 C 15,0 C 75 % 1007,8 hPa 0,0 l/m 17,6 km/h (3 Bft) W-SW 242 0 min 0,000 mm 0,7 UV-I 237 W/m 8,0 C 7,0 C 29,0 km/h (5 Bft) 94,00 %
08.04.2019 16:58 12,3 C 10,6 C 15,0 C 76 % 1007,8 hPa 0,0 l/m 15,1 km/h (3 Bft) W 273 0 min 0,000 mm 0,7 UV-I 234 W/m 8,2 C 7,9 C 22,5 km/h (4 Bft) 95,74 %
08.04.2019 17:00 12,3 C 10,6 C 15,6 C 76 % 1007,8 hPa 0,0 l/m 15,5 km/h (3 Bft) S-SW 211 2 min 0,000 mm 0,7 UV-I 250 W/m 8,2 C 7,7 C 25,7 km/h (4 Bft) 97,87 %
08.04.2019 17:02 12,3 C 10,6 C 15,6 C 76 % 1007,8 hPa 0,0 l/m 14,9 km/h (3 Bft) W-SW 248 2 min 0,178 mm 0,7 UV-I 258 W/m 8,2 C 8,0 C 25,7 km/h (4 Bft) 97,56 %
08.04.2019 17:04 12,3 C 10,6 C 15,0 C 75 % 1007,7 hPa 0,0 l/m 17,5 km/h (3 Bft) W-SW 243 0 min 0,000 mm 0,7 UV-I 231 W/m 8,0 C 7,0 C 25,7 km/h (4 Bft) 97,87 %
08.04.2019 17:06 12,2 C 10,6 C 15,0 C 75 % 1007,8 hPa 0,0 l/m 15,6 km/h (3 Bft) SW 236 2 min 0,000 mm 0,7 UV-I 234 W/m 7,9 C 7,6 C 20,9 km/h (4 Bft) 98,00 %
08.04.2019 17:08 12,2 C 10,6 C 15,0 C 76 % 1007,7 hPa 0,0 l/m 13,6 km/h (3 Bft) S-SW 208 2 min 0,000 mm 0,7 UV-I 255 W/m 8,1 C 8,4 C 27,4 km/h (4 Bft) 97,37 %
08.04.2019 17:10 12,2 C 10,6 C 15,6 C 76 % 1007,8 hPa 0,0 l/m 16,4 km/h (3 Bft) SW 226 2 min 0,000 mm 0,7 UV-I 271 W/m 8,1 C 7,3 C 27,4 km/h (4 Bft) 97,87 %
08.04.2019 17:12 12,2 C 10,6 C 15,6 C 76 % 1007,8 hPa 0,0 l/m 15,9 km/h (3 Bft) W-SW 244 2 min 0,000 mm 0,7 UV-I 282 W/m 8,1 C 7,5 C 25,7 km/h (4 Bft) 97,62 %
08.04.2019 17:14 12,3 C 10,6 C 16,1 C 76 % 1007,8 hPa 0,0 l/m 13,5 km/h (3 Bft) S-SW 202 2 min 0,000 mm 0,7 UV-I 289 W/m 8,2 C 8,5 C 25,7 km/h (4 Bft) 95,74 %
08.04.2019 17:16 12,3 C 10,6 C 16,1 C 75 % 1007,8 hPa 0,0 l/m 17,3 km/h (3 Bft) SW 229 2 min 0,000 mm 0,7 UV-I 302 W/m 8,0 C 7,1 C 25,7 km/h (4 Bft) 98,11 %
08.04.2019 17:18 12,3 C 10,6 C 16,1 C 76 % 1007,8 hPa 0,0 l/m 16,3 km/h (3 Bft) S-SW 212 2 min 0,000 mm 0,6 UV-I 301 W/m 8,2 C 7,4 C 25,7 km/h (4 Bft) 97,87 %
08.04.2019 17:20 12,3 C 10,6 C 16,1 C 75 % 1007,8 hPa 0,0 l/m 15,8 km/h (3 Bft) SW 224 2 min 0,000 mm 0,6 UV-I 294 W/m 8,0 C 7,6 C 25,7 km/h (4 Bft) 100,00 %
08.04.2019 17:22 12,3 C 10,6 C 16,1 C 75 % 1007,8 hPa 0,0 l/m 15,5 km/h (3 Bft) S-SW 195 2 min 0,000 mm 0,6 UV-I 291 W/m 8,0 C 7,7 C 24,1 km/h (4 Bft) 100,00 %
08.04.2019 17:24 12,3 C 10,6 C 15,6 C 75 % 1007,8 hPa 0,0 l/m 16,5 km/h (3 Bft) SW 234 2 min 0,000 mm 0,6 UV-I 271 W/m 8,0 C 7,4 C 25,7 km/h (4 Bft) 100,00 %
08.04.2019 17:26 12,3 C 10,6 C 15,6 C 75 % 1007,8 hPa 0,0 l/m 16,7 km/h (3 Bft) SW 233 2 min 0,000 mm 0,6 UV-I 263 W/m 8,0 C 7,3 C 25,7 km/h (4 Bft) 100,00 %
08.04.2019 17:28 12,2 C 10,6 C 15,0 C 75 % 1007,8 hPa 0,0 l/m 14,8 km/h (3 Bft) SW 235 2 min 0,000 mm 0,6 UV-I 274 W/m 7,9 C 7,9 C 19,3 km/h (3 Bft) 97,73 %
08.04.2019 17:30 12,2 C 10,6 C 14,4 C 75 % 1007,8 hPa 0,0 l/m 16,1 km/h (3 Bft) S-SW 207 2 min 0,000 mm 0,5 UV-I 271 W/m 7,9 C 7,4 C 25,7 km/h (4 Bft) 97,87 %
08.04.2019 17:32 12,3 C 10,6 C 14,4 C 75 % 1007,8 hPa 0,0 l/m 15,2 km/h (3 Bft) SW 236 2 min 0,000 mm 0,5 UV-I 260 W/m 8,0 C 7,8 C 24,1 km/h (4 Bft) 97,37 %
08.04.2019 17:34 12,3 C 10,6 C 14,4 C 75 % 1007,8 hPa 0,0 l/m 16,7 km/h (3 Bft) W-SW 254 2 min 0,000 mm 0,5 UV-I 253 W/m 8,0 C 7,3 C 29,0 km/h (5 Bft) 98,11 %
08.04.2019 17:36 12,3 C 10,6 C 14,4 C 75 % 1007,9 hPa 0,0 l/m 14,3 km/h (3 Bft) SW 220 2 min 0,000 mm 0,5 UV-I 248 W/m 8,0 C 8,2 C 19,3 km/h (3 Bft) 98,00 %
08.04.2019 17:38 12,3 C 10,6 C 13,9 C 75 % 1007,8 hPa 0,0 l/m 14,4 km/h (3 Bft) S-SW 204 2 min 0,000 mm 0,5 UV-I 237 W/m 8,0 C 8,2 C 20,9 km/h (4 Bft) 92,11 %
08.04.2019 17:40 12,3 C 10,6 C 13,9 C 76 % 1007,9 hPa 0,0 l/m 12,6 km/h (3 Bft) W 260 2 min 0,000 mm 0,5 UV-I 221 W/m 8,2 C 8,9 C 20,9 km/h (4 Bft) 96,00 %
08.04.2019 17:42 12,2 C 10,6 C 13,3 C 76 % 1007,9 hPa 0,0 l/m 16,8 km/h (3 Bft) SW 227 2 min 0,000 mm 0,0 UV-I 221 W/m 8,1 C 7,1 C 24,1 km/h (4 Bft) 95,45 %
08.04.2019 17:44 12,1 C 10,6 C 13,3 C 76 % 1007,9 hPa 0,0 l/m 12,8 km/h (3 Bft) SW 234 2 min 0,000 mm 0,0 UV-I 219 W/m 8,0 C 8,6 C 24,1 km/h (4 Bft) 98,00 %
08.04.2019 17:46 12,1 C 10,6 C 13,3 C 76 % 1007,9 hPa 0,0 l/m 12,7 km/h (3 Bft) W-SW 249 2 min 0,000 mm 0,0 UV-I 215 W/m 8,0 C 8,6 C 22,5 km/h (4 Bft) 98,00 %
08.04.2019 17:48 12,1 C 10,6 C 13,3 C 76 % 1007,9 hPa 0,0 l/m 12,0 km/h (2 Bft) S-SW 211 2 min 0,000 mm 0,0 UV-I 215 W/m 8,0 C 8,9 C 17,7 km/h (3 Bft) 97,56 %
08.04.2019 17:50 12,1 C 10,6 C 13,3 C 77 % 1007,9 hPa 0,0 l/m 15,4 km/h (3 Bft) S-SW 209 2 min 0,000 mm 0,0 UV-I 211 W/m 8,2 C 7,5 C 22,5 km/h (4 Bft) 98,21 %
08.04.2019 17:52 12,2 C 10,6 C 13,3 C 77 % 1008,0 hPa 0,0 l/m 13,9 km/h (3 Bft) SW 227 2 min 0,000 mm 0,0 UV-I 207 W/m 8,3 C 8,2 C 19,3 km/h (3 Bft) 97,37 %
08.04.2019 17:54 12,2 C 10,6 C 13,3 C 76 % 1008,0 hPa 0,0 l/m 13,3 km/h (3 Bft) W-SW 243 2 min 0,000 mm 0,0 UV-I 202 W/m 8,1 C 8,5 C 24,1 km/h (4 Bft) 98,11 %
08.04.2019 17:56 12,2 C 10,6 C 13,3 C 77 % 1008,0 hPa 0,0 l/m 16,0 km/h (3 Bft) W-SW 243 2 min 0,000 mm 0,0 UV-I 198 W/m 8,3 C 7,4 C 20,9 km/h (4 Bft) 97,78 %
08.04.2019 17:58 12,2 C 10,6 C 13,3 C 77 % 1008,0 hPa 0,0 l/m 10,1 km/h (2 Bft) W-SW 257 2 min 0,000 mm 0,0 UV-I 197 W/m 8,3 C 10,0 C 17,7 km/h (3 Bft) 100,00 %
08.04.2019 18:00 12,2 C 10,6 C 13,3 C 77 % 1008,0 hPa 0,0 l/m 13,5 km/h (3 Bft) S-SW 196 2 min 0,152 mm 0,0 UV-I 198 W/m 8,3 C 8,4 C 20,9 km/h (4 Bft) 100,00 %
08.04.2019 18:02 12,1 C 10,6 C 12,8 C 76 % 1008,0 hPa 0,0 l/m 11,9 km/h (2 Bft) S-SW 192 2 min 0,000 mm 0,0 UV-I 197 W/m 8,0 C 9,0 C 17,7 km/h (3 Bft) 98,11 %
08.04.2019 18:04 12,1 C 10,6 C 13,3 C 77 % 1008,0 hPa 0,0 l/m 12,2 km/h (2 Bft) SW 236 2 min 0,000 mm 0,0 UV-I 193 W/m 8,2 C 8,8 C 19,3 km/h (3 Bft) 100,00 %
08.04.2019 18:06 12,1 C 10,6 C 13,3 C 77 % 1008,0 hPa 0,0 l/m 13,7 km/h (3 Bft) W-SW 238 2 min 0,000 mm 0,0 UV-I 188 W/m 8,2 C 8,2 C 22,5 km/h (4 Bft) 98,21 %
08.04.2019 18:08 12,1 C 10,6 C 12,8 C 76 % 1008,0 hPa 0,0 l/m 14,8 km/h (3 Bft) SW 231 2 min 0,000 mm 0,0 UV-I 176 W/m 8,0 C 7,8 C 20,9 km/h (4 Bft) 100,00 %
08.04.2019 18:10 12,0 C 10,6 C 12,8 C 77 % 1008,0 hPa 0,0 l/m 11,6 km/h (2 Bft) S-SW 210 2 min 0,000 mm 0,0 UV-I 165 W/m 8,1 C 9,0 C 19,3 km/h (3 Bft) 100,00 %
08.04.2019 18:12 11,9 C 10,6 C 12,8 C 77 % 1008,0 hPa 0,0 l/m 14,9 km/h (3 Bft) W-SW 244 2 min 0,000 mm 0,0 UV-I 158 W/m 8,0 C 7,5 C 29,0 km/h (5 Bft) 100,00 %
08.04.2019 18:14 11,9 C 10,6 C 12,8 C 76 % 1008,1 hPa 0,0 l/m 13,0 km/h (3 Bft) S-SW 212 2 min 0,000 mm 0,0 UV-I 152 W/m 7,8 C 8,3 C 22,5 km/h (4 Bft) 100,00 %
08.04.2019 18:16 11,8 C 10,6 C 12,2 C 77 % 1008,1 hPa 0,0 l/m 14,8 km/h (3 Bft) W-SW 257 2 min 0,000 mm 0,0 UV-I 147 W/m 7,9 C 7,4 C 22,5 km/h (4 Bft) 100,00 %
08.04.2019 18:18 11,7 C 10,6 C 12,2 C 77 % 1008,1 hPa 0,0 l/m 16,8 km/h (3 Bft) SW 225 2 min 0,000 mm 0,0 UV-I 144 W/m 7,8 C 6,5 C 24,1 km/h (4 Bft) 100,00 %
08.04.2019 18:20 11,7 C 10,6 C 12,2 C 77 % 1008,1 hPa 0,0 l/m 18,3 km/h (3 Bft) W-SW 247 2 min 0,000 mm 0,0 UV-I 142 W/m 7,8 C 6,0 C 24,1 km/h (4 Bft) 98,21 %
08.04.2019 18:22 11,6 C 10,6 C 12,2 C 77 % 1008,1 hPa 0,0 l/m 14,2 km/h (3 Bft) W-SW 258 2 min 0,000 mm 0,0 UV-I 139 W/m 7,7 C 7,4 C 20,9 km/h (4 Bft) 100,00 %
08.04.2019 18:24 11,6 C 10,6 C 12,2 C 77 % 1008,1 hPa 0,0 l/m 14,4 km/h (3 Bft) W-SW 240 2 min 0,000 mm 0,0 UV-I 138 W/m 7,7 C 7,3 C 24,1 km/h (4 Bft) 94,00 %
08.04.2019 18:26 11,6 C 10,6 C 12,2 C 77 % 1008,1 hPa 0,0 l/m 14,3 km/h (3 Bft) SW 227 2 min 0,000 mm 0,0 UV-I 137 W/m 7,7 C 7,4 C 22,5 km/h (4 Bft) 97,73 %
08.04.2019 18:28 11,5 C 10,6 C 12,2 C 77 % 1008,1 hPa 0,0 l/m 19,8 km/h (3 Bft) W-SW 240 2 min 0,000 mm 0,0 UV-I 135 W/m 7,6 C 5,3 C 29,0 km/h (5 Bft) 100,00 %
08.04.2019 18:30 11,5 C 10,6 C 12,2 C 78 % 1008,1 hPa 0,0 l/m 15,3 km/h (3 Bft) W-SW 250 2 min 0,000 mm 0,0 UV-I 130 W/m 7,8 C 6,8 C 30,6 km/h (5 Bft) 97,56 %
08.04.2019 18:32 11,4 C 10,6 C 11,7 C 77 % 1008,1 hPa 0,0 l/m 22,0 km/h (4 Bft) SW 222 2 min 0,000 mm 0,0 UV-I 128 W/m 7,5 C 4,5 C 27,4 km/h (4 Bft) 100,00 %
08.04.2019 18:34 11,4 C 10,6 C 11,7 C 77 % 1008,1 hPa 0,0 l/m 13,1 km/h (3 Bft) W-SW 241 2 min 0,000 mm 0,0 UV-I 126 W/m 7,5 C 7,6 C 20,9 km/h (4 Bft) 100,00 %
08.04.2019 18:36 11,4 C 10,6 C 11,7 C 77 % 1008,1 hPa 0,0 l/m 14,2 km/h (3 Bft) W-SW 242 2 min 0,000 mm 0,0 UV-I 122 W/m 7,5 C 7,2 C 20,9 km/h (4 Bft) 100,00 %
08.04.2019 18:38 11,4 C 10,6 C 11,7 C 78 % 1008,1 hPa 0,0 l/m 17,3 km/h (3 Bft) SW 235 2 min 0,000 mm 0,0 UV-I 119 W/m 7,7 C 6,0 C 29,0 km/h (5 Bft) 100,00 %
08.04.2019 18:40 11,4 C 10,6 C 11,7 C 78 % 1008,1 hPa 0,0 l/m 12,4 km/h (3 Bft) SW 221 2 min 0,000 mm 0,0 UV-I 112 W/m 7,7 C 7,9 C 17,7 km/h (3 Bft) 100,00 %
08.04.2019 18:42 11,4 C 10,6 C 11,7 C 78 % 1008,1 hPa 0,0 l/m 12,5 km/h (3 Bft) W-SW 253 2 min 0,000 mm 0,0 UV-I 104 W/m 7,7 C 7,9 C 19,3 km/h (3 Bft) 97,87 %
08.04.2019 18:44 11,3 C 10,6 C 11,7 C 78 % 1008,1 hPa 0,0 l/m 12,8 km/h (3 Bft) S-SW 200 2 min 0,000 mm 0,0 UV-I 98 W/m 7,6 C 7,6 C 20,9 km/h (4 Bft) 95,74 %
08.04.2019 18:46 11,3 C 10,6 C 11,7 C 78 % 1008,1 hPa 0,0 l/m 13,5 km/h (3 Bft) SW 232 2 min 0,000 mm 0,0 UV-I 92 W/m 7,6 C 7,3 C 22,5 km/h (4 Bft) 97,56 %
08.04.2019 18:48 11,2 C 10,6 C 11,1 C 78 % 1008,1 hPa 0,0 l/m 13,0 km/h (3 Bft) S-SW 211 2 min 0,000 mm 0,0 UV-I 88 W/m 7,5 C 7,4 C 19,3 km/h (3 Bft) 96,23 %
08.04.2019 18:50 11,2 C 10,6 C 11,1 C 78 % 1008,1 hPa 0,0 l/m 15,4 km/h (3 Bft) W 264 2 min 0,000 mm 0,0 UV-I 84 W/m 7,5 C 6,4 C 22,5 km/h (4 Bft) 97,73 %
08.04.2019 18:52 11,1 C 10,6 C 11,1 C 79 % 1008,1 hPa 0,0 l/m 11,2 km/h (2 Bft) W 259 2 min 0,000 mm 0,0 UV-I 80 W/m 7,6 C 8,2 C 17,7 km/h (3 Bft) 94,34 %
08.04.2019 18:54 11,0 C 10,6 C 11,1 C 79 % 1008,1 hPa 0,0 l/m 20,2 km/h (4 Bft) W-SW 251 2 min 0,000 mm 0,0 UV-I 78 W/m 7,5 C 4,5 C 27,4 km/h (4 Bft) 94,74 %
08.04.2019 18:56 10,9 C 10,6 C 11,1 C 79 % 1008,0 hPa 0,0 l/m 18,0 km/h (3 Bft) W-SW 251 2 min 0,000 mm 0,0 UV-I 74 W/m 7,4 C 5,1 C 25,7 km/h (4 Bft) 95,74 %
08.04.2019 18:58 10,9 C 10,6 C 10,6 C 79 % 1008,1 hPa 0,0 l/m 12,2 km/h (2 Bft) W-SW 239 2 min 0,000 mm 0,0 UV-I 71 W/m 7,4 C 7,5 C 19,3 km/h (3 Bft) 94,34 %
08.04.2019 19:00 10,9 C 10,6 C 10,6 C 79 % 1008,0 hPa 0,0 l/m 13,7 km/h (3 Bft) W 263 2 min 0,000 mm 0,0 UV-I 69 W/m 7,4 C 6,8 C 22,5 km/h (4 Bft) 94,74 %
08.04.2019 19:02 10,8 C 10,6 C 10,6 C 79 % 1008,0 hPa 0,0 l/m 17,6 km/h (3 Bft) W-SW 243 2 min 0,102 mm 0,0 UV-I 65 W/m 7,3 C 5,1 C 25,7 km/h (4 Bft) 94,64 %
08.04.2019 19:04 10,8 C 10,6 C 10,6 C 79 % 1008,0 hPa 0,0 l/m 16,1 km/h (3 Bft) W-SW 240 2 min 0,000 mm 0,0 UV-I 63 W/m 7,3 C 5,7 C 22,5 km/h (4 Bft) 95,12 %
08.04.2019 19:06 10,8 C 10,6 C 10,6 C 79 % 1008,0 hPa 0,0 l/m 17,1 km/h (3 Bft) W-SW 248 2 min 0,000 mm 0,0 UV-I 61 W/m 7,3 C 5,3 C 25,7 km/h (4 Bft) 96,23 %
08.04.2019 19:08 10,7 C 10,6 C 10,6 C 80 % 1008,1 hPa 0,0 l/m 13,0 km/h (3 Bft) SW 227 2 min 0,000 mm 0,0 UV-I 57 W/m 7,4 C 6,8 C 20,9 km/h (4 Bft) 93,62 %
08.04.2019 19:10 10,7 C 10,6 C 10,6 C 80 % 1008,1 hPa 0,0 l/m 12,8 km/h (3 Bft) SW 225 2 min 0,000 mm 0,0 UV-I 53 W/m 7,4 C 6,9 C 19,3 km/h (3 Bft) 96,00 %
08.04.2019 19:12 10,7 C 10,6 C 10,0 C 80 % 1008,2 hPa 0,0 l/m 13,8 km/h (3 Bft) W-SW 242 2 min 0,000 mm 0,0 UV-I 49 W/m 7,4 C 6,5 C 19,3 km/h (3 Bft) 94,87 %
08.04.2019 19:14 10,6 C 10,6 C 10,0 C 80 % 1008,2 hPa 0,0 l/m 12,4 km/h (3 Bft) W-SW 252 2 min 0,000 mm 0,0 UV-I 45 W/m 7,3 C 7,0 C 19,3 km/h (3 Bft) 96,00 %
08.04.2019 19:16 10,6 C 10,6 C 10,0 C 80 % 1008,2 hPa 0,0 l/m 13,5 km/h (3 Bft) W-SW 249 2 min 0,000 mm 0,0 UV-I 41 W/m 7,3 C 6,5 C 22,5 km/h (4 Bft) 96,00 %
08.04.2019 19:18 10,6 C 10,6 C 10,0 C 80 % 1008,2 hPa 0,0 l/m 13,1 km/h (3 Bft) W 262 2 min 0,000 mm 0,0 UV-I 38 W/m 7,3 C 6,7 C 22,5 km/h (4 Bft) 97,37 %
08.04.2019 19:20 10,5 C 10,6 C 10,0 C 80 % 1008,2 hPa 0,0 l/m 13,5 km/h (3 Bft) SW 223 2 min 0,000 mm 0,0 UV-I 34 W/m 7,2 C 6,4 C 22,5 km/h (4 Bft) 100,00 %
08.04.2019 19:22 10,5 C 10,6 C 10,0 C 80 % 1008,2 hPa 0,0 l/m 11,1 km/h (2 Bft) SW 236 2 min 0,000 mm 0,0 UV-I 30 W/m 7,2 C 7,5 C 17,7 km/h (3 Bft) 100,00 %
08.04.2019 19:24 10,5 C 10,6 C 9,4 C 80 % 1008,3 hPa 0,0 l/m 12,4 km/h (3 Bft) W-SW 244 2 min 0,000 mm 0,0 UV-I 27 W/m 7,2 C 6,9 C 19,3 km/h (3 Bft) 100,00 %
08.04.2019 19:26 10,4 C 10,6 C 9,4 C 81 % 1008,2 hPa 0,0 l/m 12,6 km/h (3 Bft) W-SW 239 2 min 0,000 mm 0,0 UV-I 24 W/m 7,3 C 6,7 C 17,7 km/h (3 Bft) 100,00 %
08.04.2019 19:28 10,4 C 10,6 C 9,4 C 81 % 1008,3 hPa 0,0 l/m 12,6 km/h (3 Bft) W-SW 241 2 min 0,000 mm 0,0 UV-I 21 W/m 7,3 C 6,7 C 19,3 km/h (3 Bft) 100,00 %
08.04.2019 19:30 10,4 C 10,6 C 9,4 C 81 % 1008,3 hPa 0,0 l/m 13,0 km/h (3 Bft) W-SW 237 2 min 0,000 mm 0,0 UV-I 18 W/m 7,3 C 6,5 C 19,3 km/h (3 Bft) 100,00 %
08.04.2019 19:32 10,3 C 10,6 C 9,4 C 81 % 1008,4 hPa 0,0 l/m 10,0 km/h (2 Bft) W-SW 237 2 min 0,000 mm 0,0 UV-I 16 W/m 7,2 C 7,9 C 16,1 km/h (3 Bft) 100,00 %
08.04.2019 19:34 10,3 C 10,6 C 9,4 C 81 % 1008,4 hPa 0,0 l/m 12,9 km/h (3 Bft) W-SW 255 0 min 0,000 mm 0,0 UV-I 14 W/m 7,2 C 6,4 C 17,7 km/h (3 Bft) 100,00 %
08.04.2019 19:36 10,3 C 10,6 C 8,9 C 81 % 1008,4 hPa 0,0 l/m 12,0 km/h (2 Bft) W-SW 238 0 min 0,000 mm 0,0 UV-I 12 W/m 7,2 C 6,9 C 17,7 km/h (3 Bft) 97,73 %
08.04.2019 19:39 10,2 C 10,6 C 8,9 C 81 % 1008,5 hPa 0,0 l/m 12,9 km/h (3 Bft) W-SW 244 0 min 0,000 mm 0,0 UV-I 10 W/m 7,1 C 6,3 C 19,3 km/h (3 Bft) 100,00 %
08.04.2019 19:40 10,2 C 10,6 C 8,9 C 81 % 1008,5 hPa 0,0 l/m 10,7 km/h (2 Bft) W-SW 251 0 min 0,000 mm 0,0 UV-I 8 W/m 7,1 C 7,4 C 14,5 km/h (3 Bft) 100,00 %
08.04.2019 19:42 10,2 C 10,6 C 8,9 C 82 % 1008,5 hPa 0,0 l/m 11,3 km/h (2 Bft) W-SW 244 0 min 0,000 mm 0,0 UV-I 7 W/m 7,3 C 7,1 C 16,1 km/h (3 Bft) 100,00 %
08.04.2019 19:44 10,2 C 10,6 C 9,4 C 82 % 1008,5 hPa 0,0 l/m 11,5 km/h (2 Bft) SW 234 0 min 0,000 mm 0,0 UV-I 6 W/m 7,3 C 7,0 C 17,7 km/h (3 Bft) 100,00 %
08.04.2019 19:46 10,2 C 10,6 C 8,9 C 82 % 1008,5 hPa 0,0 l/m 10,1 km/h (2 Bft) SW 234 0 min 0,000 mm 0,0 UV-I 5 W/m 7,3 C 7,8 C 14,5 km/h (3 Bft) 100,00 %
08.04.2019 19:48 10,2 C 10,6 C 9,4 C 82 % 1008,5 hPa 0,0 l/m 12,2 km/h (2 Bft) SW 230 0 min 0,000 mm 0,0 UV-I 5 W/m 7,3 C 6,6 C 16,1 km/h (3 Bft) 100,00 %
08.04.2019 19:50 10,2 C 10,6 C 9,4 C 82 % 1008,5 hPa 0,0 l/m 13,2 km/h (3 Bft) W-SW 246 0 min 0,000 mm 0,0 UV-I 5 W/m 7,3 C 6,2 C 20,9 km/h (4 Bft) 100,00 %
08.04.2019 19:52 10,2 C 10,6 C 9,4 C 82 % 1008,6 hPa 0,0 l/m 10,8 km/h (2 Bft) W-SW 254 0 min 0,000 mm 0,0 UV-I 5 W/m 7,3 C 7,4 C 16,1 km/h (3 Bft) 100,00 %
08.04.2019 19:54 10,2 C 10,6 C 9,4 C 82 % 1008,6 hPa 0,0 l/m 12,2 km/h (2 Bft) W 275 0 min 0,000 mm 0,0 UV-I 1 W/m 7,3 C 6,6 C 17,7 km/h (3 Bft) 100,00 %
08.04.2019 19:56 10,2 C 10,6 C 9,4 C 82 % 1008,6 hPa 0,0 l/m 10,9 km/h (2 Bft) W-SW 250 0 min 0,000 mm 0,0 UV-I 0 W/m 7,3 C 7,3 C 17,7 km/h (3 Bft) 100,00 %
08.04.2019 19:58 10,2 C 10,6 C 9,4 C 82 % 1008,6 hPa 0,0 l/m 11,2 km/h (2 Bft) W 271 0 min 0,000 mm 0,0 UV-I 0 W/m 7,3 C 7,2 C 17,7 km/h (3 Bft) 100,00 %
08.04.2019 20:00 10,2 C 10,6 C 9,4 C 82 % 1008,6 hPa 0,0 l/m 13,0 km/h (3 Bft) W 269 0 min 0,000 mm 0,0 UV-I 0 W/m 7,3 C 6,3 C 17,7 km/h (3 Bft) 100,00 %
08.04.2019 20:02 10,2 C 10,6 C 9,4 C 82 % 1008,7 hPa 0,0 l/m 12,8 km/h (3 Bft) W 270 0 min 0,051 mm 0,0 UV-I 0 W/m 7,3 C 6,4 C 14,5 km/h (3 Bft) 100,00 %
08.04.2019 20:04 10,2 C 10,6 C 9,4 C 82 % 1008,7 hPa 0,0 l/m 12,0 km/h (2 Bft) SW 232 0 min 0,000 mm 0,0 UV-I 0 W/m 7,3 C 6,7 C 16,1 km/h (3 Bft) 100,00 %
08.04.2019 20:06 10,2 C 10,6 C 9,4 C 82 % 1008,8 hPa 0,0 l/m 10,1 km/h (2 Bft) W-SW 238 0 min 0,000 mm 0,0 UV-I 0 W/m 7,3 C 7,8 C 16,1 km/h (3 Bft) 100,00 %
08.04.2019 20:08 10,1 C 10,6 C 9,4 C 82 % 1008,8 hPa 0,0 l/m 11,1 km/h (2 Bft) W-SW 257 0 min 0,000 mm 0,0 UV-I 0 W/m 7,2 C 7,1 C 16,1 km/h (3 Bft) 100,00 %
08.04.2019 20:10 10,1 C 10,6 C 8,9 C 82 % 1008,8 hPa 0,0 l/m 7,8 km/h (2 Bft) W 267 0 min 0,000 mm 0,0 UV-I 0 W/m 7,2 C 9,1 C 12,9 km/h (3 Bft) 100,00 %
08.04.2019 20:12 10,1 C 10,6 C 8,9 C 82 % 1008,8 hPa 0,0 l/m 10,3 km/h (2 Bft) W 261 0 min 0,000 mm 0,0 UV-I 0 W/m 7,2 C 7,5 C 14,5 km/h (3 Bft) 98,11 %
08.04.2019 20:14 10,0 C 10,6 C 9,4 C 82 % 1008,8 hPa 0,0 l/m 10,6 km/h (2 Bft) W 276 0 min 0,000 mm 0,0 UV-I 0 W/m 7,1 C 7,3 C 14,5 km/h (3 Bft) 95,45 %
08.04.2019 20:16 10,1 C 10,6 C 9,4 C 82 % 1008,9 hPa 0,0 l/m 11,1 km/h (2 Bft) W 273 0 min 0,000 mm 0,0 UV-I 0 W/m 7,2 C 7,1 C 16,1 km/h (3 Bft) 96,00 %
08.04.2019 20:18 10,1 C 10,6 C 9,4 C 82 % 1009,0 hPa 0,0 l/m 8,9 km/h (2 Bft) SW 233 0 min 0,000 mm 0,0 UV-I 0 W/m 7,2 C 8,4 C 12,9 km/h (3 Bft) 92,00 %
08.04.2019 20:20 10,1 C 10,6 C 9,4 C 82 % 1009,0 hPa 0,0 l/m 7,8 km/h (2 Bft) W 263 0 min 0,000 mm 0,0 UV-I 0 W/m 7,2 C 9,1 C 12,9 km/h (3 Bft) 97,56 %
08.04.2019 20:22 10,1 C 10,6 C 9,4 C 82 % 1009,0 hPa 0,0 l/m 8,5 km/h (2 Bft) W 267 0 min 0,000 mm 0,0 UV-I 0 W/m 7,2 C 8,6 C 14,5 km/h (3 Bft) 93,18 %
08.04.2019 20:24 10,1 C 10,6 C 9,4 C 83 % 1009,0 hPa 0,0 l/m 9,8 km/h (2 Bft) W 261 0 min 0,000 mm 0,0 UV-I 0 W/m 7,3 C 7,8 C 12,9 km/h (3 Bft) 96,23 %
08.04.2019 20:26 10,1 C 10,6 C 9,4 C 83 % 1009,0 hPa 0,0 l/m 10,2 km/h (2 Bft) W-SW 250 0 min 0,000 mm 0,0 UV-I 0 W/m 7,3 C 7,6 C 12,9 km/h (3 Bft) 94,87 %
08.04.2019 20:28 10,1 C 10,6 C 9,4 C 82 % 1009,0 hPa 0,0 l/m 7,2 km/h (2 Bft) W 264 0 min 0,000 mm 0,0 UV-I 0 W/m 7,2 C 9,5 C 12,9 km/h (3 Bft) 96,23 %
08.04.2019 20:30 10,1 C 10,6 C 9,4 C 83 % 1009,1 hPa 0,0 l/m 8,2 km/h (2 Bft) W-SW 258 0 min 0,000 mm 0,0 UV-I 0 W/m 7,3 C 8,8 C 16,1 km/h (3 Bft) 95,65 %
08.04.2019 20:32 10,1 C 10,6 C 9,4 C 83 % 1009,1 hPa 0,0 l/m 8,5 km/h (2 Bft) W-SW 257 0 min 0,000 mm 0,0 UV-I 0 W/m 7,3 C 8,6 C 12,9 km/h (3 Bft) 95,38 %
08.04.2019 20:34 10,1 C 10,6 C 9,4 C 83 % 1009,1 hPa 0,0 l/m 9,5 km/h (2 Bft) W-SW 248 0 min 0,000 mm 0,0 UV-I 0 W/m 7,3 C 8,0 C 16,1 km/h (3 Bft) 95,74 %
08.04.2019 20:36 10,1 C 10,6 C 9,4 C 83 % 1009,1 hPa 0,0 l/m 8,5 km/h (2 Bft) W 264 0 min 0,000 mm 0,0 UV-I 0 W/m 7,3 C 8,6 C 12,9 km/h (3 Bft) 96,00 %
08.04.2019 20:38 10,1 C 10,6 C 9,4 C 83 % 1009,1 hPa 0,0 l/m 8,8 km/h (2 Bft) W-SW 246 0 min 0,000 mm 0,0 UV-I 0 W/m 7,3 C 8,4 C 11,3 km/h (2 Bft) 89,66 %
08.04.2019 20:40 10,1 C 0,0 C 9,4 C 83 % 1009,1 hPa 0,0 l/m 9,7 km/h (2 Bft) W-SW 247 0 min 0,000 mm 0,0 UV-I 0 W/m 7,3 C 7,9 C 16,1 km/h (3 Bft) 100,00 %
08.04.2019 20:45 10,1 C 0,0 C 9,4 C 83 % 1009,1 hPa 0,0 l/m 11,3 km/h (2 Bft) W-SW 247 0 min 0,000 mm 0,0 UV-I 0 W/m 7,3 C 7,0 C 16,1 km/h (3 Bft) 100,00 %
08.04.2019 20:50 10,1 C 0,0 C 9,4 C 83 % 1009,1 hPa 0,0 l/m 8,5 km/h (2 Bft) W-SW 257 0 min 0,000 mm 0,0 UV-I 0 W/m 7,3 C 8,6 C 11,3 km/h (2 Bft) 88,89 %
08.04.2019 20:52 10,1 C 0,0 C 9,4 C 83 % 1009,1 hPa 0,0 l/m 9,7 km/h (2 Bft) W-SW 241 0 min 0,000 mm 0,0 UV-I 0 W/m 7,3 C 7,9 C 14,5 km/h (3 Bft) 94,00 %
08.04.2019 20:54 10,2 C 0,0 C 9,4 C 83 % 1009,1 hPa 0,0 l/m 10,7 km/h (2 Bft) W-NW 282 0 min 0,000 mm 0,0 UV-I 0 W/m 7,4 C 7,4 C 16,1 km/h (3 Bft) 95,45 %
08.04.2019 20:56 10,2 C 0,0 C 9,4 C 83 % 1009,1 hPa 0,0 l/m 11,3 km/h (2 Bft) W-SW 238 0 min 0,000 mm 0,0 UV-I 0 W/m 7,4 C 7,1 C 16,1 km/h (3 Bft) 97,87 %
08.04.2019 20:58 10,2 C 0,0 C 9,4 C 83 % 1009,1 hPa 0,0 l/m 10,9 km/h (2 Bft) W 260 0 min 0,000 mm 0,0 UV-I 0 W/m 7,4 C 7,3 C 16,1 km/h (3 Bft) 95,12 %
08.04.2019 21:00 10,2 C 0,0 C 10,0 C 83 % 1009,2 hPa 0,0 l/m 11,9 km/h (2 Bft) W 269 0 min 0,000 mm 0,0 UV-I 0 W/m 7,4 C 6,8 C 16,1 km/h (3 Bft) 96,43 %
08.04.2019 21:02 10,2 C 0,0 C 10,0 C 83 % 1009,2 hPa 0,0 l/m 8,1 km/h (2 Bft) W-SW 248 0 min 0,025 mm 0,0 UV-I 0 W/m 7,4 C 9,0 C 14,5 km/h (3 Bft) 93,18 %
08.04.2019 21:04 10,2 C 0,0 C 10,0 C 83 % 1009,2 hPa 0,0 l/m 8,8 km/h (2 Bft) W-SW 243 0 min 0,000 mm 0,0 UV-I 0 W/m 7,4 C 8,5 C 12,9 km/h (3 Bft) 92,00 %
08.04.2019 21:06 10,2 C 0,0 C 10,0 C 83 % 1009,3 hPa 0,0 l/m 9,1 km/h (2 Bft) SW 232 0 min 0,000 mm 0,0 UV-I 0 W/m 7,4 C 8,4 C 14,5 km/h (3 Bft) 92,59 %
08.04.2019 21:08 10,2 C 0,0 C 10,0 C 83 % 1009,3 hPa 0,0 l/m 10,1 km/h (2 Bft) SW 229 0 min 0,000 mm 0,0 UV-I 0 W/m 7,4 C 7,8 C 12,9 km/h (3 Bft) 94,29 %
08.04.2019 21:10 10,2 C 0,0 C 10,0 C 83 % 1009,3 hPa 0,0 l/m 8,3 km/h (2 Bft) W-SW 245 0 min 0,000 mm 0,0 UV-I 0 W/m 7,4 C 8,9 C 12,9 km/h (3 Bft) 94,87 %
08.04.2019 21:12 10,2 C 0,0 C 9,4 C 83 % 1009,3 hPa 0,0 l/m 8,0 km/h (2 Bft) SW 223 0 min 0,000 mm 0,0 UV-I 0 W/m 7,4 C 9,1 C 11,3 km/h (2 Bft) 96,36 %
08.04.2019 21:14 10,2 C 0,0 C 9,4 C 83 % 1009,3 hPa 0,0 l/m 8,4 km/h (2 Bft) SW 234 0 min 0,000 mm 0,0 UV-I 0 W/m 7,4 C 8,8 C 12,9 km/h (3 Bft) 95,24 %
08.04.2019 21:16 10,1 C 0,0 C 9,4 C 83 % 1009,3 hPa 0,0 l/m 9,3 km/h (2 Bft) SW 235 0 min 0,000 mm 0,0 UV-I 0 W/m 7,3 C 8,1 C 14,5 km/h (3 Bft) 97,87 %
08.04.2019 21:18 10,1 C 0,0 C 9,4 C 83 % 1009,3 hPa 0,0 l/m 8,2 km/h (2 Bft) W-SW 244 0 min 0,000 mm 0,0 UV-I 0 W/m 7,3 C 8,8 C 11,3 km/h (2 Bft) 98,00 %
08.04.2019 21:20 10,1 C 0,0 C 9,4 C 83 % 1009,3 hPa 0,0 l/m 11,1 km/h (2 Bft) SW 236 0 min 0,000 mm 0,0 UV-I 0 W/m 7,3 C 7,1 C 16,1 km/h (3 Bft) 100,00 %
08.04.2019 21:22 10,1 C 0,0 C 9,4 C 83 % 1009,3 hPa 0,0 l/m 9,5 km/h (2 Bft) W-SW 251 0 min 0,000 mm 0,0 UV-I 0 W/m 7,3 C 8,0 C 12,9 km/h (3 Bft) 98,00 %
08.04.2019 21:24 10,1 C 0,0 C 9,4 C 83 % 1009,3 hPa 0,0 l/m 8,5 km/h (2 Bft) W 267 0 min 0,000 mm 0,0 UV-I 0 W/m 7,3 C 8,6 C 16,1 km/h (3 Bft) 100,00 %
08.04.2019 21:26 10,1 C 0,0 C 9,4 C 83 % 1009,4 hPa 0,0 l/m 8,0 km/h (2 Bft) W-SW 257 0 min 0,000 mm 0,0 UV-I 0 W/m 7,3 C 9,0 C 12,9 km/h (3 Bft) 98,00 %
08.04.2019 21:28 10,1 C 0,0 C 9,4 C 83 % 1009,3 hPa 0,0 l/m 7,4 km/h (2 Bft) W-SW 255 0 min 0,000 mm 0,0 UV-I 0 W/m 7,3 C 9,4 C 11,3 km/h (2 Bft) 96,23 %
08.04.2019 21:30 10,1 C 0,0 C 9,4 C 83 % 1009,4 hPa 0,0 l/m 8,2 km/h (2 Bft) W 261 0 min 0,000 mm 0,0 UV-I 0 W/m 7,3 C 8,8 C 11,3 km/h (2 Bft) 98,00 %
08.04.2019 21:32 10,2 C 0,0 C 9,4 C 83 % 1009,4 hPa 0,0 l/m 9,4 km/h (2 Bft) W 267 0 min 0,000 mm 0,0 UV-I 0 W/m 7,4 C 8,2 C 12,9 km/h (3 Bft) 100,00 %
08.04.2019 21:34 10,1 C 0,0 C 9,4 C 83 % 1009,3 hPa 0,0 l/m 10,4 km/h (2 Bft) W-SW 241 0 min 0,000 mm 0,0 UV-I 0 W/m 7,3 C 7,5 C 16,1 km/h (3 Bft) 100,00 %
08.04.2019 21:36 10,1 C 0,0 C 9,4 C 83 % 1009,3 hPa 0,0 l/m 12,8 km/h (3 Bft) W 259 0 min 0,000 mm 0,0 UV-I 0 W/m 7,3 C 6,2 C 16,1 km/h (3 Bft) 100,00 %
08.04.2019 21:38 10,1 C 0,0 C 9,4 C 82 % 1009,4 hPa 0,0 l/m 10,7 km/h (2 Bft) W-SW 257 0 min 0,000 mm 0,0 UV-I 0 W/m 7,2 C 7,3 C 14,5 km/h (3 Bft) 94,34 %
08.04.2019 21:40 10,2 C 0,0 C 9,4 C 83 % 1009,4 hPa 0,0 l/m 10,3 km/h (2 Bft) W 260 0 min 0,000 mm 0,0 UV-I 0 W/m 7,4 C 7,6 C 12,9 km/h (3 Bft) 97,56 %
08.04.2019 21:42 10,1 C 0,0 C 9,4 C 82 % 1009,3 hPa 0,0 l/m 9,0 km/h (2 Bft) W 263 0 min 0,000 mm 0,0 UV-I 0 W/m 7,2 C 8,3 C 16,1 km/h (3 Bft) 97,62 %
08.04.2019 21:44 10,1 C 0,0 C 9,4 C 82 % 1009,3 hPa 0,0 l/m 9,1 km/h (2 Bft) W-SW 248 0 min 0,000 mm 0,0 UV-I 0 W/m 7,2 C 8,2 C 14,5 km/h (3 Bft) 98,00 %
08.04.2019 21:46 10,1 C 0,0 C 9,4 C 82 % 1009,3 hPa 0,0 l/m 9,2 km/h (2 Bft) W 267 0 min 0,000 mm 0,0 UV-I 0 W/m 7,2 C 8,2 C 16,1 km/h (3 Bft) 97,87 %
08.04.2019 21:48 10,1 C 0,0 C 9,4 C 82 % 1009,2 hPa 0,0 l/m 10,4 km/h (2 Bft) W 259 0 min 0,000 mm 0,0 UV-I 0 W/m 7,2 C 7,5 C 16,1 km/h (3 Bft) 98,00 %
08.04.2019 21:50 10,1 C 0,0 C 9,4 C 82 % 1009,3 hPa 0,0 l/m 8,5 km/h (2 Bft) W-SW 246 0 min 0,000 mm 0,0 UV-I 0 W/m 7,2 C 8,6 C 14,5 km/h (3 Bft) 97,87 %
08.04.2019 21:52 10,1 C 0,0 C 9,4 C 82 % 1009,3 hPa 0,0 l/m 9,7 km/h (2 Bft) SW 224 0 min 0,000 mm 0,0 UV-I 0 W/m 7,2 C 7,9 C 16,1 km/h (3 Bft) 96,00 %
08.04.2019 21:54 10,0 C 0,0 C 9,4 C 82 % 1009,3 hPa 0,0 l/m 10,4 km/h (2 Bft) SW 234 0 min 0,000 mm 0,0 UV-I 0 W/m 7,1 C 7,4 C 16,1 km/h (3 Bft) 98,00 %
08.04.2019 21:56 10,0 C 0,0 C 9,4 C 82 % 1009,3 hPa 0,0 l/m 9,9 km/h (2 Bft) W-SW 240 0 min 0,000 mm 0,0 UV-I 0 W/m 7,1 C 7,7 C 14,5 km/h (3 Bft) 97,14 %
08.04.2019 21:58 10,0 C 0,0 C 9,4 C 83 % 1009,4 hPa 0,0 l/m 11,3 km/h (2 Bft) W-SW 240 0 min 0,000 mm 0,0 UV-I 0 W/m 7,2 C 6,9 C 19,3 km/h (3 Bft) 96,43 %
08.04.2019 22:00 10,0 C 0,0 C 9,4 C 83 % 1009,3 hPa 0,0 l/m 10,1 km/h (2 Bft) SW 232 0 min 0,000 mm 0,0 UV-I 0 W/m 7,2 C 7,5 C 16,1 km/h (3 Bft) 100,00 %
08.04.2019 22:02 10,0 C 0,0 C 9,4 C 83 % 1009,3 hPa 0,0 l/m 8,1 km/h (2 Bft) SW 227 0 min 0,025 mm 0,0 UV-I 0 W/m 7,2 C 8,8 C 12,9 km/h (3 Bft) 100,00 %
08.04.2019 22:04 10,0 C 0,0 C 9,4 C 83 % 1009,4 hPa 0,0 l/m 10,3 km/h (2 Bft) W 265 0 min 0,000 mm 0,0 UV-I 0 W/m 7,2 C 7,4 C 16,1 km/h (3 Bft) 100,00 %
08.04.2019 22:06 10,0 C 0,0 C 9,4 C 82 % 1009,4 hPa 0,0 l/m 7,4 km/h (2 Bft) W-SW 256 0 min 0,000 mm 0,0 UV-I 0 W/m 7,1 C 9,3 C 11,3 km/h (2 Bft) 100,00 %
08.04.2019 22:08 10,0 C 0,0 C 9,4 C 82 % 1009,4 hPa 0,0 l/m 7,8 km/h (2 Bft) SW 232 0 min 0,000 mm 0,0 UV-I 0 W/m 7,1 C 9,0 C 12,9 km/h (3 Bft) 100,00 %
08.04.2019 22:10 10,0 C 0,0 C 9,4 C 82 % 1009,3 hPa 0,0 l/m 6,4 km/h (2 Bft) W 267 0 min 0,000 mm 0,0 UV-I 0 W/m 7,1 C 10,0 C 11,3 km/h (2 Bft) 100,00 %
08.04.2019 22:12 10,0 C 0,0 C 9,4 C 82 % 1009,4 hPa 0,0 l/m 9,3 km/h (2 Bft) W 275 0 min 0,000 mm 0,0 UV-I 0 W/m 7,1 C 8,0 C 16,1 km/h (3 Bft) 100,00 %
08.04.2019 22:14 10,0 C 0,0 C 9,4 C 82 % 1009,4 hPa 0,0 l/m 9,3 km/h (2 Bft) SW 235 0 min 0,000 mm 0,0 UV-I 0 W/m 7,1 C 8,0 C 14,5 km/h (3 Bft) 100,00 %
08.04.2019 22:16 10,0 C 0,0 C 9,4 C 82 % 1009,3 hPa 0,0 l/m 9,6 km/h (2 Bft) W-SW 240 0 min 0,000 mm 0,0 UV-I 0 W/m 7,1 C 7,8 C 14,5 km/h (3 Bft) 100,00 %
08.04.2019 22:18 10,1 C 0,0 C 9,4 C 82 % 1009,3 hPa 0,0 l/m 10,9 km/h (2 Bft) W-SW 241 0 min 0,000 mm 0,0 UV-I 0 W/m 7,2 C 7,2 C 16,1 km/h (3 Bft) 100,00 %
08.04.2019 22:20 10,1 C 0,0 C 9,4 C 82 % 1009,2 hPa 0,0 l/m 12,6 km/h (3 Bft) W-SW 252 0 min 0,000 mm 0,0 UV-I 0 W/m 7,2 C 6,3 C 17,7 km/h (3 Bft) 100,00 %
08.04.2019 22:22 10,1 C 0,0 C 9,4 C 82 % 1009,2 hPa 0,0 l/m 12,2 km/h (2 Bft) W-SW 254 0 min 0,000 mm 0,0 UV-I 0 W/m 7,2 C 6,5 C 19,3 km/h (3 Bft) 100,00 %
08.04.2019 22:24 10,1 C 0,0 C 9,4 C 82 % 1009,3 hPa 0,0 l/m 11,4 km/h (2 Bft) W 279 0 min 0,000 mm 0,0 UV-I 0 W/m 7,2 C 6,9 C 17,7 km/h (3 Bft) 100,00 %
08.04.2019 22:26 10,0 C 0,0 C 9,4 C 82 % 1009,2 hPa 0,0 l/m 10,6 km/h (2 Bft) W 260 0 min 0,000 mm 0,0 UV-I 0 W/m 7,1 C 7,3 C 14,5 km/h (3 Bft) 97,96 %
08.04.2019 22:28 10,0 C 0,0 C 9,4 C 82 % 1009,3 hPa 0,0 l/m 12,1 km/h (2 Bft) W-SW 254 0 min 0,000 mm 0,0 UV-I 0 W/m 7,1 C 6,5 C 16,1 km/h (3 Bft) 100,00 %
08.04.2019 22:30 9,9 C 0,0 C 9,4 C 82 % 1009,2 hPa 0,0 l/m 11,3 km/h (2 Bft) W-SW 250 0 min 0,000 mm 0,0 UV-I 0 W/m 7,0 C 6,8 C 17,7 km/h (3 Bft) 100,00 %
08.04.2019 22:32 9,9 C 0,0 C 9,4 C 82 % 1009,3 hPa 0,0 l/m 9,2 km/h (2 Bft) W-SW 238 0 min 0,000 mm 0,0 UV-I 0 W/m 7,0 C 8,0 C 16,1 km/h (3 Bft) 100,00 %
08.04.2019 22:34 9,9 C 0,0 C 9,4 C 82 % 1009,2 hPa 0,0 l/m 8,7 km/h (2 Bft) W-SW 252 0 min 0,000 mm 0,0 UV-I 0 W/m 7,0 C 8,3 C 11,3 km/h (2 Bft) 100,00 %
08.04.2019 22:36 9,9 C 0,0 C 9,4 C 82 % 1009,2 hPa 0,0 l/m 10,2 km/h (2 Bft) W 266 0 min 0,000 mm 0,0 UV-I 0 W/m 7,0 C 7,4 C 16,1 km/h (3 Bft) 100,00 %
08.04.2019 22:38 9,9 C 0,0 C 9,4 C 82 % 1009,2 hPa 0,0 l/m 10,4 km/h (2 Bft) W-SW 252 0 min 0,000 mm 0,0 UV-I 0 W/m 7,0 C 7,3 C 12,9 km/h (3 Bft) 98,11 %
08.04.2019 22:40 9,9 C 0,0 C 9,4 C 82 % 1009,3 hPa 0,0 l/m 8,7 km/h (2 Bft) W-NW 282 0 min 0,000 mm 0,0 UV-I 0 W/m 7,0 C 8,3 C 12,9 km/h (3 Bft) 100,00 %
08.04.2019 22:42 9,9 C 0,0 C 9,4 C 82 % 1009,3 hPa 0,0 l/m 11,7 km/h (2 Bft) W-SW 254 0 min 0,000 mm 0,0 UV-I 0 W/m 7,0 C 6,6 C 16,1 km/h (3 Bft) 100,00 %
08.04.2019 22:44 9,9 C 0,0 C 9,4 C 82 % 1009,3 hPa 0,0 l/m 10,3 km/h (2 Bft) W 261 0 min 0,000 mm 0,0 UV-I 0 W/m 7,0 C 7,3 C 14,5 km/h (3 Bft) 97,87 %
08.04.2019 22:46 9,9 C 0,0 C 9,4 C 82 % 1009,3 hPa 0,0 l/m 9,8 km/h (2 Bft) W-SW 252 0 min 0,000 mm 0,0 UV-I 0 W/m 7,0 C 7,6 C 14,5 km/h (3 Bft) 96,43 %
08.04.2019 22:48 9,9 C 0,0 C 9,4 C 82 % 1009,3 hPa 0,0 l/m 9,7 km/h (2 Bft) W 274 0 min 0,000 mm 0,0 UV-I 0 W/m 7,0 C 7,7 C 14,5 km/h (3 Bft) 95,12 %
08.04.2019 22:50 9,9 C 0,0 C 9,4 C 82 % 1009,2 hPa 0,0 l/m 9,3 km/h (2 Bft) SW 224 0 min 0,000 mm 0,0 UV-I 0 W/m 7,0 C 7,9 C 14,5 km/h (3 Bft) 98,00 %
08.04.2019 22:52 9,9 C 0,0 C 9,4 C 82 % 1009,2 hPa 0,0 l/m 10,1 km/h (2 Bft) W 270 0 min 0,000 mm 0,0 UV-I 0 W/m 7,0 C 7,4 C 12,9 km/h (3 Bft) 97,56 %
08.04.2019 22:54 9,9 C 0,0 C 9,4 C 82 % 1009,2 hPa 0,0 l/m 8,8 km/h (2 Bft) SW 226 0 min 0,000 mm 0,0 UV-I 0 W/m 7,0 C 8,2 C 12,9 km/h (3 Bft) 98,00 %
08.04.2019 22:56 9,9 C 0,0 C 9,4 C 82 % 1009,2 hPa 0,0 l/m 10,5 km/h (2 Bft) W 265 0 min 0,000 mm 0,0 UV-I 0 W/m 7,0 C 7,2 C 17,7 km/h (3 Bft) 98,00 %
08.04.2019 22:58 9,9 C 0,0 C 9,4 C 82 % 1009,2 hPa 0,0 l/m 9,6 km/h (2 Bft) W 277 0 min 0,000 mm 0,0 UV-I 0 W/m 7,0 C 7,7 C 14,5 km/h (3 Bft) 97,44 %
08.04.2019 23:00 9,9 C 0,0 C 9,4 C 82 % 1009,2 hPa 0,0 l/m 10,4 km/h (2 Bft) W-SW 248 0 min 0,026 mm 0,0 UV-I 0 W/m 7,0 C 7,3 C 14,5 km/h (3 Bft) 94,00 %
08.04.2019 23:02 9,9 C 0,0 C 9,4 C 82 % 1009,1 hPa 0,0 l/m 11,2 km/h (2 Bft) W 271 0 min 0,000 mm 0,0 UV-I 0 W/m 7,0 C 6,8 C 17,7 km/h (3 Bft) 97,56 %
08.04.2019 23:04 9,8 C 0,0 C 9,4 C 82 % 1009,1 hPa 0,0 l/m 12,7 km/h (3 Bft) W-NW 297 0 min 0,000 mm 0,0 UV-I 0 W/m 6,9 C 5,9 C 16,1 km/h (3 Bft) 94,00 %
08.04.2019 23:06 9,8 C 0,0 C 9,4 C 82 % 1009,1 hPa 0,0 l/m 9,2 km/h (2 Bft) W-SW 240 0 min 0,000 mm 0,0 UV-I 0 W/m 6,9 C 7,9 C 16,1 km/h (3 Bft) 95,12 %
08.04.2019 23:08 9,8 C 0,0 C 9,4 C 82 % 1009,0 hPa 0,0 l/m 11,9 km/h (2 Bft) W 274 0 min 0,000 mm 0,0 UV-I 0 W/m 6,9 C 6,3 C 17,7 km/h (3 Bft) 94,34 %
08.04.2019 23:10 9,8 C 0,0 C 9,4 C 82 % 1009,0 hPa 0,0 l/m 13,8 km/h (3 Bft) W 259 0 min 0,000 mm 0,0 UV-I 0 W/m 6,9 C 5,4 C 19,3 km/h (3 Bft) 95,74 %
08.04.2019 23:12 9,8 C 0,0 C 8,9 C 82 % 1009,0 hPa 0,0 l/m 13,7 km/h (3 Bft) W 259 0 min 0,000 mm 0,0 UV-I 0 W/m 6,9 C 5,5 C 17,7 km/h (3 Bft) 96,23 %
08.04.2019 23:14 9,8 C 0,0 C 8,9 C 82 % 1009,1 hPa 0,0 l/m 13,8 km/h (3 Bft) W 281 0 min 0,000 mm 0,0 UV-I 0 W/m 6,9 C 5,4 C 17,7 km/h (3 Bft) 98,00 %
08.04.2019 23:16 9,8 C 0,0 C 8,9 C 82 % 1009,1 hPa 0,0 l/m 10,4 km/h (2 Bft) W-SW 248 0 min 0,000 mm 0,0 UV-I 0 W/m 6,9 C 7,1 C 16,1 km/h (3 Bft) 94,74 %
08.04.2019 23:18 9,8 C 0,0 C 8,9 C 83 % 1009,1 hPa 0,0 l/m 11,2 km/h (2 Bft) SW 224 0 min 0,000 mm 0,0 UV-I 0 W/m 7,1 C 6,7 C 14,5 km/h (3 Bft) 98,00 %
08.04.2019 23:20 9,8 C 0,0 C 8,9 C 82 % 1009,1 hPa 0,0 l/m 11,8 km/h (2 Bft) W-SW 250 0 min 0,000 mm 0,0 UV-I 0 W/m 6,9 C 6,4 C 17,7 km/h (3 Bft) 97,73 %
08.04.2019 23:22 9,7 C 0,0 C 8,9 C 82 % 1009,1 hPa 0,0 l/m 10,7 km/h (2 Bft) W-SW 254 0 min 0,000 mm 0,0 UV-I 0 W/m 6,8 C 6,9 C 16,1 km/h (3 Bft) 96,23 %
08.04.2019 23:24 9,7 C 0,0 C 8,9 C 82 % 1009,1 hPa 0,0 l/m 10,5 km/h (2 Bft) W-SW 244 0 min 0,000 mm 0,0 UV-I 0 W/m 6,8 C 7,0 C 16,1 km/h (3 Bft) 97,56 %
08.04.2019 23:26 9,7 C 0,0 C 8,9 C 82 % 1009,1 hPa 0,0 l/m 9,1 km/h (2 Bft) W-SW 255 0 min 0,000 mm 0,0 UV-I 0 W/m 6,8 C 7,8 C 14,5 km/h (3 Bft) 100,00 %
08.04.2019 23:28 9,7 C 0,0 C 8,3 C 83 % 1009,1 hPa 0,0 l/m 9,9 km/h (2 Bft) W 262 0 min 0,000 mm 0,0 UV-I 0 W/m 7,0 C 7,3 C 17,7 km/h (3 Bft) 100,00 %
08.04.2019 23:30 9,7 C 0,0 C 8,3 C 83 % 1009,2 hPa 0,0 l/m 10,4 km/h (2 Bft) W 266 0 min 0,000 mm 0,0 UV-I 0 W/m 7,0 C 7,0 C 14,5 km/h (3 Bft) 100,00 %
08.04.2019 23:32 9,6 C 0,0 C 8,3 C 83 % 1009,2 hPa 0,0 l/m 9,5 km/h (2 Bft) W 277 0 min 0,000 mm 0,0 UV-I 0 W/m 6,9 C 7,5 C 16,1 km/h (3 Bft) 100,00 %
08.04.2019 23:34 9,6 C 0,0 C 8,3 C 83 % 1009,2 hPa 0,0 l/m 8,6 km/h (2 Bft) W-SW 240 0 min 0,000 mm 0,0 UV-I 0 W/m 6,9 C 8,0 C 11,3 km/h (2 Bft) 100,00 %
08.04.2019 23:36 9,6 C 0,0 C 8,3 C 83 % 1009,2 hPa 0,0 l/m 9,4 km/h (2 Bft) W 259 0 min 0,000 mm 0,0 UV-I 0 W/m 6,9 C 7,5 C 14,5 km/h (3 Bft) 100,00 %
08.04.2019 23:38 9,6 C 0,0 C 8,3 C 83 % 1009,2 hPa 0,0 l/m 10,1 km/h (2 Bft) W 269 0 min 0,000 mm 0,0 UV-I 0 W/m 6,9 C 7,1 C 14,5 km/h (3 Bft) 100,00 %
08.04.2019 23:40 9,5 C 0,0 C 8,3 C 83 % 1009,2 hPa 0,0 l/m 7,0 km/h (2 Bft) W 269 0 min 0,000 mm 0,0 UV-I 0 W/m 6,8 C 9,1 C 11,3 km/h (2 Bft) 100,00 %
08.04.2019 23:42 9,5 C 0,0 C 8,3 C 83 % 1009,2 hPa 0,0 l/m 8,1 km/h (2 Bft) W 267 0 min 0,000 mm 0,0 UV-I 0 W/m 6,8 C 8,3 C 12,9 km/h (3 Bft) 100,00 %
08.04.2019 23:44 9,6 C 0,0 C 8,3 C 83 % 1009,2 hPa 0,0 l/m 8,3 km/h (2 Bft) W-SW 253 0 min 0,000 mm 0,0 UV-I 0 W/m 6,9 C 8,2 C 12,9 km/h (3 Bft) 100,00 %
08.04.2019 23:46 9,6 C 0,0 C 8,9 C 83 % 1009,2 hPa 0,0 l/m 8,3 km/h (2 Bft) W-SW 255 0 min 0,000 mm 0,0 UV-I 0 W/m 6,9 C 8,2 C 16,1 km/h (3 Bft) 98,00 %
08.04.2019 23:48 9,6 C 0,0 C 8,9 C 83 % 1009,2 hPa 0,0 l/m 7,5 km/h (2 Bft) SW 235 0 min 0,000 mm 0,0 UV-I 0 W/m 6,9 C 8,8 C 11,3 km/h (2 Bft) 100,00 %
08.04.2019 23:50 9,6 C 0,0 C 8,9 C 83 % 1009,2 hPa 0,0 l/m 6,5 km/h (2 Bft) W-SW 246 0 min 0,000 mm 0,0 UV-I 0 W/m 6,9 C 9,6 C 11,3 km/h (2 Bft) 100,00 %
08.04.2019 23:52 9,6 C 0,0 C 8,9 C 83 % 1009,1 hPa 0,0 l/m 7,4 km/h (2 Bft) W 262 0 min 0,000 mm 0,0 UV-I 0 W/m 6,9 C 8,9 C 11,3 km/h (2 Bft) 100,00 %
08.04.2019 23:54 9,6 C 0,0 C 8,9 C 83 % 1009,1 hPa 0,0 l/m 8,9 km/h (2 Bft) W 265 0 min 0,000 mm 0,0 UV-I 0 W/m 6,9 C 7,8 C 12,9 km/h (3 Bft) 100,00 %
08.04.2019 23:56 9,6 C 0,0 C 8,9 C 83 % 1009,1 hPa 0,0 l/m 9,7 km/h (2 Bft) SW 234 0 min 0,000 mm 0,0 UV-I 0 W/m 6,9 C 7,3 C 14,5 km/h (3 Bft) 100,00 %
08.04.2019 23:58 9,6 C 0,0 C 8,9 C 83 % 1009,1 hPa 0,0 l/m 8,0 km/h (2 Bft) W-SW 255 0 min 0,000 mm 0,0 UV-I 0 W/m 6,9 C 8,4 C 14,5 km/h (3 Bft) 100,00 %
_ Min-Zeit 00:34 20:40 00:08 16:50 00:00 - 01:24 - - - - - - 00:14 13:06 01:26 20:50
Minimum _ 6,9 C 0,0 C 4,4 C 75 % 1004,3 hPa - 2,0 km/h (1 Bft) - - - - - - 4,8 C 3,3 C 3,2 km/h (1 Bft) 88,89 %
_ Max-Zeit 16:50 00:00 14:22 03:32 21:26 00:00 18:32 - - 13:42 15:00 14:14 14:22 11:32 10:28 14:52 00:06
Maximum _ 12,6 C 10,6 C 18,9 C 88 % 1009,4 hPa 0,0 l/m 22,0 km/h
SW (4 Bft)
- - 2 min 0,228 mm 2,1 UV-I 495 W/m 8,7 C 10,8 C 30,6 km/h
W-SW (5 Bft)
100,00 %
Durchschnitt _ 9,9 C 9,1 C 10,6 C 83 % 1007,4 hPa #0,0 l/m 10,2 km/h (2 Bft) SW - #3:53 h #1,575 mm 1,1 UV-I 178 W/m 7,1 C 7,6 C 15,4 km/h (3 Bft) 97,56 %